[[{"header":{"parameterUnit":"m.s-1","parameterCategory":1,"la1":30.6,"la2":29.2853,"lo1":-89.7004,"lo2":-87.6739,"dy":0.0162,"dx":0.0183,"nx":112,"ny":82,"refTime":"2024-08-19T06:00:00:Z","depth":0,"parameterNumber":2,"parameterNumberName":"U-component_of_WINDS"},"data":[0.0,0.0,0.0,0.0,0.0,0.0,0.0,0.0,0.0,0.0,0.0,0.0,0.0,0.0,0.0,0.0,0.0,0.0,0.0,0.0,0.0,0.0,0.0,0.0,0.0,0.0,0.0,0.0,0.0,0.0,0.0,0.0,0.0,0.0,0.0,0.0,0.0,0.0,0.0,0.0,0.0,0.0,0.0,0.0,0.0,0.0,0.0,0.0,0.0,0.0,0.0,0.0,0.0,0.0,0.0,0.0,0.0,0.0,0.0,0.0,0.0,0.0,0.0,0.0,0.0,0.0,0.0,0.0,0.0,0.0,0.0,0.0,0.0,0.0,0.0,0.0,0.0,0.0,0.0,0.0,0.0,0.0,0.0,0.0,0.0,0.0,0.0,0.0,0.0,0.0,0.0,-0.6396,-0.6412,-0.6412,-0.6412,-0.6412,-0.5965,-0.4981,0.0,0.0,0.0,0.0,0.0,0.0,0.0,0.0,0.0,0.0,0.0,0.0,0.0,0.0,0.0,0.0,0.0,0.0,0.0,0.0,0.0,0.0,0.0,0.0,0.0,0.0,0.0,0.0,0.0,0.0,0.0,0.0,0.0,0.0,0.0,0.0,0.0,0.0,0.0,0.0,0.0,0.0,0.0,0.0,0.0,0.0,0.0,0.0,0.0,0.0,0.0,0.0,0.0,0.0,0.0,0.0,0.0,0.0,0.0,0.0,0.0,0.0,0.0,0.0,0.0,0.0,0.0,0.0,0.0,0.0,0.0,0.0,0.0,0.0,0.0,0.0,0.0,0.0,0.0,0.0,0.0,0.0,0.0,0.0,0.0,0.0,0.0,0.0,0.0,0.0,0.0,0.0,0.0,0.0,0.0,0.0,0.0,0.0,0.0,0.0,0.0,0.0,0.0,0.0,-0.6198,-0.639,-0.6412,-0.6412,-0.6412,-0.6412,-0.626,-0.591,0.0,0.0,0.0,0.0,0.0,0.0,0.0,0.0,0.0,0.0,0.0,0.0,0.0,0.0,0.0,0.0,0.0,0.0,0.0,0.0,0.0,0.0,0.0,0.0,0.0,0.0,0.0,0.0,0.0,0.0,0.0,0.0,0.0,0.0,0.0,0.0,0.0,0.0,0.0,0.0,0.0,0.0,0.0,0.0,0.0,0.0,0.0,0.0,0.0,0.0,0.0,0.0,0.0,0.0,0.0,0.0,0.0,0.0,0.0,0.0,0.0,0.0,0.0,0.0,0.0,0.0,0.0,0.0,0.0,0.0,0.0,0.0,0.0,0.0,0.0,0.0,0.0,0.0,0.0,0.0,0.0,0.0,0.0,0.0,0.0,0.0,0.0,0.0,0.0,0.0,0.0,0.0,0.0,0.0,0.0,0.0,0.0,0.0,0.0,0.0,0.0,0.0,0.0,-0.6172,-0.6252,-0.6396,-0.6412,-0.6412,-0.6412,-0.6412,-0.6282,-0.6007,-0.5461,0.0,0.0,0.0,0.0,0.0,0.0,0.0,0.0,0.0,0.0,0.0,0.0,0.0,0.0,0.0,0.0,0.0,0.0,0.0,0.0,0.0,0.0,0.0,0.0,0.0,0.0,0.0,0.0,0.0,0.0,0.0,0.0,0.0,0.0,0.0,0.0,0.0,0.0,0.0,0.0,0.0,0.0,0.0,0.0,0.0,0.0,0.0,0.0,0.0,0.0,0.0,0.0,0.0,0.0,0.0,0.0,0.0,0.0,0.0,0.0,0.0,0.0,0.0,0.0,0.0,0.0,0.0,0.0,0.0,0.0,0.0,0.0,0.0,0.0,0.0,0.0,0.0,0.0,0.0,0.0,0.0,0.0,0.0,0.0,0.0,0.0,0.0,0.0,0.0,0.0,0.0,0.0,0.0,0.0,0.0,0.0,0.0,0.0,0.0,0.0,0.0,0.0,-0.6298,-0.6339,-0.6401,-0.6412,-0.6412,-0.6412,-0.6363,-0.6201,-0.592,-0.5719,0.0,0.0,0.0,0.0,0.0,0.0,0.0,0.0,0.0,0.0,0.0,0.0,0.0,0.0,0.0,0.0,0.0,0.0,0.0,0.0,0.0,0.0,0.0,0.0,0.0,0.0,0.0,0.0,0.0,0.0,0.0,0.0,0.0,0.0,0.0,0.0,0.0,0.0,0.0,0.0,0.0,0.0,0.0,0.0,0.0,0.0,0.0,0.0,0.0,0.0,0.0,0.0,0.0,0.0,0.0,0.0,0.0,0.0,0.0,0.0,0.0,0.0,0.0,0.0,0.0,0.0,0.0,0.0,0.0,0.0,0.0,0.0,0.0,0.0,0.0,0.0,0.0,0.0,0.0,0.0,0.0,0.0,0.0,0.0,0.0,0.0,0.0,0.0,0.0,0.0,0.0,0.0,0.0,0.0,0.0,0.0,0.0,0.0,0.0,0.0,0.0,0.0,-0.629,-0.6401,-0.6412,-0.6412,-0.6412,-0.6412,-0.6236,-0.6051,-0.5909,-0.5605,0.0,0.0,0.0,0.0,0.0,0.0,0.0,0.0,0.0,0.0,0.0,0.0,0.0,0.0,0.0,0.0,0.0,0.0,0.0,0.0,0.0,0.0,0.0,0.0,0.0,0.0,0.0,0.0,0.0,0.0,0.0,0.0,0.0,0.0,0.0,0.0,0.0,0.0,0.0,0.0,0.0,0.0,0.0,0.0,0.0,0.0,0.0,0.0,0.0,0.0,0.0,0.0,0.0,0.0,0.0,0.0,0.0,0.0,0.0,0.0,0.0,0.0,0.0,0.0,0.0,0.0,0.0,0.0,0.0,0.0,0.0,0.0,0.0,0.0,0.0,0.0,0.0,0.0,0.0,0.0,0.0,0.0,0.0,0.0,0.0,0.0,0.0,0.0,0.0,0.0,0.0,0.0,0.0,0.0,0.0,0.0,0.0,0.0,0.0,0.0,0.0,0.0,-0.623,-0.6361,0.0,-0.6412,-0.6412,-0.6412,-0.6331,-0.6136,-0.5794,0.0,0.0,0.0,0.0,0.0,0.0,0.0,0.0,0.0,0.0,0.0,0.0,0.0,0.0,0.0,0.0,0.0,0.0,0.0,0.0,0.0,0.0,0.0,0.0,0.0,0.0,0.0,0.0,0.0,0.0,0.0,0.0,0.0,0.0,0.0,0.0,0.0,0.0,0.0,0.0,0.0,0.0,0.0,0.0,0.0,0.0,0.0,0.0,0.0,0.0,0.0,0.0,0.0,0.0,0.0,0.0,0.0,0.0,0.0,0.0,0.0,0.0,0.0,0.0,0.0,0.0,0.0,0.0,0.0,0.0,0.0,0.0,0.0,0.0,0.0,0.0,0.0,0.0,0.0,0.0,0.0,0.0,0.0,0.0,0.0,0.0,0.0,0.0,0.0,0.0,0.0,0.0,0.0,0.0,0.0,0.0,0.0,0.0,0.0,0.0,0.0,0.0,-0.6045,-0.6152,-0.6251,0.0,-0.6412,-0.6412,-0.6412,-0.6341,-0.613,-0.5735,0.0,0.0,0.0,0.0,0.0,0.0,0.0,0.0,0.0,0.0,0.0,0.0,0.0,0.0,0.0,0.0,0.0,0.0,0.0,0.0,0.0,0.0,0.0,0.0,0.0,0.0,0.0,0.0,0.0,0.0,0.0,0.0,0.0,0.0,0.0,0.0,0.0,0.0,0.0,0.0,0.0,0.0,0.0,0.0,0.0,0.0,0.0,0.0,0.0,0.0,0.0,0.0,0.0,0.0,0.0,0.0,0.0,0.0,0.0,0.0,0.0,0.0,0.0,0.0,0.0,0.0,0.0,0.0,0.0,0.0,0.0,0.0,0.0,0.0,0.0,0.0,0.0,0.0,0.0,0.0,0.0,0.0,0.0,0.0,0.0,0.0,0.0,0.0,0.0,0.0,0.0,0.0,0.0,0.0,0.0,0.0,0.0,0.0,0.0,0.0,0.0,0.0,-0.6033,-0.6027,-0.6092,-0.6362,-0.6387,-0.6387,-0.6387,-0.6225,-0.5991,0.0,0.0,0.0,0.0,0.0,0.0,0.0,0.0,0.0,0.0,0.0,0.0,0.0,0.0,0.0,0.0,0.0,0.0,0.0,0.0,0.0,0.0,0.0,0.0,0.0,0.0,0.0,0.0,0.0,0.0,0.0,0.0,0.0,0.0,0.0,0.0,0.0,0.0,0.0,0.0,0.0,0.0,0.0,0.0,0.0,0.0,0.0,0.0,0.0,0.0,0.0,0.0,0.0,0.0,0.0,0.0,0.0,0.0,0.0,0.0,0.0,0.0,0.0,0.0,0.0,0.0,0.0,0.0,0.0,0.0,0.0,0.0,0.0,0.0,0.0,0.0,0.0,0.0,0.0,0.0,0.0,0.0,0.0,0.0,0.0,0.0,0.0,0.0,0.0,0.0,0.0,0.0,0.0,0.0,0.0,0.0,0.0,0.0,0.0,0.0,0.0,0.0,0.0,-0.579,-0.5852,-0.5925,-0.6097,-0.6117,-0.6117,-0.6117,-0.6055,-0.589,-0.558,0.0,0.0,0.0,0.0,0.0,0.0,0.0,0.0,0.0,0.0,0.0,0.0,0.0,0.0,0.0,0.0,0.0,0.0,0.0,0.0,0.0,0.0,0.0,0.0,0.0,0.0,0.0,0.0,0.0,0.0,0.0,0.0,0.0,0.0,0.0,0.0,0.0,0.0,0.0,0.0,0.0,0.0,0.0,0.0,0.0,0.0,0.0,0.0,0.0,0.0,0.0,0.0,0.0,0.0,0.0,0.0,0.0,0.0,0.0,0.0,0.0,0.0,0.0,0.0,0.0,0.0,0.0,0.0,0.0,0.0,0.0,0.0,0.0,0.0,0.0,0.0,0.0,0.0,0.0,0.0,0.0,0.0,0.0,0.0,0.0,0.0,0.0,0.0,0.0,0.0,0.0,0.0,0.0,0.0,0.0,0.0,0.0,0.0,0.0,0.0,0.0,0.0,-0.5599,-0.5632,-0.5723,-0.5885,-0.5866,-0.5842,-0.5842,-0.5842,-0.5699,-0.5355,0.0,0.0,0.0,0.0,0.0,0.0,0.0,0.0,0.0,0.0,0.0,0.0,0.0,0.0,0.0,0.0,0.0,0.0,0.0,0.0,0.0,0.0,0.0,0.0,0.0,0.0,0.0,0.0,0.0,0.0,0.0,0.0,0.0,0.0,0.0,0.0,0.0,0.0,0.0,0.0,0.0,0.0,0.0,0.0,0.0,0.0,0.0,0.0,0.0,0.0,0.0,0.0,0.0,0.0,0.0,0.0,0.0,0.0,0.0,0.0,0.0,0.0,0.0,0.0,0.0,0.0,0.0,0.0,0.0,0.0,0.0,0.0,0.0,0.0,0.0,0.0,0.0,0.0,0.0,0.0,0.0,0.0,0.0,0.0,0.0,0.0,0.0,0.0,0.0,0.0,0.0,0.0,0.0,0.0,0.0,0.0,0.0,0.0,0.0,0.0,0.0,0.0,-0.5489,-0.5431,-0.5477,-0.5747,-0.5648,-0.5561,-0.5561,-0.5561,-0.5439,-0.5125,0.0,0.0,0.0,0.0,0.0,0.0,0.0,0.0,0.0,0.0,0.0,0.0,0.0,0.0,0.0,0.0,0.0,0.0,0.0,0.0,0.0,0.0,0.0,0.0,0.0,0.0,0.0,0.0,0.0,0.0,0.0,0.0,0.0,0.0,0.0,0.0,0.0,0.0,0.0,0.0,0.0,0.0,0.0,0.0,0.0,0.0,0.0,0.0,0.0,0.0,0.0,0.0,0.0,0.0,0.0,0.0,0.0,0.0,0.0,0.0,-1.3002,0.0,0.0,0.0,0.0,0.0,0.0,0.0,0.0,0.0,0.0,0.0,0.0,0.0,0.0,0.0,0.0,0.0,0.0,0.0,0.0,0.0,0.0,0.0,0.0,0.0,0.0,0.0,0.0,0.0,0.0,0.0,0.0,0.0,0.0,0.0,0.0,0.0,0.0,0.0,0.0,0.0,-0.5524,-0.533,-0.5234,-0.5472,-0.5374,-0.529,-0.529,-0.529,-0.5228,-0.5113,-0.5027,0.0,0.0,0.0,0.0,0.0,0.0,0.0,0.0,0.0,0.0,0.0,0.0,0.0,0.0,0.0,0.0,0.0,0.0,0.0,0.0,0.0,0.0,0.0,0.0,0.0,0.0,0.0,0.0,0.0,0.0,0.0,0.0,0.0,0.0,0.0,0.0,0.0,0.0,0.0,0.0,0.0,0.0,0.0,0.0,0.0,0.0,0.0,0.0,0.0,0.0,0.0,0.0,0.0,0.0,0.0,0.0,0.0,0.0,0.0,0.0,-1.2956,0.0,0.0,0.0,0.0,0.0,0.0,0.0,0.0,0.0,0.0,0.0,0.0,0.0,0.0,0.0,0.0,0.0,0.0,0.0,0.0,0.0,0.0,0.0,0.0,0.0,0.0,0.0,0.0,0.0,0.0,0.0,0.0,0.0,0.0,0.0,0.0,0.0,0.0,0.0,0.0,-0.5306,-0.5179,-0.5145,-0.5252,-0.5095,-0.5014,-0.5014,-0.5014,-0.4972,-0.4908,-0.4852,0.0,0.0,0.0,0.0,0.0,0.0,0.0,0.0,0.0,0.0,0.0,0.0,0.0,0.0,0.0,0.0,0.0,0.0,0.0,0.0,0.0,0.0,0.0,0.0,0.0,0.0,0.0,0.0,0.0,0.0,0.0,0.0,0.0,0.0,0.0,0.0,0.0,0.0,0.0,0.0,0.0,0.0,0.0,0.0,0.0,0.0,0.0,0.0,0.0,0.0,0.0,0.0,0.0,-1.2901,-1.2953,-1.3029,-1.2797,-1.2845,-1.302,-1.2661,-1.2596,-1.274,-1.3005,0.0,0.0,0.0,0.0,0.0,0.0,0.0,0.0,0.0,0.0,0.0,0.0,0.0,0.0,0.0,0.0,0.0,0.0,0.0,0.0,0.0,0.0,0.0,0.0,-0.6198,-0.6106,0.0,0.0,0.0,0.0,0.0,0.0,0.0,0.0,0.0,0.0,0.0,0.0,-0.5118,-0.5098,-0.5108,-0.5108,-0.4919,-0.4809,-0.4809,-0.4809,-0.4781,-0.4712,-0.4708,-0.4696,0.0,0.0,0.0,0.0,0.0,0.0,0.0,0.0,0.0,0.0,0.0,0.0,0.0,0.0,0.0,0.0,0.0,0.0,0.0,0.0,0.0,0.0,0.0,0.0,0.0,0.0,0.0,0.0,0.0,0.0,0.0,0.0,-1.214,-1.2277,0.0,0.0,0.0,0.0,0.0,0.0,0.0,0.0,0.0,0.0,0.0,0.0,0.0,-1.3275,-1.3336,-1.3609,-1.3487,-1.29,-1.3128,-1.2945,-1.2418,-1.2393,-1.2393,-1.2426,-1.2525,0.0,-1.3122,-1.3181,0.0,0.0,0.0,0.0,0.0,0.0,0.0,0.0,0.0,0.0,0.0,0.0,0.0,0.0,0.0,0.0,0.0,0.0,0.0,0.0,0.0,0.0,-0.5924,-0.5955,-0.5941,-0.5924,0.0,-0.6016,-0.613,-0.5971,-0.5909,0.0,0.0,0.0,0.0,0.0,0.0,0.0,-0.5477,-0.5282,-0.5108,-0.5108,-0.4919,-0.4809,-0.4809,-0.4809,-0.4805,-0.4793,-0.4793,-0.4789,-0.4777,-0.4728,0.0,0.0,0.0,0.0,0.0,0.0,0.0,0.0,0.0,0.0,0.0,0.0,0.0,0.0,0.0,0.0,0.0,0.0,0.0,0.0,0.0,0.0,0.0,0.0,0.0,0.0,0.0,0.0,0.0,-1.1282,-1.199,-1.1937,-1.2561,-1.2875,0.0,0.0,0.0,0.0,0.0,0.0,0.0,0.0,0.0,-1.3051,-1.3147,-1.3092,-1.2833,-1.3135,-1.3103,-1.2739,-1.2924,-1.2855,-1.2572,-1.2572,-1.2572,-1.2572,-1.2686,-1.2797,-1.2983,-1.3146,-1.3181,-1.3096,0.0,0.0,0.0,0.0,-1.0141,-0.9294,-0.9069,-0.8096,-0.6937,-0.6834,0.0,0.0,0.0,0.0,0.0,0.0,0.0,0.0,0.0,0.0,-0.5898,-0.5951,-0.5999,-0.6043,-0.5922,-0.5983,-0.5972,0.0,-0.5691,-0.5572,-0.5294,0.0,0.0,0.0,0.0,-0.518,-0.5339,-0.5237,-0.5138,-0.5112,-0.499,-0.4892,-0.4813,-0.4809,-0.4809,-0.4809,-0.4809,-0.4834,-0.4908,-0.4875,-0.4859,0.0,0.0,0.0,0.0,0.0,0.0,0.0,0.0,0.0,0.0,0.0,0.0,0.0,0.0,0.0,0.0,0.0,0.0,0.0,0.0,0.0,0.0,0.0,0.0,0.0,0.0,0.0,0.0,-1.122,-1.1762,-1.1696,-1.2463,-1.2835,0.0,0.0,0.0,0.0,0.0,0.0,-1.3191,-1.3383,-1.3308,-1.2889,-1.3035,-1.2889,-1.2442,-1.2669,-1.2734,-1.2637,-1.2742,-1.2807,-1.2807,-1.2807,-1.2807,-1.2766,-1.2503,-1.2404,-1.2413,-1.2884,-1.2886,-1.2578,-1.1855,-1.1538,-1.131,-1.0287,-0.91,-0.8024,-0.8013,-0.7241,-0.6198,-0.6088,-0.6024,-0.5956,-0.5805,0.0,0.0,0.0,0.0,-0.5663,-0.5861,-0.5906,-0.5902,-0.5971,-0.6068,-0.6096,-0.5999,-0.5935,-0.5851,0.0,-0.5557,-0.5463,-0.5222,0.0,0.0,0.0,0.0,-0.5224,-0.5248,-0.5232,-0.5191,-0.5122,-0.5059,-0.4977,-0.4887,-0.4858,-0.4846,-0.4846,-0.4846,-0.49,-0.4995,-0.502,-0.5032,-0.5032,0.0,0.0,0.0,0.0,0.0,0.0,0.0,0.0,0.0,0.0,0.0,0.0,0.0,0.0,0.0,0.0,0.0,0.0,0.0,0.0,0.0,0.0,0.0,0.0,0.0,0.0,0.0,0.0,0.0,-1.1977,-1.2693,0.0,0.0,0.0,0.0,-1.3448,-1.3714,-1.3652,-1.3228,-1.3381,-1.3283,-1.2824,-1.2808,-1.2808,-1.2775,-1.2799,-1.2799,-1.2791,-1.2799,-1.2807,-1.2807,-1.2807,-1.2807,-1.2741,-1.1729,-1.1266,-1.1351,-1.2264,-1.2371,-1.1881,-1.1085,-1.0545,-1.0001,-0.8368,-0.777,-0.7667,-0.6729,-0.6374,-0.6325,-0.6436,-0.6259,-0.6036,-0.6133,-0.6005,0.0,0.0,-0.5939,-0.589,-0.5991,-0.5951,-0.5886,-0.589,-0.5898,-0.5898,-0.5894,-0.589,-0.5888,0.0,-0.5696,-0.5553,-0.5398,0.0,-0.5337,-0.5216,-0.5184,-0.5248,-0.5365,-0.5272,-0.5188,-0.5184,-0.513,-0.51,-0.5096,-0.5014,-0.4991,-0.4991,-0.4991,-0.4991,-0.4999,-0.5055,-0.51,-0.51,-0.504,0.0,0.0,0.0,0.0,0.0,0.0,0.0,0.0,0.0,0.0,0.0,0.0,0.0,0.0,0.0,0.0,0.0,0.0,0.0,0.0,0.0,0.0,0.0,0.0,0.0,0.0,0.0,0.0,-1.2005,-1.2477,0.0,-1.2239,-1.253,-1.2781,-1.2924,-1.3001,-1.3033,-1.2961,-1.2995,-1.2964,-1.2799,-1.2807,-1.2807,-1.2807,-1.2132,-1.1769,-1.1769,-1.1075,-1.0744,-1.0744,-1.0744,-1.0744,-1.0704,-1.0339,-1.0174,-1.02,-1.0518,-1.0557,-1.032,-0.9351,-0.8869,-0.8607,-0.7337,-0.6936,-0.69,-0.6539,-0.644,-0.6444,-0.6477,-0.6423,-0.6317,-0.6382,-0.628,-0.6153,-0.6276,-0.6202,-0.6108,-0.6166,-0.6085,-0.5975,-0.5975,-0.593,-0.5886,-0.5886,-0.5886,-0.5908,-0.5876,-0.5794,-0.5692,-0.554,-0.552,-0.5471,-0.5353,-0.535,-0.5406,-0.5414,-0.5353,-0.5308,-0.5196,-0.5187,-0.5146,-0.5112,-0.5079,-0.5035,-0.5003,-0.4999,-0.5024,-0.5055,-0.5092,-0.511,-0.5167,-0.5138,-0.5088,0.0,0.0,0.0,0.0,0.0,0.0,0.0,0.0,0.0,0.0,0.0,0.0,0.0,0.0,0.0,0.0,0.0,0.0,0.0,0.0,0.0,0.0,0.0,0.0,0.0,0.0,-1.228,-1.2215,-1.2475,-1.254,-1.2239,-1.2345,-1.2532,-1.2645,-1.2653,-1.271,-1.2799,-1.247,-1.2272,-1.2272,-1.1901,-1.1703,-1.1703,-1.1002,-1.0671,-1.0638,-0.9941,-0.9609,-0.9609,-0.9609,-0.9609,-0.9576,-0.9211,-0.9045,-0.9045,-0.8679,-0.8551,-0.8518,-0.8146,-0.7779,-0.7417,-0.6753,-0.6489,-0.6489,-0.6489,-0.6489,-0.6489,-0.6489,-0.6489,-0.6489,-0.6489,-0.6444,-0.6374,-0.6468,-0.6378,-0.6239,-0.63,-0.6154,-0.5992,-0.5992,-0.5951,-0.5886,-0.5886,-0.5886,-0.5886,-0.5886,-0.5867,-0.5798,-0.5675,-0.5662,-0.561,-0.5492,-0.5492,-0.5488,-0.5431,-0.5426,-0.5357,-0.5268,-0.5264,-0.524,-0.5206,-0.5173,-0.5128,-0.5067,-0.5063,-0.5092,-0.5126,-0.5126,-0.5171,-0.526,-0.5264,-0.5243,-0.518,0.0,0.0,0.0,0.0,0.0,0.0,0.0,0.0,0.0,0.0,0.0,0.0,0.0,0.0,0.0,0.0,0.0,0.0,0.0,0.0,0.0,0.0,0.0,-1.0464,-1.1553,-1.229,-1.2483,-1.2661,-1.2702,-1.2524,-1.2669,-1.2741,-1.2708,-1.2708,-1.2708,-1.2708,-1.1703,-1.1167,-1.1167,-1.014,-0.9609,-0.9609,-0.9576,-0.9543,-0.9543,-0.951,-0.951,-0.951,-0.951,-0.951,-0.9443,-0.8412,-0.7946,-0.7879,-0.692,-0.6489,-0.6585,-0.7579,-0.735,-0.6489,-0.6489,-0.6489,-0.6489,-0.6489,-0.6489,-0.6489,-0.6489,-0.6489,-0.6489,-0.6489,-0.6489,-0.6489,-0.6489,-0.639,-0.6321,-0.6321,-0.6162,-0.5996,-0.5996,-0.5955,-0.589,-0.5886,-0.5886,-0.5886,-0.5886,-0.5886,-0.5888,-0.5802,-0.5816,-0.5753,-0.5634,-0.5545,0.0,-0.5512,-0.5439,-0.5418,-0.5414,-0.5414,-0.5414,-0.5409,-0.5272,-0.5192,-0.5188,-0.5188,-0.5192,-0.5192,-0.5192,-0.5264,-0.5418,-0.5418,-0.5431,-0.5512,0.0,0.0,0.0,0.0,0.0,0.0,0.0,0.0,0.0,0.0,0.0,0.0,0.0,0.0,0.0,0.0,0.0,0.0,0.0,0.0,0.0,-0.7896,-0.8758,-0.9638,-1.0091,-1.0372,-1.0412,-1.1146,-1.1318,-1.0518,-1.1179,-1.1332,-1.0538,-1.0472,-1.0472,-1.0472,-1.0207,-1.0041,-1.0041,-0.9742,-0.9609,-0.9609,-0.8845,-0.8446,-0.8446,-0.7717,-0.7355,-0.7355,-0.7355,-0.7355,-0.735,-0.7054,-0.692,-0.6886,-0.6619,-0.6489,-0.6518,-0.6819,-0.6753,-0.6489,-0.6489,-0.6489,-0.6489,-0.6489,-0.6489,-0.6489,-0.6489,-0.6489,-0.6489,-0.6489,-0.6489,-0.6489,-0.6489,-0.6468,-0.6448,-0.6448,-0.6329,-0.6194,-0.6161,-0.6048,-0.5967,-0.5902,-0.5886,-0.5886,-0.5886,-0.5886,-0.5908,-0.5884,-0.588,-0.5847,-0.5757,-0.572,0.0,-0.5585,-0.5557,-0.5516,-0.548,-0.5471,-0.5447,-0.5414,-0.5357,-0.5316,-0.5192,-0.5188,-0.5248,-0.5341,-0.5345,-0.5414,-0.554,-0.554,-0.5553,0.0,0.0,0.0,0.0,0.0,0.0,0.0,0.0,0.0,0.0,0.0,0.0,0.0,0.0,0.0,0.0,0.0,0.0,0.0,0.0,0.0,0.0,-0.6304,-0.6885,-0.7615,-0.88,-0.9609,-0.9609,-1.014,-1.0273,-0.9643,-1.0174,-1.0299,-0.9728,-0.9695,-0.9686,-0.974,-0.9307,-0.907,-0.907,-0.8629,-0.8397,-0.8397,-0.7752,-0.7446,-0.7446,-0.6872,-0.657,-0.6566,-0.6563,-0.6542,-0.6542,-0.6505,-0.6321,-0.6049,-0.6049,-0.5848,0.0,0.0,0.0,0.0,0.0,-0.6489,-0.6489,-0.6489,-0.6489,-0.6489,-0.6489,-0.6489,-0.6489,-0.6489,-0.6489,-0.6489,-0.6489,-0.6489,-0.6489,-0.6489,-0.6386,-0.6292,-0.6202,-0.6085,-0.5995,-0.5906,-0.5671,-0.5575,-0.5855,-0.5456,0.0,-0.5421,-0.5702,-0.59,-0.5847,-0.5806,-0.5761,-0.5708,-0.5638,-0.5593,-0.554,-0.5536,-0.5516,-0.5496,-0.5492,0.0,0.0,0.0,-0.5278,-0.504,-0.5079,0.0,0.0,0.0,0.0,0.0,0.0,0.0,0.0,-0.5736,-0.6104,0.0,0.0,0.0,0.0,0.0,0.0,0.0,0.0,0.0,0.0,0.0,0.0,0.0,0.0,0.0,0.0,-0.4607,-0.4423,-0.5066,-0.7378,-0.9079,-0.9234,-0.9379,-0.9424,-0.9291,-0.9391,-0.9438,-0.9455,-0.9467,-0.9479,-0.955,0.0,0.0,0.0,0.0,-0.669,-0.669,-0.669,-0.6655,-0.6585,-0.6585,-0.6516,-0.6442,-0.6363,-0.6363,-0.6359,-0.628,-0.5871,-0.5292,-0.5292,-0.4882,-0.4434,-0.5848,-0.6388,-0.6388,-0.6388,-0.6422,-0.6489,-0.6317,0.0,0.0,-0.6284,-0.625,-0.625,-0.625,-0.625,-0.625,-0.625,-0.625,-0.625,-0.625,-0.6158,-0.6046,-0.5989,-0.5874,-0.5761,-0.5706,-0.521,-0.4957,-0.5548,-0.4715,-0.4097,-0.4681,-0.5268,-0.5671,-0.5671,-0.5635,-0.5583,-0.5583,-0.5487,-0.5407,-0.5395,0.0,0.0,-0.5496,-0.5496,-0.5526,-0.5584,-0.5538,-0.5188,-0.446,-0.4562,-0.4334,-0.3731,-0.3873,-0.4013,-0.4182,-0.4196,-0.4255,-0.4316,-0.5276,-0.5913,0.0,0.0,0.0,0.0,0.0,0.0,0.0,0.0,0.0,0.0,0.0,0.0,0.0,0.0,0.0,-0.3528,-0.3516,-0.3547,-0.3686,-0.469,-0.5843,-0.7047,-0.7991,-0.8218,-0.7359,-0.8045,-0.8193,-0.7356,-0.7287,-0.7296,-0.7313,-0.7104,-0.7004,-0.7004,-0.6795,-0.669,-0.669,-0.669,-0.6411,-0.581,0.0,0.0,-0.4832,-0.482,-0.4814,-0.4811,-0.48,-0.4695,-0.451,-0.451,-0.4414,-0.44,-0.5279,-0.5614,-0.5614,-0.5614,-0.5986,-0.6317,-0.5141,-0.5108,-0.5513,-0.4906,-0.4739,-0.4739,-0.4739,-0.4739,0.0,-0.4739,-0.4739,-0.4739,-0.4739,-0.4693,-0.4669,-0.4607,-0.4541,-0.4444,-0.4376,-0.4226,-0.4127,-0.425,-0.4066,-0.3943,-0.4066,-0.4189,-0.4281,-0.4281,-0.4272,-0.4263,-0.4263,-0.4251,-0.4195,-0.4139,-0.4647,-0.4922,-0.4888,-0.4881,-0.5086,-0.5555,-0.5178,-0.4667,-0.4043,-0.4086,-0.4085,-0.3944,-0.408,-0.4161,-0.4182,-0.4243,-0.43,-0.4321,-0.4501,-0.4697,0.0,0.0,0.0,0.0,0.0,0.0,0.0,0.0,0.0,0.0,0.0,-0.3006,-0.3027,0.0,-0.2624,-0.2642,-0.2711,-0.2875,-0.326,-0.3665,-0.4331,-0.5383,-0.5994,-0.612,-0.5604,-0.6019,-0.6139,-0.5623,-0.5625,-0.5662,-0.5699,-0.5702,-0.5702,-0.5702,-0.5701,-0.5681,-0.5681,-0.5681,-0.5502,-0.5143,-0.5143,-0.4929,-0.4537,-0.4471,-0.4458,-0.4455,-0.4426,-0.4187,-0.3778,-0.3409,-0.3235,-0.3329,-0.4034,-0.4537,-0.4839,-0.4839,-0.5074,-0.5309,-0.4568,-0.4537,-0.4772,-0.4434,-0.43,-0.43,-0.43,-0.43,-0.43,-0.43,-0.43,-0.43,-0.43,-0.43,-0.4286,-0.4229,-0.4161,-0.4123,-0.4029,-0.3709,-0.3563,-0.3878,-0.3416,-0.3055,-0.3398,-0.3162,-0.3176,-0.3789,-0.3912,-0.3912,-0.3912,-0.3912,-0.3901,-0.3841,-0.4143,-0.4343,-0.431,-0.4307,-0.4439,-0.4781,-0.4542,-0.4128,-0.3466,-0.3518,-0.3396,-0.3063,-0.314,-0.3197,-0.3197,-0.3231,-0.3239,-0.3261,-0.3285,-0.3726,0.0,0.0,0.0,0.0,0.0,0.0,0.0,0.0,-0.2135,-0.2144,-0.2188,-0.2219,-0.2225,-0.2216,-0.2236,-0.2236,-0.2241,-0.2457,-0.3025,-0.3233,-0.3455,-0.394,-0.4276,-0.445,-0.4463,-0.4463,-0.4488,-0.4547,-0.4598,-0.4646,-0.4731,-0.4734,-0.4734,-0.4734,-0.4722,-0.4729,-0.4718,-0.4718,-0.4639,-0.4483,-0.4483,-0.4374,-0.4226,-0.4109,-0.4087,-0.4085,-0.4032,-0.3658,-0.3059,-0.2464,-0.2195,-0.224,-0.2782,-0.3356,-0.3893,-0.4042,-0.4166,-0.4266,-0.3998,-0.3964,-0.4065,-0.3931,-0.39,-0.39,-0.39,-0.39,-0.39,-0.39,-0.39,-0.39,-0.39,-0.39,-0.3887,-0.3815,-0.3795,-0.3776,-0.3667,-0.3198,-0.2999,-0.3514,-0.2746,-0.2185,-0.2725,-0.2386,-0.2362,-0.3363,-0.3545,-0.3545,-0.3545,-0.3545,-0.3545,-0.3545,-0.3638,-0.3728,-0.3728,-0.383,-0.3826,-0.3621,-0.3731,-0.3506,-0.2849,-0.2881,-0.2671,-0.2119,-0.2175,-0.2192,-0.2197,-0.2193,-0.219,-0.222,-0.2285,-0.2945,-0.2346,-0.2403,-0.2417,-0.2326,-0.2183,-0.2116,0.0,0.0,-0.2208,-0.2255,-0.2293,-0.2289,-0.2277,-0.2343,-0.2363,-0.2363,-0.2386,-0.2403,-0.2478,-0.2519,-0.2546,-0.2625,-0.3837,-0.4665,-0.4683,-0.4651,-0.471,-0.4766,-0.4777,-0.4785,-0.4791,-0.4791,-0.4791,-0.4791,-0.4785,-0.4758,-0.4707,-0.4707,-0.4351,-0.3646,-0.3646,-0.3245,-0.2551,-0.2548,-0.2545,-0.2544,-0.2548,-0.2499,-0.239,-0.2252,-0.2204,-0.2201,-0.2269,-0.2374,-0.2506,-0.3089,-0.3732,-0.4132,-0.286,-0.2827,-0.3228,-0.2625,-0.2423,-0.2423,-0.2423,-0.2423,-0.2423,-0.2423,-0.2423,-0.2423,-0.2423,-0.2423,-0.2422,-0.2418,-0.2362,-0.2338,-0.2302,-0.2246,-0.2225,-0.229,-0.219,-0.2123,-0.2187,-0.2152,-0.2132,-0.22,-0.2224,-0.2224,-0.2224,-0.2224,-0.2224,-0.2224,-0.2746,-0.3114,-0.3114,-0.3652,-0.3493,-0.2301,-0.2779,-0.2851,-0.2235,-0.2206,-0.2221,-0.2182,-0.2186,-0.2201,-0.2195,-0.219,-0.2221,-0.2286,-0.2315,-0.2401,-0.202,-0.2057,-0.2123,0.0,-0.2157,-0.2188,-0.2256,-0.2262,-0.2273,-0.2345,-0.235,-0.235,-0.2343,-0.2395,-0.241,0.0,-0.2427,-0.2429,-0.2447,-0.242,-0.2393,-0.2416,-0.2958,-0.336,-0.3378,-0.3366,-0.3387,-0.3404,-0.3452,-0.3469,-0.3444,-0.3465,-0.3469,-0.3442,-0.3417,-0.3396,-0.3344,-0.3344,-0.3184,-0.287,-0.2849,-0.2691,-0.2358,-0.2304,-0.2296,-0.2296,-0.2284,-0.2305,-0.229,-0.2277,-0.2226,-0.221,-0.221,-0.221,-0.224,-0.2505,-0.2827,-0.2993,-0.2397,-0.2389,-0.2558,-0.2289,-0.2189,-0.2189,-0.2189,-0.2189,-0.2189,-0.2189,-0.2189,-0.2189,-0.2189,-0.2189,-0.2189,-0.2189,-0.2178,-0.217,-0.217,-0.2159,-0.215,-0.215,-0.2135,-0.209,-0.209,-0.2109,-0.2088,-0.2063,-0.2059,-0.2059,-0.2059,-0.2059,-0.2059,-0.2059,-0.2312,-0.2469,-0.2469,-0.2738,-0.266,-0.2103,-0.2311,-0.2368,-0.2168,-0.217,-0.2183,-0.2214,-0.2215,-0.2196,-0.2191,-0.2222,-0.2278,-0.2292,-0.2284,-0.1932,-0.2091,0.0,0.0,-0.2195,-0.2229,-0.223,-0.2296,-0.2303,-0.2319,-0.2379,-0.2384,-0.239,-0.2429,-0.2443,-0.2458,-0.2528,-0.2482,-0.2477,-0.2531,-0.2487,-0.2413,-0.2442,-0.2441,-0.2441,-0.2441,-0.2423,-0.2443,-0.2459,-0.2502,-0.2521,-0.2545,-0.2526,-0.2525,-0.2534,-0.2473,-0.2453,-0.2436,-0.2436,-0.2432,-0.2385,-0.2401,-0.2386,-0.2415,-0.2346,-0.2296,-0.2296,-0.2296,-0.2285,-0.2303,-0.2303,-0.2253,-0.2234,-0.2234,-0.2234,-0.223,-0.2236,-0.2214,-0.2196,-0.2208,-0.2196,-0.2189,-0.2189,-0.2189,-0.2189,-0.2189,-0.2189,-0.2189,-0.2189,-0.2195,-0.2199,-0.219,-0.2201,-0.221,-0.2192,-0.2195,-0.2199,-0.219,-0.2189,-0.2189,-0.2189,-0.217,-0.2121,-0.2121,-0.2136,-0.2121,-0.2121,-0.2121,-0.2116,-0.2098,-0.2096,-0.2096,-0.2096,-0.2096,-0.2096,-0.2096,-0.2105,-0.2086,-0.2108,-0.2117,-0.2135,-0.22,-0.2201,-0.2215,-0.2211,-0.2213,-0.2193,-0.2222,-0.1959,-0.1828,-0.1835,-0.1488,-0.0874,0.0,0.0,-0.2199,-0.22,-0.2245,-0.2297,-0.2288,-0.2295,-0.2312,-0.2371,-0.2399,-0.2434,-0.2495,-0.2492,-0.2522,-0.2592,-0.2579,-0.2587,-0.26,-0.253,-0.2499,-0.2509,-0.2505,-0.2505,-0.2505,-0.2506,-0.2531,-0.259,-0.2597,-0.261,-0.2596,-0.2598,-0.2586,-0.2597,-0.2596,-0.2567,-0.2507,-0.2506,-0.2453,-0.2386,-0.2385,-0.2406,-0.2415,-0.2346,-0.2296,-0.2296,-0.2296,-0.2296,-0.2295,-0.2295,-0.2295,-0.2293,-0.2293,-0.2293,-0.2291,-0.2298,-0.2251,-0.22,-0.2199,-0.2214,-0.2189,-0.2189,-0.2189,-0.2189,-0.2189,-0.2189,-0.2189,-0.2189,-0.221,-0.2192,-0.2196,-0.2199,-0.2193,-0.2203,-0.2211,-0.2191,-0.2195,-0.2189,-0.2189,-0.2189,-0.2188,-0.2186,-0.2186,-0.2186,-0.2185,-0.2185,-0.2185,-0.2164,-0.2105,-0.2096,-0.2096,-0.2096,-0.2096,-0.2096,-0.2096,-0.2091,-0.2108,-0.2109,-0.217,-0.22,-0.2198,-0.2199,-0.2213,-0.2209,-0.2209,-0.2224,-0.2289,-0.1108,-0.0575,-0.0619,0.0546,0.1129,0.0,0.0,-0.2195,-0.2195,-0.224,-0.2285,-0.2295,-0.2296,-0.2308,-0.2386,-0.2369,-0.2367,-0.2428,-0.2447,-0.2477,-0.2588,-0.2608,-0.2585,-0.2613,-0.2592,-0.2555,-0.2504,-0.2533,0.0,-0.2513,-0.2487,0.0,-0.2596,-0.2617,-0.2592,-0.2601,-0.2579,-0.2617,-0.2589,-0.261,-0.2589,-0.2568,-0.2508,-0.2493,-0.2484,-0.2463,-0.2438,-0.2408,-0.2361,-0.2382,-0.2363,-0.2363,-0.2352,-0.2296,-0.2296,-0.2296,-0.2296,-0.2296,-0.2296,-0.2295,-0.2285,-0.2294,-0.2258,-0.2202,-0.2189,-0.2215,-0.2215,-0.2202,-0.2185,-0.2185,-0.2204,-0.2193,-0.2213,-0.2192,-0.2203,-0.2213,-0.2195,-0.2205,-0.2185,-0.2187,-0.2187,-0.2191,-0.2185,-0.2213,-0.2192,-0.2189,-0.2189,-0.2189,-0.2189,-0.2189,-0.2189,-0.2189,-0.2181,-0.216,-0.2157,-0.2157,-0.2157,-0.2157,-0.2157,-0.2157,-0.2167,-0.2182,-0.2168,-0.2178,-0.2199,-0.2194,-0.2195,-0.1857,-0.11,-0.1065,-0.0715,0.0036,0.0434,0.0617,0.0619,0.102,0.1603,-0.2125,-0.215,-0.221,-0.221,-0.2253,-0.2296,-0.2296,-0.2296,-0.2299,-0.2345,-0.2331,-0.2296,-0.2344,-0.2371,-0.2454,-0.2585,-0.2626,-0.262,-0.2617,-0.2646,-0.2616,-0.2527,-0.2585,-0.2579,0.0,0.0,0.0,-0.2614,-0.2601,-0.2623,-0.2634,-0.2653,-0.2607,-0.2619,-0.26,-0.2581,-0.26,-0.254,-0.2525,-0.2514,-0.2484,-0.2459,-0.2439,-0.2428,-0.2406,-0.2415,-0.2415,-0.2361,-0.2296,-0.2296,-0.2296,-0.2296,-0.2296,-0.2296,-0.2296,-0.2296,-0.2285,-0.2301,-0.2237,-0.222,-0.221,-0.221,-0.2197,-0.2217,-0.2217,-0.2203,-0.2191,-0.2211,-0.2223,-0.2234,-0.2209,-0.2225,-0.2236,-0.2216,-0.2218,-0.2218,-0.2187,-0.1869,-0.1587,-0.1608,-0.1229,-0.0956,-0.0956,-0.0956,-0.0956,-0.0956,-0.0956,-0.1261,-0.2104,-0.2204,-0.2204,-0.2204,-0.2195,-0.2193,-0.2204,-0.2204,-0.2184,-0.2214,-0.2217,-0.202,-0.1624,-0.1589,-0.1065,0.0072,0.0108,0.047,0.1202,0.1603,0.1826,0.187,0.2264,0.2856,-0.2054,-0.2028,-0.2036,-0.2036,-0.2076,-0.2114,-0.2111,-0.2184,-0.2213,-0.2223,-0.2253,-0.2297,-0.2289,0.0,-0.2454,-0.2585,-0.2675,-0.2694,-0.2697,-0.2698,-0.2687,0.0,0.0,0.0,0.0,0.0,0.0,-0.2604,0.0,-0.2618,-0.2691,-0.2692,-0.2679,-0.2609,-0.2606,-0.262,-0.2604,-0.2602,-0.2585,-0.2517,-0.2485,-0.251,-0.2509,-0.2442,-0.2412,-0.242,-0.2419,-0.2363,-0.2299,-0.2297,-0.2296,-0.2296,-0.2296,-0.2296,-0.2296,-0.2296,-0.2296,-0.2292,-0.2303,-0.2274,-0.2214,-0.2214,-0.2214,-0.2213,-0.2213,-0.2212,-0.221,-0.2212,-0.2268,-0.2285,-0.2222,-0.2256,-0.2283,-0.2228,-0.22,-0.2178,-0.2113,-0.1228,-0.0421,-0.042,0.0525,0.1296,0.1296,0.1296,0.1296,0.1296,0.1297,0.0489,-0.1723,-0.203,-0.203,-0.2098,-0.2074,-0.2035,-0.2096,-0.2064,-0.2008,-0.2035,-0.2036,-0.1553,-0.0465,-0.0429,0.0108,0.1275,0.1275,0.1311,0.1384,0.2475,0.3042,0.3116,0.4214,0.473,0.0101,0.0346,0.032,0.032,0.0324,0.0291,0.0252,-0.0395,-0.0966,-0.1024,-0.1656,-0.223,-0.2296,-0.2368,0.0,-0.2585,-0.2675,0.0,-0.2754,-0.278,0.0,-0.2679,0.0,-0.271,-0.2601,-0.2656,0.0,0.0,-0.2601,-0.2618,-0.2691,-0.2692,-0.2688,-0.2682,-0.2617,-0.2598,-0.2585,-0.2582,-0.2596,-0.2588,-0.2518,-0.2503,-0.2503,-0.2495,-0.2474,-0.2482,-0.2421,-0.2394,-0.2365,-0.2305,-0.2296,-0.2296,-0.2296,-0.2296,-0.2296,-0.2296,-0.2296,-0.2295,-0.2288,-0.2281,-0.2275,-0.2275,-0.226,-0.2279,-0.2279,-0.2228,-0.2216,-0.2273,-0.2285,-0.2294,-0.2271,-0.2285,-0.2292,-0.2277,-0.1629,-0.1012,-0.0963,-0.0036,0.078,0.0842,0.1086,0.1296,0.1296,0.1296,0.1296,0.1296,0.1272,0.1026,0.0489,0.0418,0.007,-0.0837,-0.0139,0.0035,-0.0871,-0.0105,0.0386,0.032,0.032,0.0465,0.0761,0.0761,0.1307,0.2439,0.2475,0.2914,0.3826,0.4117,0.4292,0.4344,0.4582,0.473,0.1061,0.1224,0.1215,0.1215,0.1186,0.1153,0.111,0.0604,0.0141,0.0104,-0.0349,0.0,-0.1441,-0.1131,0.0,0.0,0.0,0.0,-0.2731,-0.2821,-0.2831,0.0,-0.2792,0.0,-0.2652,-0.266,-0.2699,0.0,-0.2625,-0.2675,-0.2691,-0.2692,-0.2692,-0.2692,-0.2676,-0.262,-0.2606,-0.2589,-0.26,-0.2599,-0.2529,-0.2514,-0.2514,-0.2514,-0.2497,-0.2506,0.0,-0.2427,-0.2395,-0.2365,-0.2353,-0.2352,-0.2301,-0.2296,-0.2296,-0.2296,-0.2296,-0.2296,-0.2296,-0.2296,-0.2296,-0.2296,-0.2285,-0.2309,-0.2309,-0.2261,-0.2252,-0.2304,-0.1949,-0.1554,-0.1564,-0.1166,-0.0765,-0.0765,-0.0291,0.0218,0.0253,0.1153,0.212,0.2676,0.2779,0.2779,0.2779,0.2779,0.2779,0.2779,0.2762,0.2767,0.2783,0.1879,0.0989,0.0318,0.0879,0.1018,0.0318,0.0883,0.1244,0.1188,0.119,0.141,0.1929,0.1931,0.2513,0.3678,0.3678,0.4007,0.4701,0.4701,0.4732,0.4792,0.4756,0.4768,0.1679,0.1703,0.1647,0.1647,0.161,0.1571,0.1568,0.1375,0.1252,0.1236,0.0,0.0801,-0.0207,0.0395,0.03,-0.1929,0.0,-0.1485,-0.2655,-0.2841,-0.2864,-0.2838,-0.2787,-0.2764,-0.2712,-0.27,-0.2684,-0.2701,-0.2698,-0.2697,-0.2692,-0.2692,-0.2692,-0.2692,-0.2697,-0.2684,-0.2611,-0.2598,-0.261,-0.2604,-0.2534,-0.2518,-0.2514,-0.2514,-0.25,-0.2513,-0.2509,-0.2454,-0.2427,-0.2397,-0.2382,-0.2412,-0.2349,-0.23,-0.2296,-0.2296,-0.2296,-0.2296,-0.2114,-0.2078,-0.2114,-0.226,-0.2296,-0.2296,-0.2296,-0.2296,-0.226,-0.2114,-0.1348,-0.0546,-0.0401,0.0401,0.1202,0.1202,0.1311,0.1421,0.1421,0.2331,0.3459,0.448,0.4701,0.4701,0.4701,0.4701,0.4701,0.4701,0.4701,0.4701,0.4701,0.2922,0.1611,0.1432,0.1631,0.1662,0.1432,0.1576,0.1656,0.1675,0.1676,0.2113,0.3094,0.313,0.3641,0.4665,0.4701,0.4701,0.4701,0.4701,0.4737,0.4803,0.4795,0.4823,0.376,0.4061,0.4102,0.4102,0.4033,0.399,0.3911,0.3165,0.0,0.0,0.1671,0.0963,0.0755,0.0072,-0.0603,-0.1104,0.0,0.0,0.0,0.0,-0.2917,0.0,0.0,0.0,0.0,0.0,0.0,0.0,-0.2687,-0.2718,-0.2694,-0.2692,-0.2692,-0.2692,-0.2717,-0.2673,-0.2684,-0.2607,-0.2619,-0.2594,-0.2606,-0.2538,-0.2514,-0.2514,-0.2511,-0.2504,-0.2518,0.0,-0.2498,-0.2428,-0.2401,-0.2415,-0.2372,-0.2354,-0.2296,-0.2296,-0.2296,-0.215,-0.1239,-0.0911,-0.1056,-0.2005,-0.2296,-0.2296,-0.2296,-0.2296,-0.2114,-0.1166,-0.0765,-0.0364,0.0619,0.1056,0.1202,0.1202,0.1931,0.2621,0.2621,0.3532,0.4444,0.4665,0.4701,0.4701,0.4701,0.4701,0.4701,0.4701,0.4701,0.4701,0.4701,0.4327,0.3703,0.2722,0.3514,0.3695,0.2684,0.3522,0.4107,0.408,0.408,0.4189,0.4371,0.4371,0.448,0.4701,0.4701,0.4701,0.4701,0.4701,0.4722,0.4791,0.4817,0.4883,0.4489,0.4679,0.4701,0.4701,0.463,0.4553,0.4526,0.0,0.0,0.0,0.3129,0.2603,0.2006,0.1987,0.0,0.0,0.0,0.0,0.0,0.0,0.0,0.0,0.0,0.0,0.0,0.0,-0.2735,-0.2762,-0.2704,-0.2689,-0.2717,-0.2716,-0.2716,-0.2716,-0.2714,-0.2707,-0.2692,-0.2621,-0.259,-0.2601,-0.2613,-0.2584,-0.2514,-0.2514,-0.2514,-0.2514,-0.2499,-0.2492,-0.2452,-0.1768,-0.148,-0.1462,-0.0745,-0.0479,-0.0474,-0.0474,-0.0474,-0.0401,0.0146,0.0328,0.0255,-0.0291,-0.0474,-0.0474,-0.0474,-0.0474,-0.0364,0.0182,0.0765,0.1347,0.1931,0.255,0.3025,0.3025,0.3423,0.3823,0.3823,0.4299,0.4701,0.4701,0.4701,0.4701,0.4701,0.4701,0.4701,0.4701,0.4701,0.4701,0.4701,0.4701,0.448,0.3896,0.4371,0.448,0.3896,0.4371,0.4701,0.4701,0.4701,0.4701,0.4701,0.4701,0.4701,0.4701,0.4701,0.4715,0.4748,0.4748,0.4758,0.4807,0.4848,0.4897,0.4668,0.4701,0.4701,0.4701,0.4608,0.4552,0.4692,0.4495,0.0,0.0,0.4448,0.4095,0.3215,0.0,0.3641,0.0,0.0,0.0,0.0,0.0,0.0,0.0,0.0,0.0,0.0,0.0,0.0,-0.2489,-0.2462,-0.2485,-0.2687,-0.2697,-0.2699,-0.2685,-0.2712,-0.2699,-0.2692,-0.2669,-0.2597,-0.2601,-0.262,-0.2549,-0.2514,-0.2514,-0.2435,-0.2357,-0.2475,-0.22,-0.1647,-0.0738,-0.0115,0.0379,0.1386,0.1775,0.1718,0.1713,0.1675,0.1711,0.1966,0.2039,0.2111,0.2368,0.1894,0.1202,0.1202,0.1202,0.1239,0.1494,0.2221,0.2948,0.3205,0.4007,0.4701,0.4701,0.4701,0.4701,0.4701,0.4701,0.4701,0.4701,0.4701,0.4701,0.4701,0.4701,0.4701,0.4701,0.4701,0.4701,0.4701,0.4701,0.4774,0.492,0.481,0.4701,0.4701,0.4701,0.4701,0.4701,0.4701,0.4701,0.4701,0.4701,0.4701,0.4701,0.4712,0.4819,0.5052,0.5063,0.5104,0.5091,0.5334,0.5367,0.4668,0.4701,0.4701,0.4701,0.4608,0.4692,0.5356,0.0,0.0,0.5144,0.4781,0.4296,0.4245,0.3512,0.2833,0.0,0.0,0.0,0.0,0.0,0.0,0.0,0.0,0.0,0.0,0.0,-0.1987,-0.1544,-0.1529,-0.185,-0.2657,-0.2748,-0.2754,-0.2698,-0.2721,-0.272,-0.2692,-0.269,-0.266,-0.2601,-0.26,-0.2568,-0.2514,-0.2514,-0.2318,-0.1964,-0.2357,-0.1217,0.0,0.0587,0.163,0.3373,0.3406,0.3439,0.3469,0.332,0.3304,0.3449,0.447,0.4836,0.5017,0.6112,0.4075,0.1202,0.1202,0.1202,0.1421,0.2439,0.2803,0.3167,0.4262,0.4629,0.4701,0.4701,0.4701,0.4701,0.4701,0.4701,0.4701,0.4701,0.4701,0.4701,0.4701,0.4701,0.4701,0.4701,0.4701,0.4701,0.4701,0.4701,0.4956,0.561,0.5098,0.4701,0.4701,0.4701,0.4701,0.4701,0.4701,0.4701,0.4701,0.4701,0.4701,0.4701,0.4756,0.5157,0.5904,0.5968,0.6001,0.6072,0.6811,0.6814,0.4872,0.5358,0.5974,0.5498,0.5606,0.5915,0.6194,0.0,0.5647,0.5949,0.5781,0.5605,0.5713,0.5376,0.5192,0.0,0.4477,0.355,0.302,0.0,0.0,0.0,0.0,0.0,0.0,0.0,-0.1598,-0.1402,-0.1403,-0.1517,-0.1853,-0.1921,-0.193,-0.1912,-0.1865,-0.1859,-0.185,-0.185,-0.1831,-0.183,-0.183,-0.1808,-0.1768,-0.1781,-0.1701,-0.1493,-0.0632,0.0276,0.0,0.2935,0.4078,0.4875,0.5575,0.5805,0.5806,0.566,0.5597,0.5673,0.6112,0.6293,0.6366,0.6841,0.5967,0.4696,0.4696,0.4696,0.4805,0.5241,0.5386,0.5495,0.597,0.6083,0.6083,0.6083,0.6083,0.6083,0.6083,0.6083,0.6083,0.6083,0.6083,0.6083,0.6083,0.6083,0.6083,0.6083,0.6083,0.6083,0.6083,0.6083,0.6192,0.6482,0.5825,0.5353,0.5353,0.5789,0.5865,0.5392,0.5825,0.6137,0.622,0.622,0.6209,0.6255,0.6287,0.6477,0.6831,0.6861,0.6922,0.7003,0.7317,0.7294,0.5408,0.5947,0.6555,0.6224,0.6425,0.6752,0.0,0.6714,0.6451,0.6686,0.6573,0.6483,0.6602,0.6696,0.6835,0.0,0.6493,0.5835,0.5528,0.3797,0.0,0.0,0.0,-0.061,0.0,-0.1067,-0.106,-0.1175,-0.1048,-0.0953,-0.0931,-0.0977,-0.1107,-0.1362,-0.1309,-0.1304,-0.1304,-0.13,-0.1285,-0.1302,-0.1297,-0.1282,-0.1296,-0.1308,-0.095,-0.0314,0.0751,0.1894,0.0,0.5165,0.6308,0.6907,0.7743,0.799,0.7928,0.7792,0.7702,0.7675,0.7675,0.7675,0.7675,0.7675,0.7675,0.7675,0.7675,0.7353,0.699,0.699,0.699,0.699,0.699,0.699,0.699,0.699,0.699,0.699,0.699,0.699,0.699,0.699,0.699,0.699,0.699,0.699,0.699,0.699,0.699,0.699,0.699,0.699,0.7099,0.7312,0.6805,0.6406,0.6192,0.672,0.6808,0.6261,0.6759,0.7129,0.7228,0.7232,0.7261,0.7289,0.7318,0.7477,0.7774,0.7804,0.7851,0.7877,0.8111,0.8228,0.6366,0.6306,0.6007,0.6809,0.6851,0.6891,0.0,0.706,0.6619,0.735,0.7024,0.6607,0.6696,0.6825,0.6949,0.7096,0.7197,0.6825,0.556,0.5619,0.0,0.0,0.0,0.1245,-0.0521,-0.0304,-0.0217,-0.0652,-0.0258,0.0,0.0,0.0,-0.0421,-0.1262,-0.1304,-0.1304,-0.1304,-0.129,-0.1317,-0.1302,-0.1287,-0.1311,-0.1296,-0.1296,-0.0157,0.1841,0.141,0.3562,0.0,0.7041,0.8098,0.9925,0.9807,0.9731,0.9655,0.953,0.9405,0.9266,0.9266,0.9266,0.9266,0.9266,0.9266,0.9266,0.9266,0.8218,0.699,0.699,0.699,0.699,0.699,0.699,0.699,0.699,0.699,0.699,0.699,0.699,0.699,0.699,0.699,0.699,0.699,0.699,0.699,0.699,0.699,0.699,0.699,0.699,0.7276,0.7996,0.8068,0.7779,0.7063,0.7105,0.7191,0.7191,0.7236,0.7289,0.7289,0.7289,0.7289,0.7289,0.738,0.7812,0.8698,0.8765,0.8778,0.8817,0.9591,0.998,0.6759,0.7257,0.7861,0.7614,0.7831,0.8207,0.8412,0.8258,0.81,0.8337,0.826,0.8199,0.8313,0.8363,0.8503,0.8873,0.8987,0.0,0.0,0.0,0.0,0.0,0.3934,0.1875,0.0,0.0,-0.0043,-0.0215,-0.0086,0.0,0.0,0.0,-0.0125,-0.0416,-0.0416,-0.0414,-0.0411,-0.041,-0.0407,-0.0402,0.076,0.1309,0.1333,0.2489,0.3396,0.4075,0.5091,0.6269,0.7591,0.8608,0.9392,0.997,0.9845,0.9769,0.9703,0.9665,0.9481,0.9318,0.94,0.9372,0.9302,0.9302,0.9302,0.9302,0.9302,0.8941,0.8579,0.8579,0.8579,0.8579,0.8579,0.8579,0.8579,0.8579,0.8579,0.8579,0.8579,0.8579,0.8579,0.8579,0.8579,0.8579,0.8579,0.8579,0.8579,0.8579,0.8579,0.8579,0.8579,0.8579,0.8652,0.8904,0.8904,0.8615,0.782,0.8387,0.8524,0.8003,0.8589,0.8945,0.9015,0.902,0.9091,0.9285,0.9211,0.9343,0.9737,0.9656,0.963,0.963,0.9864,0.998,0.0,0.7927,0.8427,0.8253,0.8512,0.8803,0.8803,0.8803,0.8803,0.8803,0.8905,0.9011,0.9087,0.9136,0.9271,0.965,0.9742,0.0,0.0,0.0,0.0,0.8202,0.0,0.0,0.0,0.2053,0.1754,0.1063,0.102,0.0721,0.0042,0.0,0.0,0.0,0.0,0.0,0.0,0.0,0.0,0.004,0.1708,0.2487,0.2548,0.4224,0.5364,0.5994,0.7063,0.7841,0.0,0.9638,1.0063,0.998,0.9948,0.9878,0.9726,0.9725,0.9578,0.9378,0.941,0.9367,0.9302,0.9302,0.9302,0.9302,0.9302,0.9302,0.9302,0.9302,0.9302,0.9302,0.9302,0.9302,0.9302,0.9302,0.9302,0.9302,0.9302,0.9302,0.9302,0.9302,0.9302,0.9302,0.9302,0.9302,0.9302,0.9302,0.9302,0.9302,0.9302,0.9302,0.9302,0.9302,0.9302,0.9106,0.8671,0.9224,0.9366,0.8847,0.9446,0.9835,0.9867,0.991,1.0047,1.0199,1.0172,1.0172,1.0204,1.0079,0.998,0.998,0.998,0.998,0.0,0.8285,0.802,0.8719,0.884,0.8792,0.8792,0.8798,0.0,0.8814,0.897,0.9103,0.9119,0.9237,0.9351,0.9492,0.9654,0.0,0.0,1.0356,0.0,0.0,0.6697,0.0,0.5421,0.5421,0.4658,0.2856,0.2688,0.1975,0.0252,0.0083,0.0123,0.0366,0.0244,0.0122,0.0,0.0241,0.0279,0.02,0.201,0.2859,0.2899,0.4581,0.6186,0.0,0.7677,0.8579,0.9991,1.015,1.0134,0.9991,1.0144,1.0047,0.9786,0.972,0.9638,0.947,0.9356,0.9313,0.9307,0.9313,0.9313,0.9307,0.9313,0.9313,0.9302,0.9302,0.9302,0.9302,0.9302,0.9302,0.9302,0.9302,0.9302,0.9302,0.9302,0.9302,0.9302,0.9302,0.9302,0.9302,0.9302,0.9302,0.9302,0.9302,0.9302,0.9307,0.9313,0.9318,0.9318,0.9329,0.9323,0.9362,0.9476,0.9627,0.9703,0.972,0.9889,0.9975,0.998,1.0128,1.0193,1.0204,1.0318,1.0313,1.0188,1.0074,0.998,0.998,0.998,0.998,0.7579,0.0,0.8469,0.8637,0.8649,0.8633,0.0,0.8738,0.883,0.8854,0.0,0.9152,0.9372,0.9351,0.9405,0.9666,0.0,0.0,1.0264,0.0,0.0,0.8408,0.7835,0.7,0.5524,0.5404,0.4658,0.2856,0.2688,0.247,0.1951,0.0698,0.1178,0.3727,0.2581,0.1306,0.0,0.2563,0.3188,0.1929,0.4899,0.6339,0.6378,0.8063,0.9041,0.9436,0.9528,0.9714,0.9991,1.015,1.0134,0.9986,1.0013,0.9932,0.9796,0.9769,0.9666,0.9481,0.9454,0.9383,0.9318,0.9416,0.9378,0.9318,0.9416,0.9378,0.9302,0.9302,0.9302,0.9302,0.9302,0.9302,0.9302,0.9302,0.9302,0.9302,0.9302,0.9302,0.9302,0.9302,0.9302,0.9302,0.9302,0.9302,0.9302,0.9302,0.9302,0.934,0.9432,0.9443,0.9481,0.9611,0.9497,0.9454,0.9487,0.9514,0.9606,0.9748,0.9813,0.9883,0.9975,1.0047,1.0106,1.0204,1.0231,1.0188,1.0063,1.0036,0.998,0.998,0.998,0.998,0.7316,0.8094,0.8753,0.8753,0.8753,0.8753,0.8753,0.0,0.0,0.0,0.0,0.0,0.0,0.0,0.0,0.0,0.9899,0.0,0.0,0.0,1.0472,0.9545,0.9427,0.9,0.0,0.7843,0.7087,0.5329,0.5138,0.4692,0.3799,0.2806,0.3133,0.4947,0.4886,0.3994,0.2314,0.4114,0.4544,0.3681,0.6261,0.7513,0.7556,0.9236,1.0013,1.0106,1.0177,1.0199,1.0193,1.0259,1.0215,1.0106,1.0106,1.003,0.9867,0.9802,0.9682,0.9589,0.9443,0.9356,0.9313,0.9383,0.9356,0.9318,0.9383,0.9356,0.9302,0.9302,0.9302,0.9302,0.9302,0.9302,0.9302,0.9302,0.9302,0.9302,0.9302,0.9302,0.9302,0.9302,0.9302,0.9302,0.9302,0.9302,0.9302,0.9302,0.9302,0.9329,0.9394,0.9454,0.9514,0.9616,0.9525,0.953,0.9639,0.9546,0.9563,0.9748,0.9916,0.997,0.998,1.0128,1.0221,1.0286,1.0231,1.0172,1.0106,1.0047,0.998,0.998,0.998,0.998,0.7368,0.8221,0.8957,0.8903,0.8919,0.8941,0.8919,0.0,0.0,0.0,0.0,0.0,0.0,0.9443,0.0,0.0,0.0,0.0,1.0636,1.0679,1.0712,1.0836,1.0862,0.0,1.0674,1.0652,0.9931,0.8177,0.7938,0.7192,0.5622,0.5198,0.522,0.5765,0.6887,0.6928,0.5756,0.5756,0.5639,0.5405,0.7084,0.7868,0.7946,0.9373,1.0106,1.0204,0.0,0.0,1.0389,1.0405,1.0329,1.0204,1.0204,1.0128,0.9992,0.9758,0.9709,0.9671,0.9389,0.9302,0.9307,0.9329,0.9318,0.9307,0.9329,0.9318,0.9302,0.9302,0.9302,0.9302,0.9302,0.9302,0.9302,0.9302,0.9302,0.9302,0.9302,0.9302,0.9302,0.9302,0.9302,0.9302,0.9302,0.9302,0.9302,0.9302,0.9302,0.9318,0.9356,0.9449,0.953,0.9563,0.9552,0.9622,0.978,0.9671,0.9606,0.9725,0.9981,1.0106,0.9986,1.0221,1.0329,1.0329,1.0226,1.0177,1.0177,1.0068,0.998,0.998,0.998,0.998,0.7592,0.8428,0.9177,0.8872,0.8954,0.9044,0.8941,0.0,0.0,0.0,0.0,0.0,0.0,0.9665,0.972,0.0,0.0,1.0427,0.0,0.0,1.0628,1.0712,0.0,1.0498,1.0615,1.0498,0.9703,0.7909,0.7734,0.7569,0.7173,0.5792,0.631,0.9149,0.8111,0.8063,0.9236,0.9236,0.853,0.7123,0.8803,0.963,0.963,1.001,1.0182,1.0215,0.0,1.05,1.0394,1.0528,1.04,1.0204,1.0204,1.0128,0.9992,0.9758,0.9709,0.9671,0.9389,0.9302,0.9318,0.9427,0.9389,0.9323,0.9427,0.9389,0.9302,0.9302,0.9302,0.9302,0.9302,0.9302,0.9302,0.9302,0.9302,0.9302,0.9302,0.9302,0.9302,0.9302,0.9302,0.9302,0.9302,0.9302,0.9302,0.9302,0.9302,0.9378,0.9622,0.9665,0.9715,0.9916,0.9807,0.9758,0.9796,0.9861,0.99,0.978,0.9823,0.9894,0.998,1.0057,1.0074,1.0074,1.0057,1.0047,1.0047,0.9991,0.998,0.998,0.998,0.998,0.8045,0.8695,0.9171,0.9008,0.9198,0.941,0.9351,0.0,0.0,0.0,0.0,0.0,0.0,0.0,0.996,1.0259,0.0,1.0555,1.0623,1.0577,1.0487,0.0,0.0,1.0405,1.05,1.0457,1.0061,0.9209,0.9071,0.9018,0.8966,0.8159,0.8425,0.9942,0.9236,0.9236,0.998,0.998,0.963,0.8847,0.9693,1.0085,1.0025,1.0215,1.0302,1.0313,0.0,1.0604,1.0574,1.0604,1.0495,1.0297,1.0226,1.0128,0.9992,0.9758,0.9665,0.9546,0.9367,0.9302,0.9313,0.9372,0.9351,0.9313,0.9372,0.9351,0.9302,0.9302,0.9302,0.9302,0.9302,0.9302,0.9302,0.9302,0.9302,0.9302,0.9302,0.9302,0.9302,0.9302,0.9302,0.9302,0.9302,0.9302,0.9302,0.9302,0.9302,0.9367,0.9583,0.9682,0.9802,0.9872,0.9948,0.997,0.9905,0.9948,1.0079,1.0215,1.0106,1.009,1.0215,1.0155,1.009,0.998,0.998,0.998,0.998,0.998,1.0052,1.0117,1.0013,1.0057,0.8488,0.8856,0.906,0.9092,0.0,0.9643,0.9688,0.9519,0.0,0.0,0.0,0.0,0.0,0.99,0.0,1.0506,1.0555,1.0566,1.0593,1.0473,1.0356,1.0384,1.0335,1.0313,1.034,1.0318,1.0302,1.0302,1.0215,1.0161,1.0161,1.0047,0.9953,0.998,0.9953,0.9953,0.998,0.998,0.998,0.998,1.0144,1.0155,1.0029,1.0286,1.04,1.0433,1.056,1.0648,1.0688,1.0637,1.0511,1.0335,1.0242,1.0095,0.9916,0.9774,0.9611,0.9432,0.9334,0.9302,0.9302,0.9302,0.9302,0.9302,0.9302,0.9302,0.9302,0.9302,0.9302,0.9302,0.9302,0.9302,0.9302,0.9302,0.9302,0.9302,0.9302,0.9302,0.9302,0.9302,0.9302,0.9302,0.9302,0.9302,0.9302,0.9302,0.9329,0.9389,0.9514,0.9709,0.9823,0.9878,1.0063,1.0144,1.0106,1.0079,1.0204,1.0577,1.0335,1.0248,1.034,1.0226,1.0117,0.998,0.998,0.998,0.998,0.998,1.0068,1.0161,1.0063,1.0085,0.8725,0.8856,0.8957,0.9071,0.9195,0.0,0.971,0.9644,0.0,0.9726,0.0,0.0,0.0,1.0025,1.0237,1.0378,1.04,1.0478,1.0582,0.0,1.0259,1.0373,1.0182,1.009,1.0204,1.0112,1.0047,1.0047,1.0041,0.9991,0.9991,0.9878,0.9861,0.9975,0.9872,0.9867,0.998,0.998,0.998,0.998,1.0144,1.0199,1.0193,1.0324,1.0484,1.0588,1.0593,1.0604,1.0609,1.0599,1.0462,1.0215,1.0204,0.9998,0.9731,0.9714,0.9519,0.9313,0.9307,0.9302,0.9302,0.9302,0.9302,0.9302,0.9302,0.9302,0.9302,0.9302,0.9302,0.9302,0.9302,0.9302,0.9302,0.9302,0.9302,0.9302,0.9302,0.9302,0.9302,0.9302,0.9302,0.9302,0.9302,0.9302,0.9302,0.9302,0.94,0.9519,0.9676,0.9764,0.9888,1.015,1.009,1.0123,1.034,1.0253,1.0297,1.0582,1.0335,1.021,1.0215,1.0101,1.003,0.998,0.998,0.998,0.998,0.998,0.9986,0.9991,0.9986,1.0085,0.8677,0.8856,0.9044,0.9087,0.9184,0.0,0.0,0.9791,0.9867,1.003,1.0063,0.0,0.0,0.0,1.0221,1.0264,1.0335,1.0373,1.034,1.0259,1.0193,1.0161,1.0074,1.0041,1.0085,1.0047,0.998,0.998,0.991,0.9867,0.9867,0.9796,0.9753,0.9802,0.9758,0.9791,0.9867,0.9867,0.9905,0.998,1.0144,1.0204,1.021,1.0329,1.0411,1.0489,1.0489,1.0489,1.0489,1.0489,1.0351,1.0199,1.0117,0.996,0.9764,0.9731,0.96,0.9405,0.9329,0.9302,0.9302,0.9302,0.9302,0.9302,0.9302,0.9302,0.9302,0.9302,0.9302,0.9302,0.9302,0.9302,0.9302,0.9302,0.9302,0.9302,0.9302,0.9302,0.9302,0.9302,0.9367,0.9394,0.9318,0.9367,0.9389,0.9313,0.941,0.953,0.9693,0.9835,0.9948,1.0079,1.0047,1.0123,1.0367,1.0346,1.0356,1.0484,1.0367,1.0286,1.0204,1.0161,1.0095,0.998,0.998,0.998,0.998,0.998,1.0101,1.0242,1.009,1.0166,0.8667,0.8829,0.9035,0.9082,0.0,0.0,0.971,0.9867,0.9975,1.0172,1.0139,0.0,0.0,0.0,0.0,0.0,1.0215,1.0253,1.021,1.0172,1.0112,0.9991,0.998,0.998,0.998,0.998,0.998,0.998,0.9867,0.9796,0.9796,0.9693,0.9665,0.9703,0.9671,0.9682,0.9796,0.9796,0.984,0.9926,1.0085,1.0166,1.0204,1.0291,1.0351,1.0384,1.0346,1.0329,1.0329,1.0329,1.0259,1.0134,0.997,0.985,0.9769,0.9655,0.9536,0.9416,0.9334,0.9302,0.9302,0.9302,0.9302,0.9302,0.9302,0.9302,0.9302,0.9302,0.9302,0.9302,0.9302,0.9302,0.9302,0.9302,0.9302,0.9302,0.9302,0.9334,0.9351,0.9313,0.9432,0.9492,0.9334,0.9405,0.9459,0.9372,0.9432,0.9546,0.9704,0.9862,0.9937,0.9975,1.0123,1.0242,1.0373,1.0384,1.0384,1.0384,1.0351,1.0291,1.0204,1.0166,1.0106,0.998,0.998,0.998,0.998,0.998,1.0106,1.0264,1.0101,1.0172,0.877,0.8803,0.8863,0.0,0.0,0.0,0.9693,0.9807,0.9878,1.0155,0.0,0.9802,0.9796,0.0,0.0,0.9959,0.998,1.0063,1.0182,1.0095,0.998,0.998,0.998,0.998,0.998,0.998,0.998,0.998,0.9867,0.9796,0.9796,0.9612,0.9578,0.9698,0.9546,0.9595,0.9791,0.9796,0.9796,0.9796,0.9921,1.0085,1.0204,1.0204,1.0269,1.0378,1.0253,1.0204,1.0204,1.0204,1.0128,0.997,0.9845,0.9769,0.9693,0.953,0.941,0.9302,0.9302,0.9302,0.9302,0.9302,0.9302,0.9302,0.9302,0.9302,0.9302,0.9302,0.9302,0.9302,0.9302,0.9302,0.9302,0.9302,0.9302,0.9302,0.9302,0.94,0.9449,0.9329,0.9503,0.9627,0.9345,0.9405,0.9487,0.9487,0.9487,0.9574,0.9769,0.9796,0.9845,0.9964,1.0335,1.0544,1.0394,1.0384,1.0384,1.0384,1.0269,1.0204,1.0204,1.0085,0.998,0.998,0.998,0.998,0.998,0.998,0.998,0.998,0.998,1.0085,0.8688,0.8769,0.0,0.906,0.0,0.0,0.0,0.9867,0.0,0.0,0.0,0.9899,0.9813,0.0,0.0,0.9861,0.9926,0.9991,1.0068,1.0041,0.998,0.998,0.998,0.998,0.998,0.9905,0.9856,0.9856,0.9704,0.959,0.959,0.9443,0.9372,0.941,0.9378,0.9432,0.959,0.959,0.9633,0.972,0.9758,0.9878,1.0079,1.0166,1.0221,1.0253,1.0221,1.0155,1.0074,1.0074,1.0052,0.997,0.9845,0.9769,0.9693,0.953,0.941,0.9302,0.9302,0.9302,0.9302,0.9302,0.9302,0.9302,0.9302,0.9302,0.9302,0.9302,0.9302,0.9302,0.9302,0.9302,0.9302,0.9302,0.9302,0.9302,0.9302,0.9334,0.9345,0.9313,0.9432,0.9492,0.9329,0.9405,0.9459,0.9372,0.9432,0.9574,0.9769,0.9769,0.9764,0.984,0.9948,1.0068,1.0123,1.021,1.0259,1.0259,1.0221,1.0166,1.0079,1.0002,0.998,0.998,0.998,0.998,0.998,0.998,1.0063,1.0144,1.0024,1.0134,0.884,0.8914,0.0,0.9314,0.9487,0.9622,0.9818,0.0,0.0,0.0,0.0,0.9899,0.9878,0.9894,0.0,0.9878,0.9932,0.998,0.998,0.998,0.998,0.998,0.998,0.9964,0.9915,0.9845,0.978,0.9775,0.9595,0.9487,0.9487,0.9372,0.9302,0.9302,0.9302,0.9362,0.9487,0.9487,0.9525,0.9633,0.9682,0.972,0.9813,1.003,1.0155,1.0204,1.0204,1.0134,0.998,0.998,0.9953,0.9899,0.9818,0.9699,0.9622,0.9459,0.9367,0.9302,0.9302,0.9302,0.9302,0.9302,0.9302,0.9302,0.9302,0.9302,0.9302,0.9302,0.9302,0.9302,0.9302,0.9302,0.9302,0.9302,0.9302,0.9302,0.9302,0.934,0.9362,0.9313,0.9443,0.9503,0.9334,0.9405,0.9459,0.9389,0.9481,0.9612,0.9753,0.9791,0.9835,0.9861,0.9959,1.0063,1.009,1.0161,1.0204,1.0204,1.0161,1.0095,0.9986,0.998,0.998,0.998,0.998,0.998,0.998,0.998,1.0057,1.0128,1.0052,1.0101,0.9155,0.0,0.0,0.9666,0.9764,0.0,0.996,0.0,0.0,0.0,0.0,0.9829,0.997,0.9856,0.9823,0.9943,0.9964,0.997,0.998,0.997,0.9964,0.9964,0.9992,0.9943,0.9796,0.9775,0.9764,0.9698,0.9578,0.947,0.947,0.9362,0.9302,0.9302,0.9302,0.9356,0.947,0.947,0.947,0.947,0.9622,0.9622,0.9497,0.9845,1.0029,1.0188,1.0188,1.0117,0.9964,0.9964,0.9894,0.9775,0.9699,0.9622,0.947,0.9351,0.9302,0.9302,0.9302,0.9302,0.9302,0.9302,0.9302,0.9302,0.9302,0.9302,0.9302,0.9302,0.9302,0.9302,0.9302,0.9302,0.9302,0.9302,0.9302,0.9302,0.9302,0.9389,0.9438,0.9323,0.9487,0.9605,0.934,0.9394,0.947,0.947,0.9605,0.9682,0.9703,0.9845,0.9976,0.9987,1.0199,1.0286,1.0166,1.0172,1.0188,1.0188,1.0085,0.998,0.998,0.998,0.998,0.998,0.998,0.998,0.998,0.998,1.0025,1.0036,1.0025,0.9991,0.8962,0.9044,0.0,0.0,0.9829,0.9932,0.985,0.0,0.0,0.0,0.0,0.978,0.9758,0.972,0.9742,0.9818,0.984,0.9872,0.997,0.9899,0.984,0.984,0.9796,0.9737,0.9709,0.9617,0.9552,0.953,0.941,0.9345,0.9345,0.9318,0.9302,0.9302,0.9302,0.9318,0.9345,0.9345,0.9345,0.9345,0.9372,0.9421,0.9497,0.9721,0.9905,1.0018,1.0018,0.9953,0.984,0.984,0.9807,0.9693,0.9574,0.9508,0.947,0.9351,0.9302,0.9302,0.9302,0.9302,0.9302,0.9302,0.9302,0.9302,0.9302,0.9302,0.9302,0.9302,0.9302,0.9302,0.9302,0.9302,0.9302,0.9302,0.9302,0.9302,0.9302,0.9323,0.9334,0.9307,0.9345,0.9367,0.9313,0.9329,0.9345,0.9345,0.9367,0.9454,0.9682,0.9628,0.9639,0.9737,0.9873,0.9911,0.9834,0.9954,1.0018,1.0018,1.0036,0.998,0.998,0.998,0.998,0.998,0.998,0.998,0.998,0.998,1.0068,1.0161,1.0063,1.0123,0.9022,0.0,0.0,0.9731,0.0,0.0,0.0,0.0,0.0,0.0,0.9721,0.9764,0.9731,0.9764,0.9818,0.9764,0.9851,0.9888,0.9894,0.9888,0.9888,0.9888,0.9818,0.9726,0.9714,0.9594,0.9465,0.9405,0.934,0.9302,0.9302,0.9302,0.9302,0.9302,0.9302,0.9302,0.9302,0.9302,0.9302,0.9302,0.9302,0.934,0.941,0.9666,0.9834,0.9894,0.9894,0.9829,0.9758,0.9758,0.9688,0.9611,0.9514,0.9454,0.9389,0.9329,0.9302,0.9302,0.9302,0.9302,0.9302,0.9302,0.9302,0.9302,0.9302,0.9302,0.9302,0.9302,0.9302,0.9302,0.9302,0.9302,0.9302,0.9302,0.9302,0.9302,0.9302,0.9302,0.9302,0.9302,0.9302,0.9302,0.9302,0.9302,0.9302,0.9302,0.9302,0.9394,0.9676,0.9649,0.9639,0.9818,0.9889,0.99,0.984,0.9949,0.998,0.998,0.998,0.998,0.998,0.998,0.998,0.998,0.998,0.998,0.998,1.0079,1.0139,1.0204,1.0199,1.0264,0.9073,0.0,0.9416,0.9834,0.9861,0.0,0.0,0.0,0.0,0.9481,0.9628,0.9742,0.9628,0.9764,0.9845,0.9731,0.9835,0.9938,0.984,0.9899,0.9948,0.9948,0.9845,0.9769,0.9714,0.9594,0.9443,0.9345,0.9318,0.9302,0.9302,0.9302,0.9302,0.9302,0.9302,0.9302,0.9302,0.9302,0.9302,0.9302,0.9302,0.9302,0.9313,0.9574,0.9721,0.9742,0.9764,0.9742,0.9676,0.9676,0.9605,0.9454,0.9454,0.9394,0.9302,0.9302,0.9302,0.9302,0.9302,0.9302,0.9302,0.9302,0.9302,0.9302,0.9302,0.9302,0.9302,0.9302,0.9302,0.9302,0.9302,0.9302,0.9302,0.9302,0.9302,0.9302,0.9302,0.9302,0.9302,0.9302,0.9302,0.9302,0.9302,0.9302,0.9302,0.9302,0.9302,0.9383,0.9649,0.9693,0.978,0.9938,0.9998,0.9975,0.9953,0.997,0.998,0.998,0.998,0.998,0.998,0.998,0.998,0.998,0.998,0.998,0.998,1.0144,1.0215,1.0237,1.034,1.0411,0.0,0.0,0.9394,0.0,0.9775,0.9731,0.0,0.0,0.9476,0.0,0.9438,0.9497,0.9378,0.9378,0.9459,0.9676,0.9736,0.978,0.997,0.9878,0.9823,0.9823,0.9764,0.9725,0.9709,0.9594,0.9481,0.9465,0.9362,0.9302,0.9302,0.9302,0.9302,0.9302,0.9302,0.9302,0.9302,0.9302,0.9302,0.9302,0.9302,0.9302,0.9307,0.9351,0.9432,0.9541,0.9644,0.966,0.9508,0.9508,0.9438,0.9329,0.9329,0.9318,0.9302,0.9302,0.9302,0.9302,0.9302,0.9302,0.9302,0.9302,0.9302,0.9302,0.9302,0.9302,0.9302,0.9302,0.9302,0.9302,0.9302,0.9302,0.9302,0.9302,0.9302,0.9302,0.9302,0.9302,0.9302,0.9302,0.9302,0.9302,0.9302,0.9302,0.9302,0.9302,0.9302,0.9356,0.9492,0.9643,0.972,0.9753,0.99,0.9937,0.9834,0.9921,0.998,0.998,0.998,0.998,0.998,0.998,0.998,0.998,0.998,0.998,0.998,1.0144,1.0259,1.0362,1.0378,1.0498,0.8686,0.9041,0.9372,0.0,0.9655,0.9605,0.9605,0.0,0.9367,0.9313,0.9345,0.9367,0.9313,0.9416,0.9525,0.96,0.9677,0.9802,0.9867,0.9894,0.9899,0.9899,0.9835,0.9764,0.9764,0.9661,0.9627,0.9627,0.9541,0.9508,0.9508,0.9443,0.9405,0.9405,0.934,0.9302,0.9302,0.9302,0.9302,0.9302,0.9302,0.9302,0.9302,0.9302,0.9334,0.9389,0.9443,0.9432,0.9383,0.9383,0.9351,0.9302,0.9302,0.9302,0.9302,0.9302,0.9302,0.9302,0.9302,0.9302,0.9302,0.9302,0.9302,0.9302,0.9302,0.9302,0.9302,0.9302,0.9302,0.9302,0.9302,0.9302,0.9302,0.9302,0.9302,0.9302,0.9302,0.9302,0.9302,0.9302,0.9302,0.9302,0.9302,0.9302,0.9302,0.9302,0.9302,0.9345,0.947,0.9633,0.9731,0.9758,0.9916,0.9959,0.9905,0.9948,0.998,0.998,0.998,0.998,0.998,0.998,0.998,0.998,0.998,0.998,0.998,1.0215,1.0335,1.0389,1.0489,1.0577,0.0,0.0,0.916,0.9492,0.9487,0.9416,0.0,0.0,0.9302,0.0,0.9302,0.9302,0.9302,0.9454,0.9605,0.9573,0.9682,0.9775,0.9834,0.9926,0.998,0.998,0.9899,0.9845,0.9845,0.978,0.9709,0.9709,0.9725,0.9709,0.9709,0.9622,0.9536,0.9536,0.9416,0.9351,0.9351,0.9318,0.9302,0.9302,0.9302,0.9302,0.9302,0.9302,0.9302,0.9302,0.9302,0.9302,0.9302,0.9302,0.9302,0.9302,0.9302,0.9302,0.9302,0.9302,0.9302,0.9302,0.9302,0.9302,0.9302,0.9302,0.9302,0.9302,0.9302,0.9302,0.9302,0.9302,0.9302,0.9302,0.9302,0.9302,0.9302,0.9302,0.9302,0.9302,0.9302,0.9302,0.9302,0.9302,0.9302,0.9302,0.9302,0.9302,0.9302,0.9302,0.9302,0.9334,0.9427,0.9611,0.9704,0.9786,0.9894,0.998,0.998,1.0047,1.0052,0.998,1.0013,1.0052,0.998,0.998,1.0036,1.0068,1.0068,1.0013,0.998,1.0237,1.034,1.034,1.05,1.0555,0.0,0.8535,0.0,0.9177,0.0,0.0,0.0,0.0,0.0,0.9302,0.9302,0.9302,0.9302,0.9313,0.9394,0.966,0.9709,0.9758,0.9981,0.9975,0.998,0.998,0.9975,0.997,0.997,0.9861,0.9791,0.9791,0.9731,0.9709,0.9709,0.9703,0.9698,0.9698,0.9541,0.9476,0.9476,0.9362,0.9302,0.9302,0.9302,0.9302,0.9302,0.9302,0.9302,0.9302,0.9302,0.9302,0.9302,0.9302,0.9302,0.9302,0.9302,0.9302,0.9302,0.9302,0.9302,0.9302,0.9302,0.9302,0.9302,0.9302,0.9302,0.9302,0.9302,0.9302,0.9302,0.9302,0.9302,0.9302,0.9302,0.9302,0.9302,0.9302,0.9302,0.9302,0.9302,0.9302,0.9302,0.9302,0.9302,0.9302,0.9302,0.9302,0.9302,0.9302,0.9302,0.9307,0.9313,0.9525,0.9709,0.9714,0.9883,0.998,0.998,1.0128,1.0144,1.0025,1.0128,1.0139,1.0025,0.998,1.0074,1.0193,1.0193,1.0139,0.998,1.015,1.0215,1.0215,1.034,1.0394,0.0,0.0,0.0,0.8889,0.8986,0.9006,0.9087,0.9136,0.9157,0.9157,0.9253,0.9302,0.9302,0.9302,0.9383,0.9665,0.9709,0.9753,0.9987,0.998,0.998,0.998,0.998,0.998,0.998,0.9943,0.9915,0.9915,0.9916,0.9894,0.9894,0.9818,0.9775,0.9775,0.9666,0.9605,0.9487,0.9367,0.9302,0.9302,0.9302,0.9302,0.9302,0.9302,0.9302,0.9302,0.9302,0.9302,0.9302,0.9302,0.9302,0.9302,0.9302,0.9302,0.9302,0.9302,0.9302,0.9302,0.9302,0.9302,0.9302,0.9302,0.9302,0.9302,0.9302,0.9302,0.9302,0.9302,0.9302,0.9302,0.9302,0.9302,0.9302,0.9302,0.9302,0.9302,0.9302,0.9302,0.9302,0.9302,0.9302,0.9302,0.9302,0.9302,0.9302,0.9302,0.9302,0.9302,0.9302,0.9519,0.9709,0.9709,0.9878,0.998,0.998,1.0134,1.0182,1.0139,1.0177,1.0182,1.0139,1.0063,1.0002,1.0085,1.0166,1.0182,1.0139,1.0259,1.0318,1.0324,1.0367,1.0468,0.8079,0.0,0.0,0.0,0.0,0.8816,0.8897,0.0,0.9049,0.9092,0.9157,0.9258,0.9296,0.9302,0.9383,0.9665,0.9709,0.9753,0.9987,0.998,0.998,0.998,0.998,0.9964,0.9926,0.9921,0.9943,0.9905,0.99,0.0,0.99,0.9824,0.9764,0.9683,0.9644,0.9552,0.9427,0.9345,0.9302,0.9302,0.9302,0.9302,0.9302,0.9302,0.9302,0.9302,0.9302,0.9302,0.9302,0.9302,0.9302,0.9302,0.9302,0.9302,0.9302,0.9302,0.9302,0.9302,0.9302,0.9302,0.9302,0.9302,0.9302,0.9302,0.9302,0.9302,0.9302,0.9302,0.9302,0.9302,0.9302,0.9302,0.9302,0.9302,0.9302,0.9302,0.9302,0.9302,0.9302,0.9302,0.9302,0.9302,0.9302,0.9302,0.9302,0.9302,0.9302,0.9302,0.9302,0.9481,0.966,0.9703,0.9845,0.9937,0.998,1.0134,1.0204,1.0204,1.0242,1.0248,1.0204,1.0123,1.0085,1.0085,1.0161,1.0204,1.0204,1.0286,1.0302,1.0264,1.0307,1.0367,0.0,0.0,0.0,0.0,0.0,0.0,0.8849,0.0,0.8946,0.9065,0.9092,0.913,0.928,0.9302,0.9383,0.966,0.9703,0.9748,0.9981,0.9975,0.9975,0.998,0.998,0.9932,0.9813,0.9796,0.9753,0.9714,0.9709,0.9709,0.9709,0.9709,0.9654,0.9497,0.9487,0.9427,0.9313,0.9307,0.9302,0.9302,0.9302,0.9302,0.9302,0.9302,0.9302,0.9302,0.9302,0.9302,0.9302,0.9302,0.9302,0.9302,0.9302,0.9302,0.9302,0.9302,0.9302,0.9302,0.9302,0.9302,0.9302,0.9302,0.9302,0.9302,0.9302,0.9302,0.9302,0.9302,0.9302,0.9302,0.9302,0.9302,0.9302,0.9302,0.9302,0.9302,0.9302,0.9302,0.9302,0.9302,0.9302,0.9302,0.9302,0.9302,0.9302,0.9302,0.9302,0.9302,0.9302,0.941,0.953,0.9687,0.9769,0.9845,0.9964,1.0128,1.0204,1.0204,1.0313,1.0329,1.021,1.0199,1.0199,1.0199,1.0204,1.0204,1.0199,1.0204,1.0144,1.003,1.015,1.021,0.7763,0.0,0.0,0.0,0.0,0.0,0.0,0.0,0.8829,0.8861,0.9014,0.9109,0.9141,0.9247,0.9356,0.9514,0.9536,0.9617,0.9818,0.985,0.9883,0.997,0.998,0.9932,0.9813,0.9796,0.9753,0.0,0.9709,0.9709,0.9709,0.9709,0.9693,0.966,0.9536,0.947,0.9438,0.9351,0.9302,0.9302,0.9302,0.9302,0.9302,0.9302,0.9302,0.9302,0.9302,0.9302,0.9302,0.9302,0.9302,0.9302,0.9302,0.9302,0.9302,0.9302,0.9302,0.9302,0.9302,0.9302,0.9302,0.9302,0.9302,0.9302,0.9302,0.9302,0.9302,0.9302,0.9302,0.9302,0.9302,0.9302,0.9302,0.9302,0.9302,0.9302,0.9302,0.9302,0.9302,0.9302,0.9302,0.9302,0.9302,0.9302,0.9302,0.9302,0.9302,0.9302,0.9302,0.941,0.9497,0.9536,0.9715,0.9813,0.9845,1.0085,1.0204,1.0204,1.0237,1.0237,1.0204,1.0117,1.0068,1.0068,1.0161,1.0161,1.0068,1.0161,1.0188,1.0155,1.028,1.0335,0.0,0.0,0.0,0.0,0.0,0.0,0.8994,0.9113,0.0,0.0,0.909,0.9137,0.9052,0.9119,0.9258,0.9329,0.9421,0.9568,0.9764,0.9845,0.9899,0.9975,0.998,0.9954,0.9786,0.9769,0.9699,0.953,0.9519,0.9519,0.9519,0.9519,0.9519,0.9519,0.9449,0.941,0.941,0.934,0.9302,0.9302,0.9302,0.9302,0.9302,0.9302,0.9302,0.9302,0.9302,0.9302,0.9302,0.9302,0.9302,0.9302,0.9302,0.9302,0.9302,0.9302,0.9302,0.9302,0.9302,0.9302,0.9302,0.9302,0.9302,0.9302,0.9302,0.9302,0.9302,0.9302,0.9302,0.9302,0.9302,0.9302,0.9302,0.9302,0.9302,0.9302,0.9302,0.9302,0.9302,0.9302,0.9302,0.9302,0.9302,0.9302,0.9302,0.9302,0.9302,0.9302,0.9302,0.9367,0.9432,0.9481,0.9606,0.9693,0.9791,0.9932,1.0095,1.0199,1.0204,1.0204,1.0204,1.0134,1.0074,0.998,1.009,1.009,0.998,1.0144,1.0204,1.0204,1.0275,1.0313,0.0,0.7944,0.0,0.0,0.0,0.0,0.9597,0.9694,0.9631,0.0,0.9336,0.928,0.9049,0.91,0.9182,0.9182,0.9385,0.9589,0.9748,0.9883,0.9964,0.998,0.998,0.9932,0.9747,0.9714,0.9611,0.934,0.9313,0.9302,0.9302,0.9302,0.9302,0.9302,0.9302,0.9302,0.9302,0.9302,0.9302,0.9302,0.9302,0.9302,0.9302,0.9302,0.9302,0.9302,0.9302,0.9302,0.9302,0.9302,0.9302,0.9302,0.9302,0.9302,0.9302,0.9302,0.9302,0.9302,0.9302,0.9302,0.9302,0.9302,0.9302,0.9302,0.9302,0.9302,0.9302,0.9302,0.9302,0.9302,0.9302,0.9302,0.9302,0.9302,0.9302,0.9302,0.9302,0.9302,0.9302,0.9302,0.9302,0.9302,0.9302,0.9302,0.9302,0.9302,0.9302,0.9302,0.9302,0.9302,0.9345,0.9454,0.9476,0.9579,0.9764,0.9791,0.9899,1.0166,1.0182,1.0182,1.0182,1.0182,1.0134,0.9986,0.998,0.998,0.998,1.0128,1.0182,1.0182,1.0182,1.0182,0.7556,0.8189,0.8577,0.8807,0.0,0.0,0.9664,0.9694,0.9667,0.0,0.9682,0.9693,0.9649,0.9728,0.9817,0.9817,0.9788,0.975,0.9703,0.9802,0.9872,0.997,0.998,0.9926,0.978,0.972,0.9649,0.9459,0.9362,0.9302,0.9302,0.9302,0.9302,0.9302,0.9302,0.9302,0.9302,0.9302,0.9302,0.9302,0.9302,0.9302,0.9302,0.9302,0.9302,0.9302,0.9302,0.9302,0.9302,0.9302,0.9302,0.9302,0.9302,0.9302,0.9302,0.9302,0.9302,0.9302,0.9302,0.9302,0.9302,0.9302,0.9302,0.9302,0.9302,0.9302,0.9302,0.9302,0.9302,0.9302,0.9302,0.9302,0.9302,0.9302,0.9302,0.9302,0.9302,0.9302,0.9302,0.9302,0.9302,0.9302,0.9302,0.9302,0.9302,0.9302,0.9302,0.9302,0.9302,0.9302,0.9313,0.934,0.9427,0.9546,0.9693,0.9786,0.9861,1.0047,1.0057,1.0057,1.0057,1.0057,1.0047,0.998,0.998,0.998,0.998,1.0047,1.0057,1.0057,1.0057,1.0057,0.6912,0.783,0.8691,0.9204,0.0,0.0,0.0,1.0193,1.016,0.9994,0.9921,0.9873,0.978,0.978,0.9813,0.9874,0.9848,0.9794,0.9722,0.9768,0.9845,0.997,0.998,0.9932,0.9813,0.9737,0.9633,0.941,0.934,0.9302,0.9302,0.9302,0.9302,0.9302,0.9302,0.9302,0.9302,0.9302,0.9302,0.9302,0.9302,0.9302,0.9302,0.9302,0.9302,0.9302,0.9302,0.9302,0.9302,0.9302,0.9302,0.9302,0.9302,0.9302,0.9302,0.9302,0.9302,0.9302,0.9302,0.9302,0.9302,0.9302,0.9302,0.9302,0.9302,0.9302,0.9302,0.9302,0.9302,0.9302,0.9302,0.9302,0.9302,0.9302,0.9302,0.9302,0.9302,0.9302,0.9302,0.9302,0.9302,0.9302,0.9302,0.9302,0.9302,0.9302,0.9302,0.9302,0.9302,0.9302,0.9302,0.9302,0.9356,0.9443,0.9605,0.9688,0.9802,0.9883,0.9948,0.998,0.998,0.998,0.998,0.998,0.998,0.998,0.998,0.998,0.998,0.998,0.998,0.998,0.0,0.0,0.0,0.0,0.0,1.0241,0.0,0.0,0.0,1.0359,1.0195,0.0,0.0,0.0,0.0,0.0,0.0,0.0,0.0,0.9809,0.0,0.99,0.9938,0.9916,0.9775,0.9682,0.9519,0.9318,0.9285,0.928,0.9302,0.9302,0.9302,0.9302,0.9302,0.9302,0.9302,0.928,0.928,0.9302,0.928,0.9269,0.9269,0.9296,0.9291,0.9275,0.9296,0.9302,0.9302,0.9302,0.9302,0.9302,0.9302,0.9302,0.9302,0.9302,0.9302,0.9302,0.9302,0.9302,0.9302,0.9302,0.9302,0.9302,0.9302,0.9302,0.9302,0.9302,0.9302,0.9302,0.9302,0.9302,0.9302,0.9302,0.9302,0.9302,0.9302,0.9302,0.9302,0.9302,0.9302,0.9302,0.9302,0.9302,0.9302,0.9302,0.9302,0.9302,0.9302,0.9302,0.9302,0.9302,0.9302,0.9351,0.9476,0.9616,0.9682,0.9758,0.9878,0.9948,0.9948,0.997,0.998,0.998,0.998,0.998,0.998,0.998,0.998,0.998,0.998,0.998,0.0,0.0,0.0,0.0,1.009,0.0,0.0,0.0,1.0684,1.0651,0.0,0.0,0.0,0.0,0.0,0.0,0.0,0.0,1.0411,1.0024,0.9657,0.9556,0.9682,0.9742,0.9731,0.9481,0.9334,0.9307,0.9174,0.9163,0.9296,0.9302,0.9302,0.9302,0.9302,0.9302,0.9302,0.9168,0.9168,0.9302,0.9168,0.9119,0.9119,0.9258,0.9247,0.9125,0.9258,0.9302,0.9302,0.9302,0.9302,0.9302,0.9302,0.9302,0.9302,0.9302,0.9302,0.9302,0.9302,0.9302,0.9302,0.9302,0.9302,0.9302,0.9302,0.9302,0.9302,0.9302,0.9302,0.9302,0.9302,0.9302,0.9302,0.9302,0.9302,0.9302,0.9302,0.9302,0.9302,0.9302,0.9302,0.9302,0.9302,0.9302,0.9302,0.9302,0.9302,0.9302,0.9302,0.9302,0.9302,0.9302,0.9302,0.9351,0.9476,0.9497,0.9557,0.972,0.9796,0.9818,0.9818,0.9926,0.998,0.998,0.998,0.998,0.998,0.998,0.998,0.998,0.998,0.998,0.0,0.0,0.0,0.0,0.0,0.0,1.0274,0.0,1.0487,0.0,0.0,0.0,0.0,0.0,0.0,0.0,1.0517,0.0,0.0,0.0,0.9612,0.0,0.0,0.0,0.9459,0.9362,0.9302,0.0,0.9163,0.9147,0.9296,0.9302,0.9302,0.9302,0.9302,0.9302,0.9302,0.9258,0.9258,0.9302,0.9258,0.9231,0.9237,0.928,0.928,0.9237,0.928,0.9302,0.9302,0.9302,0.9302,0.9302,0.9302,0.9302,0.9302,0.9302,0.9302,0.9302,0.9302,0.9302,0.9302,0.9302,0.9302,0.9302,0.9302,0.9302,0.9302,0.9302,0.9302,0.9302,0.9302,0.9302,0.9302,0.9302,0.9302,0.9302,0.9302,0.9302,0.9302,0.9302,0.9302,0.9302,0.9302,0.9302,0.9302,0.9302,0.9302,0.9302,0.9302,0.9302,0.9302,0.9302,0.9302,0.9323,0.9378,0.9449,0.9508,0.9594,0.9677,0.9802,0.9899,0.9888,0.991,0.998,0.998,0.998,0.998,0.998,0.998,0.998,0.998,0.998,0.2289,0.0,0.0,0.0,0.0,0.0,0.0,0.0,0.0,0.0,0.0,0.0,0.0,0.0,0.0,0.0,0.0,0.0,0.0,0.0,0.0,0.0,0.0,0.0,0.0,0.9177,0.0,0.9204,0.0,0.9101,0.9247,0.9258,0.9269,0.9302,0.9302,0.9302,0.9302,0.9275,0.9258,0.9258,0.9226,0.9204,0.9209,0.9242,0.9258,0.9258,0.9291,0.9302,0.9302,0.9302,0.9302,0.9302,0.9302,0.9302,0.9302,0.9302,0.9302,0.9302,0.9302,0.9302,0.9302,0.9302,0.9302,0.9302,0.9302,0.9302,0.9302,0.9302,0.9302,0.9302,0.9302,0.9302,0.9302,0.9302,0.9302,0.9302,0.9302,0.9302,0.9302,0.9302,0.9302,0.9302,0.9302,0.9302,0.9302,0.9302,0.9302,0.9302,0.9302,0.9302,0.9302,0.9302,0.9302,0.9302,0.9302,0.9383,0.9454,0.9487,0.9605,0.9709,0.9916,0.984,0.9807,0.9932,0.9932,0.9948,0.998,0.998,0.998,0.998,0.998,0.998,0.0,0.0,0.0,0.6285,0.0,0.0,0.0,0.0,1.0389,0.0,0.0,0.0,0.0,0.0,0.0,0.0,0.0,0.0,0.0,0.0,0.0,0.0,0.0,0.0,0.0,0.8856,0.8834,0.0,0.8851,0.0,0.9092,0.9103,0.9157,0.9302,0.9302,0.9302,0.9302,0.9157,0.9103,0.9103,0.8984,0.893,0.893,0.9049,0.9103,0.9109,0.9258,0.9302,0.9302,0.9302,0.9302,0.9302,0.9302,0.9302,0.9302,0.9302,0.9302,0.9302,0.9302,0.9302,0.9302,0.9302,0.9302,0.9302,0.9302,0.9302,0.9302,0.9302,0.9302,0.9302,0.9302,0.9302,0.9302,0.9302,0.9302,0.9302,0.9302,0.9302,0.9302,0.9302,0.9302,0.9302,0.9302,0.9302,0.9302,0.9302,0.9302,0.9302,0.9302,0.9302,0.9302,0.9302,0.9302,0.9302,0.9302,0.9307,0.9362,0.9481,0.9492,0.9583,0.9714,0.9714,0.9726,0.9802,0.9807,0.9861,0.998,0.998,0.998,0.998,0.998,0.998,0.0,0.0,0.3045,0.3451,0.0,0.0,0.0,0.0,0.0,0.0,0.0,0.0,0.0,0.0,0.0,0.0,0.0,0.0,0.0,0.0,0.0,0.0,0.0,0.0,0.0,0.0,0.0,0.0,0.8881,0.0,0.0,0.9168,0.9264,0.9302,0.9302,0.9302,0.9302,0.9264,0.9174,0.9098,0.913,0.9109,0.9044,0.9157,0.9168,0.9103,0.9253,0.9264,0.9163,0.9275,0.9302,0.9302,0.9302,0.9302,0.9302,0.9302,0.9302,0.9302,0.9302,0.9302,0.9302,0.9302,0.9302,0.9302,0.9302,0.9302,0.9302,0.9302,0.9302,0.9302,0.9302,0.9302,0.9302,0.9302,0.9302,0.9302,0.9302,0.9302,0.9302,0.9302,0.9302,0.9302,0.9302,0.9302,0.9302,0.9302,0.9302,0.9302,0.9302,0.9302,0.9302,0.9302,0.9302,0.9302,0.9302,0.9302,0.9356,0.9476,0.941,0.9459,0.9698,0.9627,0.9606,0.9726,0.9764,0.9818,0.9861,0.9943,0.998,0.998,0.998,0.998,0.0,0.0652,0.0,0.1885,0.2946,0.0,0.4272,0.0,0.0,0.0,0.0,0.0,0.0,0.0,0.0,0.0,0.0,0.0,0.0,0.9089,0.0,0.0,0.0,0.0,0.0,0.0,0.8736,0.8784,0.8789,0.0,0.0,0.0,0.9163,0.9242,0.928,0.9302,0.9302,0.9302,0.9226,0.9038,0.9152,0.916,0.9008,0.9087,0.9103,0.9038,0.9157,0.9168,0.9109,0.9258,0.9302,0.9302,0.9302,0.9302,0.9302,0.9302,0.9302,0.9302,0.9302,0.9302,0.9302,0.9302,0.9302,0.9302,0.9302,0.9302,0.9302,0.9302,0.9302,0.9302,0.9302,0.9302,0.9302,0.9302,0.9302,0.9302,0.9302,0.9302,0.9302,0.9302,0.9302,0.9302,0.9302,0.9302,0.9302,0.9302,0.9302,0.9302,0.9302,0.9302,0.9302,0.9302,0.9302,0.9302,0.9302,0.9302,0.934,0.9416,0.9345,0.9372,0.9536,0.9465,0.9481,0.9638,0.972,0.9758,0.9796,0.9878,0.9915,0.9915,0.9916,0.9894]},{"header":{"parameterUnit":"m.s-1","parameterCategory":1,"la1":30.6,"la2":29.2853,"lo1":-89.7004,"lo2":-87.6739,"dy":0.0162,"dx":0.0183,"nx":112,"ny":82,"refTime":"2024-08-19T06:00:00:Z","depth":0,"parameterNumber":3,"parameterNumberName":"V-component_of_WINDS"},"data":[0.0,0.0,0.0,0.0,0.0,0.0,0.0,0.0,0.0,0.0,0.0,0.0,0.0,0.0,0.0,0.0,0.0,0.0,0.0,0.0,0.0,0.0,0.0,0.0,0.0,0.0,0.0,0.0,0.0,0.0,0.0,0.0,0.0,0.0,0.0,0.0,0.0,0.0,0.0,0.0,0.0,0.0,0.0,0.0,0.0,0.0,0.0,0.0,0.0,0.0,0.0,0.0,0.0,0.0,0.0,0.0,0.0,0.0,0.0,0.0,0.0,0.0,0.0,0.0,0.0,0.0,0.0,0.0,0.0,0.0,0.0,0.0,0.0,0.0,0.0,0.0,0.0,0.0,0.0,0.0,0.0,0.0,0.0,0.0,0.0,0.0,0.0,0.0,0.0,0.0,0.0,4.5687,4.5803,4.5803,4.5803,4.5803,4.5115,4.3505,0.0,0.0,0.0,0.0,0.0,0.0,0.0,0.0,0.0,0.0,0.0,0.0,0.0,0.0,0.0,0.0,0.0,0.0,0.0,0.0,0.0,0.0,0.0,0.0,0.0,0.0,0.0,0.0,0.0,0.0,0.0,0.0,0.0,0.0,0.0,0.0,0.0,0.0,0.0,0.0,0.0,0.0,0.0,0.0,0.0,0.0,0.0,0.0,0.0,0.0,0.0,0.0,0.0,0.0,0.0,0.0,0.0,0.0,0.0,0.0,0.0,0.0,0.0,0.0,0.0,0.0,0.0,0.0,0.0,0.0,0.0,0.0,0.0,0.0,0.0,0.0,0.0,0.0,0.0,0.0,0.0,0.0,0.0,0.0,0.0,0.0,0.0,0.0,0.0,0.0,0.0,0.0,0.0,0.0,0.0,0.0,0.0,0.0,0.0,0.0,0.0,0.0,0.0,0.0,4.4098,4.5649,4.5803,4.5803,4.5803,4.5803,4.5075,4.3428,0.0,0.0,0.0,0.0,0.0,0.0,0.0,0.0,0.0,0.0,0.0,0.0,0.0,0.0,0.0,0.0,0.0,0.0,0.0,0.0,0.0,0.0,0.0,0.0,0.0,0.0,0.0,0.0,0.0,0.0,0.0,0.0,0.0,0.0,0.0,0.0,0.0,0.0,0.0,0.0,0.0,0.0,0.0,0.0,0.0,0.0,0.0,0.0,0.0,0.0,0.0,0.0,0.0,0.0,0.0,0.0,0.0,0.0,0.0,0.0,0.0,0.0,0.0,0.0,0.0,0.0,0.0,0.0,0.0,0.0,0.0,0.0,0.0,0.0,0.0,0.0,0.0,0.0,0.0,0.0,0.0,0.0,0.0,0.0,0.0,0.0,0.0,0.0,0.0,0.0,0.0,0.0,0.0,0.0,0.0,0.0,0.0,0.0,0.0,0.0,0.0,0.0,0.0,4.3746,4.4485,4.5687,4.5803,4.5803,4.5803,4.5803,4.4875,4.2744,4.1832,0.0,0.0,0.0,0.0,0.0,0.0,0.0,0.0,0.0,0.0,0.0,0.0,0.0,0.0,0.0,0.0,0.0,0.0,0.0,0.0,0.0,0.0,0.0,0.0,0.0,0.0,0.0,0.0,0.0,0.0,0.0,0.0,0.0,0.0,0.0,0.0,0.0,0.0,0.0,0.0,0.0,0.0,0.0,0.0,0.0,0.0,0.0,0.0,0.0,0.0,0.0,0.0,0.0,0.0,0.0,0.0,0.0,0.0,0.0,0.0,0.0,0.0,0.0,0.0,0.0,0.0,0.0,0.0,0.0,0.0,0.0,0.0,0.0,0.0,0.0,0.0,0.0,0.0,0.0,0.0,0.0,0.0,0.0,0.0,0.0,0.0,0.0,0.0,0.0,0.0,0.0,0.0,0.0,0.0,0.0,0.0,0.0,0.0,0.0,0.0,0.0,0.0,4.4636,4.5104,4.5726,4.5803,4.5803,4.5803,4.5455,4.4295,4.2125,4.0852,0.0,0.0,0.0,0.0,0.0,0.0,0.0,0.0,0.0,0.0,0.0,0.0,0.0,0.0,0.0,0.0,0.0,0.0,0.0,0.0,0.0,0.0,0.0,0.0,0.0,0.0,0.0,0.0,0.0,0.0,0.0,0.0,0.0,0.0,0.0,0.0,0.0,0.0,0.0,0.0,0.0,0.0,0.0,0.0,0.0,0.0,0.0,0.0,0.0,0.0,0.0,0.0,0.0,0.0,0.0,0.0,0.0,0.0,0.0,0.0,0.0,0.0,0.0,0.0,0.0,0.0,0.0,0.0,0.0,0.0,0.0,0.0,0.0,0.0,0.0,0.0,0.0,0.0,0.0,0.0,0.0,0.0,0.0,0.0,0.0,0.0,0.0,0.0,0.0,0.0,0.0,0.0,0.0,0.0,0.0,0.0,0.0,0.0,0.0,0.0,0.0,0.0,4.4755,4.5726,4.5803,4.5803,4.5803,4.5803,4.4369,4.3053,4.2048,3.9724,0.0,0.0,0.0,0.0,0.0,0.0,0.0,0.0,0.0,0.0,0.0,0.0,0.0,0.0,0.0,0.0,0.0,0.0,0.0,0.0,0.0,0.0,0.0,0.0,0.0,0.0,0.0,0.0,0.0,0.0,0.0,0.0,0.0,0.0,0.0,0.0,0.0,0.0,0.0,0.0,0.0,0.0,0.0,0.0,0.0,0.0,0.0,0.0,0.0,0.0,0.0,0.0,0.0,0.0,0.0,0.0,0.0,0.0,0.0,0.0,0.0,0.0,0.0,0.0,0.0,0.0,0.0,0.0,0.0,0.0,0.0,0.0,0.0,0.0,0.0,0.0,0.0,0.0,0.0,0.0,0.0,0.0,0.0,0.0,0.0,0.0,0.0,0.0,0.0,0.0,0.0,0.0,0.0,0.0,0.0,0.0,0.0,0.0,0.0,0.0,0.0,0.0,4.433,4.5258,0.0,4.5803,4.5803,4.5803,4.5223,4.383,4.1393,0.0,0.0,0.0,0.0,0.0,0.0,0.0,0.0,0.0,0.0,0.0,0.0,0.0,0.0,0.0,0.0,0.0,0.0,0.0,0.0,0.0,0.0,0.0,0.0,0.0,0.0,0.0,0.0,0.0,0.0,0.0,0.0,0.0,0.0,0.0,0.0,0.0,0.0,0.0,0.0,0.0,0.0,0.0,0.0,0.0,0.0,0.0,0.0,0.0,0.0,0.0,0.0,0.0,0.0,0.0,0.0,0.0,0.0,0.0,0.0,0.0,0.0,0.0,0.0,0.0,0.0,0.0,0.0,0.0,0.0,0.0,0.0,0.0,0.0,0.0,0.0,0.0,0.0,0.0,0.0,0.0,0.0,0.0,0.0,0.0,0.0,0.0,0.0,0.0,0.0,0.0,0.0,0.0,0.0,0.0,0.0,0.0,0.0,0.0,0.0,0.0,0.0,4.3015,4.4301,4.5195,0.0,4.5803,4.5803,4.5803,4.53,4.3792,4.0968,0.0,0.0,0.0,0.0,0.0,0.0,0.0,0.0,0.0,0.0,0.0,0.0,0.0,0.0,0.0,0.0,0.0,0.0,0.0,0.0,0.0,0.0,0.0,0.0,0.0,0.0,0.0,0.0,0.0,0.0,0.0,0.0,0.0,0.0,0.0,0.0,0.0,0.0,0.0,0.0,0.0,0.0,0.0,0.0,0.0,0.0,0.0,0.0,0.0,0.0,0.0,0.0,0.0,0.0,0.0,0.0,0.0,0.0,0.0,0.0,0.0,0.0,0.0,0.0,0.0,0.0,0.0,0.0,0.0,0.0,0.0,0.0,0.0,0.0,0.0,0.0,0.0,0.0,0.0,0.0,0.0,0.0,0.0,0.0,0.0,0.0,0.0,0.0,0.0,0.0,0.0,0.0,0.0,0.0,0.0,0.0,0.0,0.0,0.0,0.0,0.0,0.0,4.3095,4.4831,4.5886,4.581,4.5807,4.5807,4.5807,4.4291,4.2628,0.0,0.0,0.0,0.0,0.0,0.0,0.0,0.0,0.0,0.0,0.0,0.0,0.0,0.0,0.0,0.0,0.0,0.0,0.0,0.0,0.0,0.0,0.0,0.0,0.0,0.0,0.0,0.0,0.0,0.0,0.0,0.0,0.0,0.0,0.0,0.0,0.0,0.0,0.0,0.0,0.0,0.0,0.0,0.0,0.0,0.0,0.0,0.0,0.0,0.0,0.0,0.0,0.0,0.0,0.0,0.0,0.0,0.0,0.0,0.0,0.0,0.0,0.0,0.0,0.0,0.0,0.0,0.0,0.0,0.0,0.0,0.0,0.0,0.0,0.0,0.0,0.0,0.0,0.0,0.0,0.0,0.0,0.0,0.0,0.0,0.0,0.0,0.0,0.0,0.0,0.0,0.0,0.0,0.0,0.0,0.0,0.0,0.0,0.0,0.0,0.0,0.0,0.0,4.3247,4.5406,4.6578,4.5925,4.5883,4.5883,4.5883,4.5418,4.4179,4.1856,0.0,0.0,0.0,0.0,0.0,0.0,0.0,0.0,0.0,0.0,0.0,0.0,0.0,0.0,0.0,0.0,0.0,0.0,0.0,0.0,0.0,0.0,0.0,0.0,0.0,0.0,0.0,0.0,0.0,0.0,0.0,0.0,0.0,0.0,0.0,0.0,0.0,0.0,0.0,0.0,0.0,0.0,0.0,0.0,0.0,0.0,0.0,0.0,0.0,0.0,0.0,0.0,0.0,0.0,0.0,0.0,0.0,0.0,0.0,0.0,0.0,0.0,0.0,0.0,0.0,0.0,0.0,0.0,0.0,0.0,0.0,0.0,0.0,0.0,0.0,0.0,0.0,0.0,0.0,0.0,0.0,0.0,0.0,0.0,0.0,0.0,0.0,0.0,0.0,0.0,0.0,0.0,0.0,0.0,0.0,0.0,0.0,0.0,0.0,0.0,0.0,0.0,4.3823,4.5866,4.7036,4.6465,4.6113,4.5919,4.5919,4.5919,4.4795,4.2279,0.0,0.0,0.0,0.0,0.0,0.0,0.0,0.0,0.0,0.0,0.0,0.0,0.0,0.0,0.0,0.0,0.0,0.0,0.0,0.0,0.0,0.0,0.0,0.0,0.0,0.0,0.0,0.0,0.0,0.0,0.0,0.0,0.0,0.0,0.0,0.0,0.0,0.0,0.0,0.0,0.0,0.0,0.0,0.0,0.0,0.0,0.0,0.0,0.0,0.0,0.0,0.0,0.0,0.0,0.0,0.0,0.0,0.0,0.0,0.0,0.0,0.0,0.0,0.0,0.0,0.0,0.0,0.0,0.0,0.0,0.0,0.0,0.0,0.0,0.0,0.0,0.0,0.0,0.0,0.0,0.0,0.0,0.0,0.0,0.0,0.0,0.0,0.0,0.0,0.0,0.0,0.0,0.0,0.0,0.0,0.0,0.0,0.0,0.0,0.0,0.0,0.0,4.4703,4.6323,4.738,4.723,4.6415,4.5914,4.5914,4.5914,4.4906,4.2505,0.0,0.0,0.0,0.0,0.0,0.0,0.0,0.0,0.0,0.0,0.0,0.0,0.0,0.0,0.0,0.0,0.0,0.0,0.0,0.0,0.0,0.0,0.0,0.0,0.0,0.0,0.0,0.0,0.0,0.0,0.0,0.0,0.0,0.0,0.0,0.0,0.0,0.0,0.0,0.0,0.0,0.0,0.0,0.0,0.0,0.0,0.0,0.0,0.0,0.0,0.0,0.0,0.0,0.0,0.0,0.0,0.0,0.0,0.0,0.0,4.6984,0.0,0.0,0.0,0.0,0.0,0.0,0.0,0.0,0.0,0.0,0.0,0.0,0.0,0.0,0.0,0.0,0.0,0.0,0.0,0.0,0.0,0.0,0.0,0.0,0.0,0.0,0.0,0.0,0.0,0.0,0.0,0.0,0.0,0.0,0.0,0.0,0.0,0.0,0.0,0.0,0.0,4.5604,4.7239,4.8036,4.7341,4.6487,4.5986,4.5986,4.5986,4.5442,4.4237,4.3696,0.0,0.0,0.0,0.0,0.0,0.0,0.0,0.0,0.0,0.0,0.0,0.0,0.0,0.0,0.0,0.0,0.0,0.0,0.0,0.0,0.0,0.0,0.0,0.0,0.0,0.0,0.0,0.0,0.0,0.0,0.0,0.0,0.0,0.0,0.0,0.0,0.0,0.0,0.0,0.0,0.0,0.0,0.0,0.0,0.0,0.0,0.0,0.0,0.0,0.0,0.0,0.0,0.0,0.0,0.0,0.0,0.0,0.0,0.0,0.0,4.8777,0.0,0.0,0.0,0.0,0.0,0.0,0.0,0.0,0.0,0.0,0.0,0.0,0.0,0.0,0.0,0.0,0.0,0.0,0.0,0.0,0.0,0.0,0.0,0.0,0.0,0.0,0.0,0.0,0.0,0.0,0.0,0.0,0.0,0.0,0.0,0.0,0.0,0.0,0.0,0.0,4.6574,4.7767,4.8438,4.7955,4.6754,4.6017,4.6017,4.6017,4.5628,4.481,4.4305,0.0,0.0,0.0,0.0,0.0,0.0,0.0,0.0,0.0,0.0,0.0,0.0,0.0,0.0,0.0,0.0,0.0,0.0,0.0,0.0,0.0,0.0,0.0,0.0,0.0,0.0,0.0,0.0,0.0,0.0,0.0,0.0,0.0,0.0,0.0,0.0,0.0,0.0,0.0,0.0,0.0,0.0,0.0,0.0,0.0,0.0,0.0,0.0,0.0,0.0,0.0,0.0,0.0,5.3224,5.3694,5.4399,5.3691,5.376,5.4361,5.3121,5.2213,5.1575,5.0743,0.0,0.0,0.0,0.0,0.0,0.0,0.0,0.0,0.0,0.0,0.0,0.0,0.0,0.0,0.0,0.0,0.0,0.0,0.0,0.0,0.0,0.0,0.0,0.0,5.4138,5.4385,0.0,0.0,0.0,0.0,0.0,0.0,0.0,0.0,0.0,0.0,0.0,0.0,4.7695,4.8247,4.8599,4.8599,4.7048,4.5999,4.5999,4.5999,4.5727,4.5067,4.5028,4.4676,0.0,0.0,0.0,0.0,0.0,0.0,0.0,0.0,0.0,0.0,0.0,0.0,0.0,0.0,0.0,0.0,0.0,0.0,0.0,0.0,0.0,0.0,0.0,0.0,0.0,0.0,0.0,0.0,0.0,0.0,0.0,0.0,4.9148,4.9355,0.0,0.0,0.0,0.0,0.0,0.0,0.0,0.0,0.0,0.0,0.0,0.0,0.0,5.3615,5.4244,5.5223,5.5775,5.5874,5.6583,5.7066,5.7343,5.7228,5.7228,5.7381,5.7839,0.0,5.3371,5.3236,0.0,0.0,0.0,0.0,0.0,0.0,0.0,0.0,0.0,0.0,0.0,0.0,0.0,0.0,0.0,0.0,0.0,0.0,0.0,0.0,0.0,0.0,5.578,5.5777,5.5935,5.578,0.0,5.2547,5.0607,4.9524,4.8784,0.0,0.0,0.0,0.0,0.0,0.0,0.0,4.9267,4.8974,4.8599,4.8599,4.7048,4.5999,4.5999,4.5999,4.596,4.5844,4.5844,4.5805,4.5688,4.4986,0.0,0.0,0.0,0.0,0.0,0.0,0.0,0.0,0.0,0.0,0.0,0.0,0.0,0.0,0.0,0.0,0.0,0.0,0.0,0.0,0.0,0.0,0.0,0.0,0.0,0.0,0.0,0.0,0.0,4.8991,5.055,5.0081,5.0734,5.0695,0.0,0.0,0.0,0.0,0.0,0.0,0.0,0.0,0.0,5.5157,5.5696,5.615,5.657,5.7904,5.8351,5.7912,5.8751,5.9206,5.9307,5.9307,5.9307,5.9307,5.9682,5.8939,5.7377,5.6378,5.5166,5.3901,0.0,0.0,0.0,0.0,5.3898,5.409,5.5118,5.5625,5.5742,5.5164,0.0,0.0,0.0,0.0,0.0,0.0,0.0,0.0,0.0,0.0,5.6411,5.6916,5.7382,5.7496,5.6644,5.5184,5.3456,0.0,5.0933,5.0121,4.8344,0.0,0.0,0.0,0.0,4.9024,4.9753,4.9568,4.9146,4.8638,4.7473,4.654,4.6038,4.5999,4.5999,4.5999,4.5999,4.6232,4.6696,4.6385,4.623,0.0,0.0,0.0,0.0,0.0,0.0,0.0,0.0,0.0,0.0,0.0,0.0,0.0,0.0,0.0,0.0,0.0,0.0,0.0,0.0,0.0,0.0,0.0,0.0,0.0,0.0,0.0,0.0,5.1007,5.2247,5.1821,5.2927,5.3079,0.0,0.0,0.0,0.0,0.0,0.0,5.4681,5.5479,5.638,5.7399,5.8047,5.8439,5.8536,5.9765,6.0071,5.9453,6.0109,6.0415,6.0415,6.0415,6.0415,6.0384,6.0439,6.0459,6.0338,5.872,5.7679,5.7028,5.6225,5.5932,5.6058,5.689,5.7052,5.7095,5.8398,5.8971,5.8972,5.7923,5.7615,5.7269,5.5518,0.0,0.0,0.0,0.0,5.3883,5.6061,5.6489,5.645,5.711,5.7729,5.8001,5.7382,5.6761,5.567,0.0,5.2873,5.1979,4.9687,0.0,0.0,0.0,0.0,4.9962,5.0195,5.004,4.9651,4.8991,4.8133,4.7356,4.6737,4.6465,4.6349,4.6349,4.6349,4.6618,4.7276,4.7509,4.7625,4.7625,0.0,0.0,0.0,0.0,0.0,0.0,0.0,0.0,0.0,0.0,0.0,0.0,0.0,0.0,0.0,0.0,0.0,0.0,0.0,0.0,0.0,0.0,0.0,0.0,0.0,0.0,0.0,0.0,0.0,5.6199,5.6962,0.0,0.0,0.0,0.0,5.4699,5.5519,5.6459,5.7442,5.8248,5.9152,6.0172,6.0255,6.0255,6.0262,6.0377,6.0377,6.0339,6.0377,6.0415,6.0415,6.0415,6.0415,6.0429,6.0514,6.0602,6.0507,5.9451,5.899,5.8891,5.8212,5.7955,5.8011,5.8388,5.9022,5.9744,5.9936,6.0014,6.0176,6.0911,5.9555,5.7732,5.835,5.6832,0.0,0.0,5.68,5.6333,5.7305,5.6916,5.6295,5.6333,5.6411,5.6411,5.6372,5.6333,5.6019,0.0,5.4194,5.3109,5.1358,0.0,5.0775,4.9884,4.9848,5.0195,5.1047,5.0428,4.9887,4.9848,4.9068,4.8522,4.8483,4.7706,4.7237,4.7237,4.7237,4.7237,4.7315,4.8094,4.8522,4.8522,4.7703,0.0,0.0,0.0,0.0,0.0,0.0,0.0,0.0,0.0,0.0,0.0,0.0,0.0,0.0,0.0,0.0,0.0,0.0,0.0,0.0,0.0,0.0,0.0,0.0,0.0,0.0,0.0,0.0,5.6632,5.7769,0.0,5.6222,5.6518,5.7063,5.7551,5.7894,5.8487,5.9383,5.9695,6.0022,6.0377,6.0415,6.0415,6.0415,6.0475,6.0546,6.0546,6.0677,6.0737,6.0737,6.0737,6.0737,6.0704,6.0767,6.0795,6.0751,6.0419,6.0254,6.0255,6.0097,6.0012,6.005,6.0297,6.0581,6.086,6.0939,6.095,6.0989,6.1299,6.0794,6.0099,6.0406,5.9435,5.8545,5.971,5.9011,5.8117,5.8975,5.8198,5.7149,5.7149,5.6722,5.6295,5.6295,5.6295,5.6214,5.5903,5.5126,5.4155,5.2992,5.2798,5.2332,5.093,5.1166,5.1435,5.1238,5.093,5.0503,4.9965,4.9612,4.9224,4.8638,4.8327,4.79,4.7354,4.7315,4.7548,4.8094,4.8444,4.8874,4.9418,4.9146,4.8405,0.0,0.0,0.0,0.0,0.0,0.0,0.0,0.0,0.0,0.0,0.0,0.0,0.0,0.0,0.0,0.0,0.0,0.0,0.0,0.0,0.0,0.0,0.0,0.0,0.0,0.0,5.7772,5.7466,5.8689,5.8994,5.7581,5.8237,5.8956,5.9491,5.9529,5.9797,6.0377,6.0446,6.0486,6.0486,6.052,6.0559,6.0559,6.0651,6.071,6.0716,6.0834,6.0887,6.0887,6.0887,6.0887,6.0892,6.0948,6.0973,6.0973,6.1026,6.1084,6.1089,6.11,6.1148,6.1232,6.1348,6.1416,6.1416,6.1416,6.1416,6.1416,6.1416,6.1416,6.1416,6.1416,6.0989,6.0642,6.1222,6.0367,5.936,5.9943,5.8859,5.7619,5.7619,5.6916,5.6295,5.6295,5.6295,5.6295,5.6295,5.5825,5.5165,5.4274,5.4158,5.3653,5.2251,5.2251,5.2212,5.1668,5.1355,5.0969,5.0389,5.035,5.0117,4.9532,4.9221,4.8794,4.8211,4.8172,4.8444,4.903,4.903,4.9457,5.0312,5.035,4.9881,4.9024,0.0,0.0,0.0,0.0,0.0,0.0,0.0,0.0,0.0,0.0,0.0,0.0,0.0,0.0,0.0,0.0,0.0,0.0,0.0,0.0,0.0,0.0,0.0,5.8049,5.8081,5.8289,5.9046,5.9887,6.0078,5.9237,5.9925,6.0429,6.0436,6.0436,6.0436,6.0436,6.0559,6.0621,6.0621,6.0801,6.0887,6.0887,6.0892,6.0897,6.0897,6.0902,6.0902,6.0902,6.0902,6.0902,6.0913,6.1064,6.1126,6.1135,6.1329,6.1416,6.1366,6.1173,6.124,6.1416,6.1416,6.1416,6.1416,6.1416,6.1416,6.1416,6.1416,6.1416,6.1416,6.1416,6.1416,6.1416,6.1416,6.0798,6.0137,6.0137,5.8936,5.7658,5.7658,5.6955,5.6333,5.6295,5.6295,5.6295,5.6295,5.6295,5.6019,5.5204,5.5045,5.4737,5.3886,5.3031,0.0,5.2445,5.1746,5.1277,5.1238,5.1238,5.1238,5.1199,5.0428,4.9926,4.9887,4.9887,4.9926,4.9926,4.9926,5.035,5.1277,5.1277,5.1668,5.2445,0.0,0.0,0.0,0.0,0.0,0.0,0.0,0.0,0.0,0.0,0.0,0.0,0.0,0.0,0.0,0.0,0.0,0.0,0.0,0.0,0.0,5.7783,5.9041,5.9181,5.97,6.0167,6.0398,6.0505,6.0513,6.0419,6.0499,6.059,6.0733,6.0744,6.0744,6.0744,6.079,6.0817,6.0817,6.0866,6.0887,6.0887,6.1003,6.1059,6.1059,6.1195,6.1279,6.1279,6.1279,6.1279,6.124,6.1314,6.1329,6.1333,6.1363,6.1416,6.1373,6.1341,6.1348,6.1416,6.1416,6.1416,6.1416,6.1416,6.1416,6.1416,6.1416,6.1416,6.1416,6.1416,6.1416,6.1416,6.1416,6.1222,6.1027,6.1027,6.0215,5.9247,5.8622,5.7849,5.7072,5.645,5.6295,5.6295,5.6295,5.6295,5.6214,5.5981,5.5942,5.5631,5.4776,5.4427,0.0,5.342,5.3148,5.2759,5.2135,5.2057,5.1824,5.1238,5.0969,5.0581,4.9926,4.9887,5.0195,5.0814,5.0853,5.1513,5.2992,5.2992,5.3109,0.0,0.0,0.0,0.0,0.0,0.0,0.0,0.0,0.0,0.0,0.0,0.0,0.0,0.0,0.0,0.0,0.0,0.0,0.0,0.0,0.0,0.0,5.9354,6.0429,6.0381,6.0693,6.0887,6.0887,6.0801,6.0778,6.0882,6.0795,6.0932,6.1422,6.1427,6.1587,6.1934,6.204,6.2075,6.2075,6.2138,6.2209,6.2209,6.2293,6.233,6.233,6.2435,6.2507,6.2468,6.2115,6.1921,6.1921,6.1571,6.1433,6.1421,6.1421,6.1441,0.0,0.0,0.0,0.0,0.0,6.1416,6.1416,6.1416,6.1416,6.1416,6.1416,6.1416,6.1416,6.1416,6.1416,6.1416,6.1416,6.1416,6.1416,6.1416,6.0759,5.9865,5.9011,5.8198,5.7344,5.6489,5.6317,5.6287,5.6298,5.6338,0.0,5.6302,5.6314,5.6136,5.5631,5.5242,5.4815,5.431,5.3925,5.3497,5.2992,5.2953,5.2759,5.229,5.2251,0.0,0.0,0.0,5.1566,5.1747,5.245,0.0,0.0,0.0,0.0,0.0,0.0,0.0,0.0,5.792,5.8078,0.0,0.0,0.0,0.0,0.0,0.0,0.0,0.0,0.0,0.0,0.0,0.0,0.0,0.0,0.0,0.0,6.0645,6.1795,6.1785,6.1473,6.1205,6.1103,6.116,6.1232,6.1252,6.1237,6.1546,6.2334,6.2411,6.2725,6.3426,0.0,0.0,0.0,0.0,6.3987,6.3987,6.3987,6.3991,6.3998,6.3998,6.4005,6.3973,6.3196,6.2843,6.2804,6.2027,6.1674,6.1648,6.1648,6.1604,6.1481,6.1441,6.1426,6.1426,6.1426,6.1423,6.1416,6.1394,0.0,0.0,6.1398,6.1401,6.1401,6.1401,6.1401,6.1401,6.1401,6.1401,6.1401,6.1401,6.0822,6.0048,5.9151,5.8338,5.7525,5.6666,5.6361,5.6306,5.6329,5.6366,5.6375,5.6329,5.6317,5.6317,5.6317,5.5653,5.5148,5.5148,5.449,5.3988,5.3871,0.0,0.0,5.3704,5.3704,5.3701,5.3695,5.3817,5.3577,5.2977,5.4536,5.5456,5.5539,5.7174,5.8769,6.0285,6.0479,6.1337,6.2703,5.8826,5.8726,0.0,0.0,0.0,0.0,0.0,0.0,0.0,0.0,0.0,0.0,0.0,0.0,0.0,0.0,0.0,6.0953,6.2518,6.369,6.3682,6.3577,6.3207,6.2455,6.2814,6.3218,6.3363,6.324,6.33,6.3639,6.3647,6.3724,6.3879,6.3903,6.3953,6.3953,6.3976,6.3987,6.3987,6.3987,6.4016,6.3994,0.0,0.0,6.4076,6.392,6.3842,6.3803,6.3647,6.3185,6.2533,6.2533,6.2148,6.1483,6.1492,6.1463,6.1463,6.1463,6.1467,6.1394,6.1465,6.1468,6.1472,6.1484,6.1497,6.1497,6.1497,6.1497,0.0,6.1497,6.1497,6.1497,6.1497,6.1344,6.1032,6.0215,5.9358,5.8503,5.7607,5.6874,5.6372,5.6363,5.6377,5.6386,5.6377,5.6368,5.6361,5.6361,5.6244,5.6127,5.6127,5.5971,5.5623,5.4883,5.4842,5.4544,5.3841,5.3763,5.3744,5.3698,5.4402,5.5076,5.5634,5.665,5.7511,5.8226,5.9274,5.9973,6.0285,6.1651,6.2469,6.2781,6.1946,6.2284,0.0,0.0,0.0,0.0,0.0,0.0,0.0,0.0,0.0,0.0,0.0,5.9846,6.0275,0.0,6.2445,6.2874,6.3692,6.4232,6.4214,6.4544,6.4464,6.3522,6.3703,6.3926,6.4052,6.3975,6.4121,6.4678,6.5109,6.5537,6.5965,6.6004,6.6004,6.6004,6.5573,6.5339,6.5339,6.5339,6.5355,6.5345,6.5345,6.5361,6.539,6.4963,6.4768,6.473,6.4301,6.3886,6.3481,6.3072,6.2377,6.159,6.1547,6.1512,6.1489,6.1489,6.147,6.1451,6.1471,6.1512,6.1495,6.1481,6.149,6.149,6.149,6.149,6.149,6.149,6.149,6.149,6.149,6.149,6.1295,6.0477,5.9973,5.9427,5.8533,5.8046,5.7742,5.7721,5.7398,5.7106,5.7086,5.6787,5.6473,5.6396,5.6388,5.6388,5.6388,5.6388,5.6232,5.5805,5.5745,5.5573,5.5144,5.5105,5.5251,5.5693,5.6145,5.6803,5.7708,5.8566,5.9239,5.9687,6.0543,6.101,6.101,6.2299,6.312,6.3549,6.4017,6.4384,0.0,0.0,0.0,0.0,0.0,0.0,0.0,0.0,6.0196,6.1408,6.2657,6.3555,6.3711,6.4454,6.504,6.504,6.5196,6.5266,6.5203,6.5819,6.5925,6.4998,6.4702,6.4652,6.4846,6.4846,6.5197,6.6054,6.6795,6.7496,6.8195,6.8234,6.8234,6.8234,6.753,6.7099,6.6943,6.6943,6.687,6.6724,6.6724,6.6732,6.6702,6.6005,6.5654,6.5615,6.4757,6.4427,6.4419,6.3585,6.2852,6.2186,6.2164,6.2097,6.1987,6.1664,6.15,6.1493,6.1511,6.1513,6.1506,6.1515,6.1556,6.1556,6.1556,6.1556,6.1556,6.1556,6.1556,6.1556,6.1556,6.1556,6.1361,6.074,6.0428,6.0116,5.9418,5.9171,5.9064,5.9036,5.849,5.8045,5.8061,5.7529,5.6943,5.6501,5.6451,5.6451,5.6451,5.6451,5.6451,5.6451,5.6445,5.64,5.64,5.655,5.6942,5.766,5.7888,5.8371,5.9306,5.997,6.041,6.0666,6.1328,6.1797,6.1953,6.2813,6.3712,6.4571,6.5429,6.5793,5.5106,5.5729,5.6784,5.8391,5.8827,5.965,0.0,0.0,6.3243,6.5586,6.5663,6.5546,6.625,6.7107,6.7654,6.7654,6.8318,6.8825,6.8822,6.8899,6.8624,6.7762,6.6921,6.6712,6.7494,6.7574,6.7884,6.8702,6.8858,6.8975,6.9053,6.9053,6.9053,6.9053,6.8975,6.8585,6.7845,6.7845,6.7516,6.6775,6.6775,6.6796,6.6787,6.6709,6.6631,6.6592,6.5771,6.5421,6.5386,6.4492,6.4103,6.4025,6.3983,6.3979,6.3779,6.2189,6.1567,6.1502,6.1652,6.1654,6.1595,6.1663,6.1671,6.1671,6.1671,6.1671,6.1671,6.1671,6.1671,6.1671,6.1671,6.1671,6.1632,6.1554,6.097,6.0345,6.0268,5.9645,5.9099,5.9096,5.9022,5.8946,5.8944,5.8867,5.832,5.6793,5.6597,5.6597,5.6597,5.6597,5.6597,5.6597,5.6535,5.6477,5.6477,5.7149,5.7628,5.7767,5.8528,5.9346,6.0232,6.035,6.0741,6.1524,6.1641,6.207,6.2852,6.3712,6.461,6.5468,6.6288,6.6675,5.7855,5.8909,5.9845,0.0,6.1759,6.2657,6.4609,6.4765,6.5077,6.7146,6.7303,6.7303,6.8163,6.8591,6.902,0.0,6.9489,6.9567,7.0074,6.9294,6.8513,6.8121,6.7748,6.7651,6.8002,6.8511,6.894,6.9291,7.0267,7.0618,7.0111,7.054,7.0618,7.0072,6.9564,6.9135,6.8825,6.8825,6.8637,6.8299,6.7792,6.7563,6.7537,6.7031,6.6796,6.6796,6.6445,6.6014,6.5585,6.5194,6.4766,6.4298,6.4298,6.4298,6.414,6.288,6.2397,6.2311,6.1868,6.1672,6.1666,6.1676,6.1719,6.1719,6.1719,6.1719,6.1719,6.1719,6.1719,6.1719,6.1719,6.1719,6.1719,6.1719,6.1407,6.1172,6.1172,6.086,6.0626,6.0626,6.0196,5.9846,5.9846,5.9455,5.8869,5.8166,5.8049,5.8049,5.8049,5.8049,5.8049,5.8049,5.804,5.7994,5.7994,5.8334,5.8729,5.9299,5.9643,6.0266,6.1133,6.1172,6.1563,6.2422,6.2461,6.2891,6.3751,6.4649,6.5234,6.5624,6.6445,6.6808,5.9885,0.0,0.0,6.2852,6.3828,6.4883,6.5741,6.5936,6.6405,6.8122,6.8279,6.8435,6.9567,6.9957,7.0387,7.1283,7.1089,7.0933,7.1361,7.0112,6.9098,6.8863,6.8824,6.8824,6.8824,6.9372,6.9957,7.0426,7.1636,7.2182,7.1752,7.2339,7.23,7.1439,7.0816,7.023,6.9762,6.9762,6.9645,6.9373,6.8747,6.8318,6.8082,6.7185,6.6796,6.6796,6.6796,6.6484,6.5936,6.5936,6.5547,6.5001,6.5001,6.5001,6.4883,6.4023,6.3399,6.2891,6.2265,6.1914,6.1719,6.1719,6.1719,6.1719,6.1719,6.1719,6.1719,6.1719,6.1875,6.1992,6.1758,6.207,6.2304,6.1797,6.1875,6.1992,6.1758,6.1719,6.1719,6.1719,6.1172,6.0744,6.0744,6.0235,5.9806,5.9806,5.9806,5.965,5.9142,5.9103,5.9103,5.9103,5.9103,5.9103,5.9103,5.9338,5.9729,6.0354,6.0627,6.1134,6.2031,6.207,6.2461,6.3321,6.336,6.379,6.4649,6.5283,6.5717,6.5951,6.6546,6.6791,0.0,0.0,6.2969,6.3008,6.4297,6.578,6.6562,6.6757,6.7265,6.8983,6.8708,6.8629,7.0346,7.1363,7.2221,7.3079,7.3861,7.4095,7.3313,7.2456,7.1558,7.0737,7.0619,7.0619,7.0619,7.0659,7.1361,7.304,7.3235,7.3586,7.433,7.4408,7.4056,7.3235,7.3196,7.2376,7.0698,7.0659,7.023,6.9412,6.9373,6.8903,6.8082,6.7185,6.6796,6.6796,6.6796,6.6796,6.6757,6.6757,6.6757,6.6718,6.6718,6.6718,6.664,6.5819,6.4453,6.3008,6.2969,6.2422,6.1719,6.1719,6.1719,6.1719,6.1719,6.1719,6.1719,6.1719,6.2304,6.2774,6.1914,6.2969,6.379,6.2109,6.2343,6.2735,6.1875,6.1719,6.1719,6.1719,6.168,6.1641,6.1641,6.1641,6.1602,6.1602,6.1602,6.1016,5.9338,5.9103,5.9103,5.9103,5.9103,5.9103,5.9103,5.9885,6.0354,6.0393,6.1172,6.2031,6.293,6.2969,6.336,6.4259,6.4259,6.4688,6.5546,6.5537,6.5935,6.6755,6.6794,6.6787,0.0,0.0,6.3868,6.3868,6.5157,6.6484,6.6757,6.6796,6.7148,6.8318,6.7849,6.7771,6.9528,7.0074,7.0933,7.2962,7.3547,7.4017,7.4837,7.4212,7.3158,7.1714,7.2534,0.0,7.0854,7.1206,0.0,7.3196,7.3782,7.4212,7.4486,7.5034,7.4954,7.4134,7.3586,7.3001,7.2415,7.1831,7.1402,7.1128,7.0543,6.9801,6.8942,6.867,6.82,6.7654,6.7654,6.7342,6.6796,6.6796,6.6796,6.6796,6.6796,6.6796,6.6757,6.6484,6.5702,6.4648,6.4064,6.3673,6.3438,6.3438,6.3047,6.2579,6.2579,6.2148,6.1836,6.2383,6.2774,6.3086,6.336,6.3868,6.4142,6.3556,6.3634,6.3634,6.2735,6.2579,6.2383,6.1797,6.1719,6.1719,6.1719,6.1719,6.1719,6.1719,6.1719,6.1485,6.0899,6.0821,6.0821,6.0821,6.0821,6.0821,6.0821,6.1094,6.1524,6.2071,6.2384,6.2969,6.3829,6.3868,6.4231,6.5069,6.5108,6.5543,6.6406,6.6366,6.652,6.6794,6.6789,6.6777,6.0861,6.2541,6.4298,6.4298,6.5547,6.6796,6.6796,6.6796,6.6874,6.7146,6.6756,6.6796,6.8202,6.8983,7.027,7.2884,7.4055,7.5032,7.6127,7.5774,7.4915,7.3511,7.4017,7.3861,0.0,0.0,0.0,7.3703,7.4486,7.511,7.5423,7.5969,7.5853,7.4993,7.4447,7.39,7.3313,7.2729,7.23,7.1987,7.1128,7.0426,6.984,6.9528,6.8903,6.8082,6.8082,6.7615,6.6796,6.6796,6.6796,6.6796,6.6796,6.6796,6.6796,6.6796,6.6484,6.5897,6.5079,6.4571,6.4298,6.4298,6.3907,6.3477,6.3477,6.3086,6.2735,6.3321,6.3672,6.3984,6.4259,6.4727,6.504,6.4454,6.4532,6.4532,6.3634,6.3449,6.3261,6.2714,6.2605,6.2571,6.2571,6.2571,6.2571,6.2571,6.2571,6.2487,6.2191,6.2148,6.2148,6.2148,6.1875,6.1836,6.2148,6.2148,6.254,6.3399,6.3477,6.3835,6.4706,6.4746,6.5108,6.5937,6.5976,6.6248,6.6786,6.6777,6.6928,6.72,6.6915,6.7088,6.1723,6.3014,6.4343,6.4343,6.5592,6.6802,6.6724,6.6722,6.6486,6.5704,6.5547,6.578,6.6601,0.0,7.027,7.2884,7.5421,7.714,7.7218,7.7257,7.6945,0.0,0.0,0.0,0.0,0.0,0.0,7.4564,0.0,7.6166,7.7062,7.7101,7.6711,7.5893,7.5814,7.5032,7.343,7.3352,7.2884,7.2065,7.1167,7.0776,7.0737,6.9918,6.9059,6.8238,6.8199,6.7654,6.6874,6.6835,6.6796,6.6796,6.6796,6.6796,6.6796,6.6796,6.6796,6.6679,6.5936,6.5116,6.4415,6.4415,6.4415,6.4376,6.4376,6.4337,6.4298,6.4337,6.496,6.5429,6.4649,6.5625,6.6406,6.4805,6.5041,6.5432,6.4536,6.4324,6.4256,6.4217,6.4216,6.4206,6.4206,6.4206,6.4206,6.4206,6.4245,6.3982,6.3179,6.3053,6.3053,6.3051,6.2309,6.2154,6.2973,6.3052,6.3445,6.4304,6.4343,6.4708,6.5545,6.5584,6.5937,6.6785,6.6785,6.6784,6.6782,6.6712,6.7158,6.7975,6.7094,6.7647,6.1836,6.3358,6.5194,6.5194,6.6015,6.664,6.5976,6.5819,6.5579,6.4718,6.4588,6.4883,6.5741,6.781,0.0,7.2884,7.5421,0.0,7.8858,7.96,0.0,7.7923,0.0,7.7609,7.5658,7.6047,0.0,0.0,7.5658,7.6166,7.7062,7.7101,7.6984,7.6789,7.6127,7.558,7.519,7.3939,7.3196,7.2962,7.2104,7.1675,7.1675,7.1441,7.0855,6.9995,6.9333,6.8552,6.7732,6.707,6.6796,6.6796,6.6796,6.6796,6.6796,6.6796,6.6796,6.6757,6.6562,6.6367,6.6172,6.6172,6.5742,6.5273,6.5273,6.4805,6.4454,6.5077,6.5429,6.5702,6.6055,6.6484,6.6679,6.625,6.6347,6.6242,6.5383,6.5195,6.4995,6.433,6.4209,6.4206,6.4206,6.4206,6.4206,6.4206,6.4753,6.4875,6.3982,6.3905,6.3906,6.3901,6.3711,6.3633,6.3861,6.3906,6.4257,6.5155,6.5194,6.5584,6.6441,6.648,6.655,6.6713,6.6712,6.6733,6.6726,6.6709,6.7168,6.7986,6.7109,6.7647,6.2764,6.409,6.5496,6.5496,6.5888,6.6084,6.5615,6.5192,6.4687,6.3828,6.3944,0.0,6.4437,6.6865,0.0,0.0,0.0,0.0,7.9445,8.0771,8.1083,0.0,7.9951,0.0,7.7142,7.7376,7.7296,0.0,7.6361,7.6594,7.7062,7.7101,7.7101,7.7101,7.6633,7.6205,7.5814,7.4134,7.3313,7.3274,7.2417,7.1987,7.1987,7.1987,7.1519,7.0659,0.0,6.9489,6.8591,6.7732,6.7381,6.7342,6.6952,6.6796,6.6796,6.6796,6.6796,6.6796,6.6796,6.6796,6.6796,6.6796,6.6484,6.6131,6.6131,6.5781,6.5508,6.5975,6.6143,6.6232,6.6661,6.6787,6.6792,6.6792,6.6796,6.6679,6.6171,6.6044,6.5864,6.5375,6.5292,6.5292,6.5292,6.5292,6.5292,6.5292,6.5723,6.584,6.537,6.4973,6.4758,6.4765,6.4447,6.4367,6.4726,6.4759,6.5144,6.6005,6.6083,6.6274,6.673,6.6769,6.6749,6.6695,6.6695,6.6716,6.6709,6.6709,6.7138,6.7995,6.7489,6.8193,6.4118,6.5017,6.5643,6.5643,6.5566,6.545,6.5333,6.4634,6.3777,6.2917,0.0,6.3823,6.3125,6.578,6.8749,7.0716,0.0,7.7798,7.976,8.1356,8.202,8.1278,8.1085,8.0421,7.8899,7.8547,7.8079,7.7335,7.7257,7.7218,7.7101,7.7101,7.7101,7.7101,7.7218,7.6867,7.5971,7.4408,7.3586,7.343,7.2573,7.2104,7.1987,7.1987,7.1597,7.0854,7.0737,7.027,6.9489,6.863,6.82,6.8004,6.7264,6.6913,6.6796,6.6796,6.6796,6.6796,6.6802,6.6803,6.6802,6.6798,6.6796,6.6796,6.6796,6.6796,6.6798,6.6802,6.6783,6.6794,6.6796,6.6796,6.6786,6.6786,6.6784,6.6782,6.6782,6.6756,6.6707,6.6685,6.6709,6.6709,6.6709,6.6709,6.6709,6.6709,6.6709,6.6709,6.6709,6.6107,6.5644,6.5648,6.4979,6.4822,6.5609,6.5645,6.5995,6.6737,6.6776,6.6763,6.6686,6.6684,6.6697,6.6712,6.6709,6.6709,6.6709,6.6709,6.7216,6.8151,6.8034,6.8972,6.4969,6.5812,6.6475,6.6475,6.5931,6.523,6.453,6.371,0.0,0.0,6.2517,6.3078,6.2925,6.5742,6.9138,7.2257,0.0,0.0,0.0,0.0,8.2253,0.0,0.0,0.0,0.0,0.0,0.0,0.0,7.8157,7.7843,7.714,7.7101,7.7101,7.7101,7.7804,7.7766,7.6867,7.5853,7.4993,7.429,7.3469,7.269,7.1987,7.1987,7.1909,7.1714,7.101,0.0,7.0424,6.9528,6.8747,6.8082,6.7927,6.742,6.6796,6.6796,6.6796,6.6801,6.6785,6.6791,6.6788,6.6806,6.6796,6.6796,6.6796,6.6796,6.6802,6.6787,6.6792,6.6796,6.6794,6.6788,6.6786,6.6786,6.6769,6.6706,6.6706,6.6703,6.6688,6.6712,6.6709,6.6709,6.6709,6.6709,6.6709,6.6709,6.6709,6.6709,6.6709,6.6578,6.6498,6.6507,6.6352,6.6342,6.6469,6.6508,6.6553,6.6711,6.6711,6.6704,6.6693,6.6693,6.6685,6.6709,6.6709,6.6709,6.6709,6.6709,6.753,6.9053,6.8346,6.9281,6.5745,6.6398,6.6709,6.6709,6.5696,6.4605,6.4216,0.0,0.0,0.0,6.2304,6.2758,6.2311,6.5048,0.0,0.0,0.0,0.0,0.0,0.0,0.0,0.0,0.0,0.0,0.0,0.0,7.9562,7.9092,7.8664,7.8235,7.7804,7.7765,7.7765,7.7765,7.7726,7.7531,7.7101,7.6244,7.5346,7.4486,7.3664,7.2845,7.1987,7.1987,7.1987,7.1987,7.1558,7.1363,7.1325,7.0446,6.9554,6.8734,6.8277,6.7576,6.6795,6.6795,6.6795,6.6796,6.6797,6.6796,6.6796,6.6796,6.6795,6.6795,6.6795,6.6795,6.6796,6.6796,6.6753,6.6744,6.6769,6.6748,6.6767,6.6767,6.6709,6.6687,6.6687,6.6697,6.6709,6.6709,6.6709,6.6709,6.6709,6.6709,6.6709,6.6709,6.6709,6.6709,6.6709,6.6709,6.6685,6.6683,6.6693,6.6685,6.6683,6.6693,6.6709,6.6709,6.6709,6.6709,6.6709,6.6709,6.6709,6.6709,6.6709,6.6904,6.7372,6.7372,6.8037,6.9286,6.9323,7.0024,6.6242,6.6709,6.6709,6.6709,6.5385,6.4096,6.4086,6.2808,0.0,0.0,6.2146,6.2483,6.1987,0.0,6.6697,0.0,0.0,0.0,0.0,0.0,0.0,0.0,0.0,0.0,0.0,0.0,0.0,8.0039,7.918,7.8515,7.8157,7.8469,7.8508,7.8118,7.7648,7.7296,7.7101,7.6438,7.5541,7.4486,7.386,7.3002,7.1987,7.1987,7.199,7.1993,7.1989,7.1997,7.1895,7.1207,7.039,6.953,6.8658,6.7789,6.7009,6.6814,6.6737,6.6736,6.6729,6.6727,6.6724,6.6755,6.677,6.6786,6.6786,6.6786,6.6785,6.678,6.6721,6.6693,6.672,6.6716,6.6709,6.6709,6.6709,6.6709,6.6709,6.6709,6.6709,6.6709,6.6709,6.6709,6.6709,6.6709,6.6709,6.6709,6.6709,6.6709,6.6709,6.6709,6.6704,6.6694,6.6702,6.6709,6.6709,6.6709,6.6709,6.6709,6.6709,6.6709,6.6709,6.6709,6.6709,6.6709,6.6865,6.7328,6.7976,6.8132,6.8678,6.954,7.0227,7.0656,6.6242,6.6709,6.6709,6.6709,6.5385,6.4086,6.4034,0.0,0.0,6.1504,6.1611,6.1921,6.2669,6.3692,6.572,0.0,0.0,0.0,0.0,0.0,0.0,0.0,0.0,0.0,0.0,0.0,8.0952,8.0884,8.0063,7.8884,7.7298,7.8702,7.8858,7.7257,7.7921,7.7882,7.7101,7.7023,7.6164,7.4486,7.4447,7.3549,7.1987,7.1987,7.1994,7.2004,7.1993,7.1943,0.0,7.1716,7.1153,7.0231,6.933,6.8468,6.7606,6.6832,6.6519,6.6512,6.653,6.6543,6.653,6.6517,6.6633,6.6786,6.6786,6.6786,6.6782,6.6713,6.6699,6.6683,6.67,6.6714,6.6709,6.6709,6.6709,6.6709,6.6709,6.6709,6.6709,6.6709,6.6709,6.6709,6.6709,6.6709,6.6709,6.6709,6.6709,6.6709,6.6709,6.6709,6.6691,6.6639,6.6641,6.6709,6.6709,6.6709,6.6709,6.6709,6.6709,6.6709,6.6709,6.6709,6.6709,6.6709,6.7489,6.789,6.7908,6.8647,6.9468,7.0285,7.0335,7.0766,6.5561,6.6229,6.6607,6.6609,6.5307,6.3985,6.3958,0.0,6.146,6.1431,6.1447,6.1738,6.2552,6.3444,6.5066,0.0,6.9465,7.1474,7.5799,0.0,0.0,0.0,0.0,0.0,0.0,0.0,8.1351,8.03,8.0378,7.9478,7.7204,7.8257,7.8609,7.7906,7.7712,7.7438,7.7087,7.7087,7.6267,7.4548,7.4548,7.365,7.2009,7.2556,7.2519,7.2016,7.2458,7.2343,0.0,7.1698,7.1133,7.0261,6.9386,6.8504,6.7642,6.6792,6.6483,6.6516,6.6517,6.65,6.6493,6.6485,6.653,6.6631,6.6631,6.6631,6.6624,6.6591,6.6579,6.657,6.6569,6.6598,6.6598,6.6598,6.6598,6.6598,6.6598,6.6598,6.6598,6.6598,6.6598,6.6598,6.6598,6.6598,6.6598,6.6598,6.6598,6.6598,6.6598,6.6598,6.6588,6.656,6.6581,6.6621,6.6621,6.6585,6.6617,6.6657,6.6581,6.6789,6.7291,6.7291,6.7567,6.8072,6.8423,6.8836,6.9352,6.9663,7.0285,7.1101,7.1109,7.1268,6.5088,6.5904,6.6553,6.6545,6.5231,6.3902,0.0,6.257,6.1381,6.1355,6.1564,6.2006,6.2818,6.3711,6.5032,0.0,6.8207,6.9756,7.3307,7.4004,0.0,0.0,0.0,7.988,0.0,8.1516,8.1009,7.9796,8.0032,7.9447,7.7611,7.7845,7.8039,7.8035,7.7411,7.7098,7.7098,7.6864,7.6005,7.4598,7.4324,7.3426,7.2019,7.2644,7.2572,7.1952,7.2496,7.2319,0.0,7.1611,7.1205,7.0522,6.9649,6.8795,6.7937,6.7088,6.6627,6.6394,6.6394,6.6394,6.6394,6.6394,6.6394,6.6394,6.6394,6.6469,6.6508,6.6508,6.6508,6.6508,6.6508,6.6508,6.6508,6.6508,6.6508,6.6508,6.6508,6.6508,6.6508,6.6508,6.6508,6.6508,6.6508,6.6508,6.6508,6.6508,6.6508,6.6508,6.6508,6.6508,6.6497,6.6435,6.6488,6.6528,6.6588,6.6733,6.6881,6.6934,6.7121,6.7476,6.8055,6.8093,6.8365,6.8991,6.9263,6.9678,7.0274,7.0546,7.0973,7.156,7.1534,7.152,6.5001,6.5871,6.6565,6.6527,6.5188,6.3887,0.0,6.2572,6.1363,6.124,6.1947,6.2857,6.3711,6.4601,6.5767,6.7519,6.9197,7.0883,7.2678,7.5063,0.0,0.0,0.0,7.8701,7.9647,7.9726,7.9726,7.9685,7.8984,0.0,7.8476,7.7695,7.7186,7.7138,7.7098,7.7098,7.7098,7.6317,7.5457,7.4598,7.3739,7.284,7.2019,7.2019,7.1953,7.1812,7.1822,7.1708,0.0,7.149,7.1417,7.1186,7.0335,6.9517,6.87,6.781,6.692,6.619,6.619,6.619,6.619,6.619,6.619,6.619,6.619,6.6329,6.6508,6.6508,6.6508,6.6508,6.6508,6.6508,6.6508,6.6508,6.6508,6.6508,6.6508,6.6508,6.6508,6.6508,6.6508,6.6508,6.6508,6.6508,6.6508,6.6508,6.6508,6.6508,6.6508,6.6508,6.6439,6.6316,6.6308,6.6342,6.6501,6.7243,6.7705,6.7705,6.8486,6.8991,6.8991,6.8991,6.8991,6.8991,6.9845,7.027,7.0205,7.1063,7.1494,7.1489,7.135,7.1297,6.3312,6.4004,6.4602,6.4631,6.3779,6.2865,6.2838,6.2464,6.2051,6.202,6.274,6.3614,6.4505,6.4893,6.5978,6.8845,6.9736,0.0,0.0,0.0,0.0,0.0,7.9199,7.9939,0.0,0.0,7.9453,7.8906,7.8633,7.8242,7.7656,7.6797,7.6289,7.6288,7.6288,7.5975,7.5389,7.5155,7.4569,7.371,7.3355,7.2722,7.1862,7.2418,7.2342,7.1759,7.2243,7.2111,7.1473,7.1397,7.1337,7.1219,7.033,6.9512,6.8772,6.8501,6.7462,6.6301,6.6882,6.6688,6.6185,6.6185,6.6185,6.6185,6.6185,6.6235,6.6283,6.6283,6.6283,6.6283,6.6283,6.6283,6.6283,6.6283,6.6283,6.6283,6.6283,6.6283,6.6283,6.6283,6.6283,6.6283,6.6283,6.6283,6.6283,6.6283,6.6283,6.6283,6.6283,6.6283,6.6273,6.624,6.624,6.6278,6.6377,6.7095,6.759,6.7614,6.8408,6.9111,6.9653,6.9692,7.0234,7.143,7.1164,7.1265,7.1843,7.1539,7.1345,7.1345,7.1313,7.1297,0.0,6.3137,6.3742,6.3765,6.3061,6.239,6.239,6.239,6.239,6.239,6.3362,6.4372,6.4914,6.5262,6.6229,6.8661,6.9319,0.0,0.0,0.0,0.0,7.7222,0.0,0.0,0.0,7.841,7.8418,7.7961,7.7923,7.7731,7.7226,7.6367,7.5742,7.543,7.539,7.5156,7.4609,7.4258,7.3828,7.3281,7.2831,7.234,7.183,7.2298,7.2184,7.1664,7.2116,7.1957,0.0,7.1699,7.1601,7.1297,7.1065,7.0286,6.9203,6.8926,6.7882,6.6727,6.6959,6.665,6.6185,6.6185,6.6185,6.6185,6.6185,6.6185,6.6185,6.6185,6.6185,6.6185,6.6185,6.6185,6.6185,6.6185,6.6185,6.6185,6.6185,6.6185,6.6185,6.6185,6.6185,6.6185,6.6185,6.6185,6.6185,6.6185,6.6185,6.6185,6.6185,6.6185,6.6185,6.6185,6.6185,6.637,6.6704,6.7498,6.7991,6.806,6.9123,6.9976,7.0484,7.0794,7.1485,7.2568,7.2375,7.2375,7.2607,7.1717,7.1297,7.1297,7.1297,7.1297,0.0,6.2933,6.3598,6.3545,6.2897,6.2312,6.2312,6.2351,0.0,6.2467,6.3826,6.503,6.5146,6.5721,6.6533,6.7539,6.8424,0.0,0.0,7.369,0.0,0.0,7.7524,0.0,7.5744,7.6331,7.6851,7.6978,7.6984,7.7045,7.7109,7.6289,7.539,7.4491,7.4413,7.4414,7.4414,7.3593,7.3202,7.3164,7.2238,7.1779,7.1777,7.169,7.1608,0.0,7.1542,7.1479,7.1374,7.222,7.2104,7.1374,7.2181,7.1485,6.9904,6.9164,6.8308,6.7384,6.6572,6.6263,6.6224,6.6263,6.6263,6.6224,6.6263,6.6263,6.6185,6.6185,6.6185,6.6185,6.6185,6.6185,6.6185,6.6185,6.6185,6.6185,6.6185,6.6185,6.6185,6.6185,6.6185,6.6185,6.6185,6.6185,6.6185,6.6185,6.6185,6.6224,6.6263,6.6301,6.6301,6.6379,6.634,6.6611,6.7423,6.823,6.8772,6.8888,7.0363,7.1258,7.1297,7.2065,7.2529,7.2607,7.3419,7.338,7.2491,7.1678,7.1297,7.1297,7.1297,7.1297,6.1448,0.0,6.1726,6.1703,6.1543,6.1427,0.0,6.1926,6.2583,6.325,0.0,6.5378,6.6688,6.6533,6.692,6.9053,0.0,0.0,7.3032,0.0,0.0,7.7553,7.7809,7.7575,7.6598,7.6685,7.6851,7.6978,7.6984,7.6718,7.6108,7.5309,7.4444,7.3421,7.2767,7.2527,7.2617,7.2259,7.2117,7.2162,7.1747,7.1556,7.1552,7.146,7.1383,7.1371,7.2068,7.1964,7.1374,7.222,7.2104,7.1336,7.1529,7.0949,6.9982,6.9788,6.8777,6.7462,6.7268,6.6766,6.6301,6.6998,6.6727,6.6301,6.6998,6.6727,6.6185,6.6185,6.6185,6.6185,6.6185,6.6185,6.6185,6.6185,6.6185,6.6185,6.6185,6.6185,6.6185,6.6185,6.6185,6.6185,6.6185,6.6185,6.6185,6.6185,6.6185,6.6456,6.7114,6.7191,6.7462,6.8114,6.7578,6.7268,6.7501,6.7694,6.8352,6.9633,7.0098,7.0601,7.1258,7.1485,7.191,7.2607,7.28,7.2491,7.1601,7.1407,7.1297,7.1297,7.1297,7.1297,6.1244,6.1737,6.2278,6.2278,6.2278,6.2278,6.2278,0.0,0.0,0.0,0.0,0.0,0.0,0.0,0.0,0.0,7.0717,0.0,0.0,0.0,7.7262,7.7736,7.7829,7.7487,0.0,7.6631,7.6665,7.6807,7.6468,7.6027,7.5647,7.4517,7.3605,7.3036,7.2139,7.1725,7.1877,7.1757,7.1731,7.1741,7.1562,7.1481,7.1516,7.1358,7.1529,7.191,7.2413,7.2568,7.2529,7.2993,7.2684,7.191,7.191,7.1369,7.0484,6.9744,6.8893,6.796,6.7191,6.6572,6.6263,6.6766,6.6572,6.6301,6.6766,6.6572,6.6185,6.6185,6.6185,6.6185,6.6185,6.6185,6.6185,6.6185,6.6185,6.6185,6.6185,6.6185,6.6185,6.6185,6.6185,6.6185,6.6185,6.6185,6.6185,6.6185,6.6185,6.6379,6.6843,6.7268,6.7694,6.8153,6.7771,6.781,6.8584,6.7926,6.8042,6.9357,7.0556,7.1219,7.1297,7.2065,7.2723,7.3187,7.28,7.2375,7.191,7.1485,7.1297,7.1297,7.1297,7.1297,6.1395,6.2705,6.3985,6.3598,6.3715,6.3869,6.3715,0.0,0.0,0.0,0.0,0.0,0.0,6.7191,0.0,0.0,0.0,0.0,7.5978,7.6287,7.6519,7.7409,7.7287,0.0,7.6249,7.6094,7.6073,7.6203,7.5521,7.5125,7.5102,7.3762,7.2938,7.2741,7.1937,7.154,7.1644,7.1644,7.1653,7.1671,7.1525,7.1482,7.1474,7.1497,7.191,7.2607,0.0,0.0,7.3922,7.4038,7.3496,7.2607,7.2607,7.2065,7.1098,6.9435,6.881,6.854,6.6804,6.6185,6.6224,6.6379,6.6301,6.6224,6.6379,6.6301,6.6185,6.6185,6.6185,6.6185,6.6185,6.6185,6.6185,6.6185,6.6185,6.6185,6.6185,6.6185,6.6185,6.6185,6.6185,6.6185,6.6185,6.6185,6.6185,6.6185,6.6185,6.6301,6.6572,6.723,6.781,6.8042,6.7965,6.8468,6.9865,6.8816,6.8352,6.8926,7.1021,7.191,7.1336,7.2723,7.3496,7.3496,7.2761,7.2413,7.2413,7.164,7.1297,7.1297,7.1297,7.1297,6.2116,6.4018,6.5296,6.3129,6.371,6.4604,6.3869,0.0,0.0,0.0,0.0,0.0,0.0,6.8501,6.9164,0.0,0.0,7.4193,0.0,0.0,7.5624,7.6519,0.0,7.4695,7.5231,7.4695,7.433,7.4464,7.4364,7.3949,7.3243,7.3091,7.2578,7.1605,7.1534,7.146,7.1358,7.1358,7.1406,7.1521,7.1373,7.1345,7.1345,7.2082,7.2452,7.2684,0.0,7.4419,7.396,7.4612,7.3999,7.2607,7.2607,7.2065,7.1098,6.9435,6.881,6.854,6.6804,6.6185,6.6301,6.7075,6.6804,6.634,6.7075,6.6804,6.6185,6.6185,6.6185,6.6185,6.6185,6.6185,6.6185,6.6185,6.6185,6.6185,6.6185,6.6185,6.6185,6.6185,6.6185,6.6185,6.6185,6.6185,6.6185,6.6185,6.6185,6.6727,6.8192,6.8501,6.9125,7.0556,7.0059,6.9711,6.9982,7.0446,7.044,6.9865,7.0175,7.0678,7.1297,7.1562,7.1678,7.1678,7.1562,7.1485,7.1485,7.1374,7.1297,7.1297,7.1297,7.1297,6.1625,6.3627,6.5257,6.4097,6.545,6.6959,6.6533,0.0,0.0,0.0,0.0,0.0,0.0,0.0,7.0866,7.2993,0.0,7.4806,7.5585,7.496,7.4618,0.0,0.0,7.4038,7.4419,7.411,7.3928,7.3999,7.3544,7.3118,7.2691,7.2314,7.1851,7.1302,7.1358,7.1358,7.1297,7.1297,7.1345,7.1407,7.181,7.1756,7.133,7.2684,7.3303,7.338,0.0,7.5154,7.5237,7.5154,7.438,7.3264,7.2761,7.2065,7.1098,6.9435,6.8501,6.7926,6.665,6.6185,6.6263,6.6688,6.6533,6.6263,6.6688,6.6533,6.6185,6.6185,6.6185,6.6185,6.6185,6.6185,6.6185,6.6185,6.6185,6.6185,6.6185,6.6185,6.6185,6.6185,6.6185,6.6185,6.6185,6.6185,6.6185,6.6185,6.6185,6.665,6.7921,6.8893,6.9744,7.0523,7.1065,7.1219,7.0755,7.1065,7.1717,7.2684,7.191,7.1794,7.2684,7.2258,7.1794,7.1297,7.1297,7.1297,7.1297,7.1297,7.1523,7.1988,7.1529,7.1562,6.1369,6.3013,6.472,6.4952,0.0,6.8346,6.8932,6.7733,0.0,0.0,0.0,0.0,0.0,7.044,0.0,7.4458,7.4806,7.4883,7.5076,7.4226,7.369,7.3883,7.3535,7.338,7.3574,7.3419,7.3303,7.3303,7.2684,7.2297,7.2297,7.1485,7.1103,7.1297,7.1103,7.1103,7.1297,7.1297,7.1297,7.1297,7.2181,7.2258,7.1645,7.3187,7.3999,7.4231,7.4844,7.5463,7.6049,7.5386,7.4496,7.3535,7.2877,7.1833,7.0556,6.9275,6.8114,6.7114,6.6417,6.6185,6.6185,6.6185,6.6185,6.6185,6.6185,6.6185,6.6185,6.6185,6.6185,6.6185,6.6185,6.6185,6.6185,6.6185,6.6185,6.6185,6.6185,6.6185,6.6185,6.6185,6.6185,6.6185,6.6185,6.6185,6.6185,6.6185,6.6379,6.6804,6.7694,6.9087,7.0175,7.0562,7.1601,7.2181,7.191,7.1717,7.2607,7.496,7.3535,7.2916,7.3574,7.2761,7.1988,7.1297,7.1297,7.1297,7.1297,7.1297,7.164,7.2297,7.1601,7.1756,6.2085,6.3013,6.3985,6.4798,6.5687,0.0,6.9363,6.8622,0.0,6.9479,0.0,0.0,0.0,7.133,7.2839,7.3844,7.3999,7.4264,7.4999,0.0,7.2993,7.3806,7.2452,7.1794,7.2607,7.1949,7.1485,7.1485,7.1446,7.1374,7.1374,7.0562,7.0446,7.1258,7.0523,7.0484,7.1297,7.1297,7.1297,7.1297,7.2181,7.2568,7.2529,7.3458,7.4303,7.5038,7.5076,7.5154,7.5193,7.5115,7.4148,7.2684,7.2607,7.1137,6.8965,6.8849,6.7733,6.6263,6.6224,6.6185,6.6185,6.6185,6.6185,6.6185,6.6185,6.6185,6.6185,6.6185,6.6185,6.6185,6.6185,6.6185,6.6185,6.6185,6.6185,6.6185,6.6185,6.6185,6.6185,6.6185,6.6185,6.6185,6.6185,6.6185,6.6185,6.6185,6.6882,6.7733,6.8578,6.9473,7.0639,7.222,7.1794,7.2026,7.3574,7.2955,7.3264,7.4999,7.3535,7.2645,7.2684,7.1872,7.1369,7.1297,7.1297,7.1297,7.1297,7.1297,7.1336,7.1374,7.1336,7.1756,6.15,6.3013,6.4604,6.4914,6.561,0.0,0.0,6.9943,7.0208,7.1369,7.1601,0.0,0.0,0.0,7.2723,7.3032,7.3535,7.3806,7.3574,7.2993,7.2529,7.2297,7.1678,7.1446,7.1756,7.1485,7.1297,7.1297,7.0794,7.0484,7.0484,6.9705,6.9396,6.9744,6.9435,6.9667,7.0484,7.0484,7.0755,7.1297,7.2181,7.2607,7.2645,7.3496,7.4077,7.4342,7.4342,7.4342,7.4342,7.4342,7.3651,7.2568,7.1988,7.0866,6.9473,6.8965,6.8037,6.692,6.6379,6.6185,6.6185,6.6185,6.6185,6.6185,6.6185,6.6185,6.6185,6.6185,6.6185,6.6185,6.6185,6.6185,6.6185,6.6185,6.6185,6.6185,6.6185,6.6185,6.6185,6.6185,6.665,6.6843,6.6301,6.665,6.6804,6.6263,6.6959,6.781,6.8694,6.9976,7.1065,7.1717,7.1485,7.2026,7.3767,7.3612,7.369,7.4303,7.3767,7.3187,7.2607,7.2297,7.1833,7.1297,7.1297,7.1297,7.1297,7.1297,7.1872,7.2877,7.1794,7.2336,6.1423,6.282,6.429,6.4875,0.0,0.0,6.9363,7.0484,7.1258,7.2375,7.2142,0.0,0.0,0.0,0.0,0.0,7.2684,7.2955,7.2645,7.2375,7.1949,7.1374,7.1297,7.1297,7.1297,7.1297,7.1297,7.1297,7.0484,6.9982,6.9982,6.897,6.8501,6.8772,6.854,6.8893,6.9982,6.9982,7.0291,7.091,7.1756,7.2336,7.2607,7.3226,7.3651,7.3883,7.3612,7.3496,7.3496,7.3496,7.2993,7.2104,7.1219,7.0368,6.9512,6.87,6.7849,6.6998,6.6417,6.6185,6.6185,6.6185,6.6185,6.6185,6.6185,6.6185,6.6185,6.6185,6.6185,6.6185,6.6185,6.6185,6.6185,6.6185,6.6185,6.6185,6.6185,6.6417,6.6533,6.6263,6.7114,6.7539,6.6417,6.692,6.7307,6.6688,6.7114,6.7926,6.9048,7.017,7.0987,7.1258,7.2026,7.2877,7.3806,7.3883,7.3883,7.3883,7.3651,7.3226,7.2607,7.2336,7.191,7.1297,7.1297,7.1297,7.1297,7.1297,7.191,7.3032,7.1872,7.2375,6.2158,6.239,6.2815,0.0,0.0,0.0,6.9247,7.0059,7.0562,7.2258,0.0,7.002,6.9982,0.0,0.0,7.1142,7.1297,7.1601,7.2452,7.1833,7.1297,7.1297,7.1297,7.1297,7.1297,7.1297,7.1297,7.1297,7.0484,6.9982,6.9982,6.839,6.7882,6.8733,6.7926,6.8274,6.9943,6.9982,6.9982,6.9982,7.0871,7.1756,7.2607,7.2607,7.3071,7.3844,7.2955,7.2607,7.2607,7.2607,7.2065,7.1219,7.033,6.9512,6.8694,6.781,6.6959,6.6185,6.6185,6.6185,6.6185,6.6185,6.6185,6.6185,6.6185,6.6185,6.6185,6.6185,6.6185,6.6185,6.6185,6.6185,6.6185,6.6185,6.6185,6.6185,6.6185,6.6882,6.723,6.6379,6.7617,6.823,6.6495,6.692,6.7501,6.7501,6.7501,6.8119,6.9788,6.9982,7.033,7.1181,7.3535,7.4728,7.396,7.3883,7.3883,7.3883,7.3071,7.2607,7.2607,7.1756,7.1297,7.1297,7.1297,7.1297,7.1297,7.1297,7.1297,7.1297,7.1297,7.1756,6.1577,6.2394,0.0,6.472,0.0,0.0,0.0,7.0484,0.0,0.0,0.0,7.0717,7.0098,0.0,0.0,7.0446,7.091,7.1374,7.164,7.1446,7.1297,7.1297,7.1297,7.1297,7.1297,7.0755,7.0407,7.0407,6.9048,6.8236,6.8236,6.7191,6.6688,6.6959,6.6727,6.7114,6.8236,6.8236,6.8545,6.9164,6.9435,7.0286,7.1717,7.2336,7.2723,7.2955,7.2723,7.2258,7.1678,7.1678,7.1523,7.1219,7.033,6.9512,6.8694,6.781,6.6959,6.6185,6.6185,6.6185,6.6185,6.6185,6.6185,6.6185,6.6185,6.6185,6.6185,6.6185,6.6185,6.6185,6.6185,6.6185,6.6185,6.6185,6.6185,6.6185,6.6185,6.6417,6.6495,6.6263,6.7114,6.7539,6.6379,6.692,6.7307,6.6688,6.7114,6.8119,6.9788,6.9512,6.9473,7.0291,7.1065,7.164,7.2026,7.2645,7.2993,7.2993,7.2723,7.2336,7.1717,7.1452,7.1297,7.1297,7.1297,7.1297,7.1297,7.1297,7.1601,7.2181,7.1606,7.2104,6.2897,6.3676,0.0,6.6539,6.7501,6.8468,7.0136,0.0,0.0,0.0,0.0,7.0717,7.0562,7.0678,0.0,7.0562,7.0949,7.1297,7.1297,7.1297,7.1297,7.1297,7.1297,7.1181,7.0833,7.033,6.9865,6.9551,6.8274,6.7501,6.7501,6.6688,6.6185,6.6185,6.6185,6.6611,6.7501,6.7501,6.7771,6.8269,6.8617,6.9164,6.9821,7.1369,7.2258,7.2607,7.2607,7.2104,7.1297,7.1297,7.1103,7.0717,6.986,6.9009,6.8192,6.7307,6.665,6.6185,6.6185,6.6185,6.6185,6.6185,6.6185,6.6185,6.6185,6.6185,6.6185,6.6185,6.6185,6.6185,6.6185,6.6185,6.6185,6.6185,6.6185,6.6185,6.6185,6.6456,6.6611,6.6263,6.7191,6.7617,6.6417,6.692,6.7307,6.6804,6.7462,6.839,6.9396,6.9667,6.9976,7.0446,7.1142,7.1601,7.1794,7.2297,7.2607,7.2607,7.2297,7.1833,7.1336,7.1297,7.1297,7.1297,7.1297,7.1297,7.1297,7.1297,7.1562,7.2065,7.1523,7.1872,6.5141,0.0,0.0,6.9053,6.9473,0.0,7.0866,0.0,0.0,0.0,0.0,7.0214,7.0943,7.0407,7.0175,7.1026,7.1181,7.1219,7.1297,7.1219,7.1181,7.1181,7.1098,7.075,6.9982,6.9827,6.9473,6.8733,6.7882,6.7384,6.7384,6.6611,6.6185,6.6185,6.6185,6.6572,6.7384,6.7384,6.7384,6.7384,6.8192,6.8192,6.7578,7.0054,7.1645,7.2491,7.2491,7.1988,7.1181,7.1181,7.0678,6.9827,6.9009,6.8192,6.7384,6.6533,6.6185,6.6185,6.6185,6.6185,6.6185,6.6185,6.6185,6.6185,6.6185,6.6185,6.6185,6.6185,6.6185,6.6185,6.6185,6.6185,6.6185,6.6185,6.6185,6.6185,6.6185,6.6804,6.7152,6.634,6.7501,6.8076,6.6456,6.6843,6.7384,6.7384,6.8076,6.8617,6.8772,7.0054,7.0982,7.1059,7.2568,7.3187,7.2336,7.2375,7.2491,7.2491,7.1756,7.1297,7.1297,7.1297,7.1297,7.1297,7.1297,7.1297,7.1297,7.1297,7.133,7.1407,7.133,7.1374,6.4024,6.4604,0.0,0.0,6.9938,7.0672,7.0368,0.0,0.0,0.0,0.0,6.9865,6.9435,6.9164,6.9319,7.0136,7.0291,7.0523,7.1219,7.0717,7.0291,7.0291,6.9705,6.928,6.9087,6.8429,6.7965,6.781,6.6959,6.6495,6.6495,6.6301,6.6185,6.6185,6.6185,6.6301,6.6495,6.6495,6.6495,6.6495,6.6688,6.7036,6.7578,6.944,7.0755,7.1568,7.1568,7.1103,7.0291,7.0291,6.9783,6.897,6.8119,6.7655,6.7384,6.6533,6.6185,6.6185,6.6185,6.6185,6.6185,6.6185,6.6185,6.6185,6.6185,6.6185,6.6185,6.6185,6.6185,6.6185,6.6185,6.6185,6.6185,6.6185,6.6185,6.6185,6.6185,6.634,6.6417,6.6224,6.6495,6.665,6.6263,6.6379,6.6495,6.6495,6.665,6.7268,6.8617,6.8506,6.8584,6.928,7.0247,7.0518,6.97,7.0827,7.1568,7.1568,7.1407,7.1297,7.1297,7.1297,7.1297,7.1297,7.1297,7.1297,7.1297,7.1297,7.164,7.2297,7.1601,7.2026,6.445,0.0,0.0,6.9241,0.0,0.0,0.0,0.0,0.0,0.0,6.944,6.9749,6.8965,6.9473,6.986,6.9473,7.0092,7.0639,7.0678,7.0639,7.0639,7.0639,6.986,6.9203,6.8849,6.7998,6.7346,6.692,6.6456,6.6185,6.6185,6.6185,6.6185,6.6185,6.6185,6.6185,6.6185,6.6185,6.6185,6.6185,6.6185,6.6456,6.6959,6.9053,7.0252,7.0678,7.0678,7.0214,6.9435,6.9435,6.8932,6.8114,6.7694,6.7268,6.6804,6.6379,6.6185,6.6185,6.6185,6.6185,6.6185,6.6185,6.6185,6.6185,6.6185,6.6185,6.6185,6.6185,6.6185,6.6185,6.6185,6.6185,6.6185,6.6185,6.6185,6.6185,6.6185,6.6185,6.6185,6.6185,6.6185,6.6185,6.6185,6.6185,6.6185,6.6185,6.6185,6.6843,6.8578,6.8385,6.8584,6.986,7.0363,7.044,7.0015,7.0789,7.1297,7.1297,7.1297,7.1297,7.1297,7.1297,7.1297,7.1297,7.1297,7.1297,7.1297,7.1717,7.2142,7.2607,7.2568,7.3032,6.4561,0.0,6.6998,7.0252,7.0446,0.0,0.0,0.0,0.0,6.7462,6.8506,6.9319,6.8506,6.9473,7.0054,6.8965,6.9976,7.0711,7.0291,7.0717,7.1065,7.1065,7.033,6.9512,6.8849,6.7998,6.7191,6.6495,6.6301,6.6185,6.6185,6.6185,6.6185,6.6185,6.6185,6.6185,6.6185,6.6185,6.6185,6.6185,6.6185,6.6185,6.6263,6.8395,6.944,6.9595,6.9749,6.9319,6.8578,6.8578,6.8076,6.7268,6.7268,6.6843,6.6185,6.6185,6.6185,6.6185,6.6185,6.6185,6.6185,6.6185,6.6185,6.6185,6.6185,6.6185,6.6185,6.6185,6.6185,6.6185,6.6185,6.6185,6.6185,6.6185,6.6185,6.6185,6.6185,6.6185,6.6185,6.6185,6.6185,6.6185,6.6185,6.6185,6.6185,6.6185,6.6185,6.6766,6.8385,6.8694,6.9313,7.0711,7.1137,7.1258,7.1103,7.1219,7.1297,7.1297,7.1297,7.1297,7.1297,7.1297,7.1297,7.1297,7.1297,7.1297,7.1297,7.2181,7.2684,7.2839,7.3574,7.4077,0.0,0.0,6.6843,0.0,6.9551,6.8965,0.0,0.0,6.7423,0.0,6.7152,6.7578,6.6727,6.6727,6.7307,6.8578,6.9004,6.9589,7.0943,7.0562,7.0175,7.0175,6.9473,6.8926,6.881,6.7998,6.7462,6.7346,6.6611,6.6185,6.6185,6.6185,6.6185,6.6185,6.6185,6.6185,6.6185,6.6185,6.6185,6.6185,6.6185,6.6185,6.6224,6.6533,6.7114,6.7887,6.8622,6.8462,6.7655,6.7655,6.7152,6.6379,6.6379,6.6301,6.6185,6.6185,6.6185,6.6185,6.6185,6.6185,6.6185,6.6185,6.6185,6.6185,6.6185,6.6185,6.6185,6.6185,6.6185,6.6185,6.6185,6.6185,6.6185,6.6185,6.6185,6.6185,6.6185,6.6185,6.6185,6.6185,6.6185,6.6185,6.6185,6.6185,6.6185,6.6185,6.6185,6.6572,6.7539,6.8346,6.8888,6.912,7.044,7.0987,7.0252,7.0871,7.1297,7.1297,7.1297,7.1297,7.1297,7.1297,7.1297,7.1297,7.1297,7.1297,7.1297,7.2181,7.2993,7.3728,7.3844,7.4695,6.2051,6.4329,6.6688,0.0,6.87,6.8076,6.8076,0.0,6.665,6.6263,6.6495,6.665,6.6263,6.6998,6.7771,6.8037,6.8854,6.9744,7.0484,7.0678,7.0717,7.0717,6.9976,6.9473,6.9473,6.8738,6.823,6.823,6.7887,6.7655,6.7655,6.7191,6.692,6.692,6.6456,6.6185,6.6185,6.6185,6.6185,6.6185,6.6185,6.6185,6.6185,6.6185,6.6417,6.6804,6.7191,6.7114,6.6766,6.6766,6.6533,6.6185,6.6185,6.6185,6.6185,6.6185,6.6185,6.6185,6.6185,6.6185,6.6185,6.6185,6.6185,6.6185,6.6185,6.6185,6.6185,6.6185,6.6185,6.6185,6.6185,6.6185,6.6185,6.6185,6.6185,6.6185,6.6185,6.6185,6.6185,6.6185,6.6185,6.6185,6.6185,6.6185,6.6185,6.6185,6.6185,6.6495,6.7384,6.8269,6.8965,6.9435,7.0556,7.1142,7.0755,7.1065,7.1297,7.1297,7.1297,7.1297,7.1297,7.1297,7.1297,7.1297,7.1297,7.1297,7.1297,7.2684,7.3535,7.3922,7.4342,7.496,0.0,0.0,6.518,6.7539,6.7501,6.6998,0.0,0.0,6.6185,0.0,6.6185,6.6185,6.6185,6.7268,6.8076,6.7843,6.8893,6.9827,7.0252,7.091,7.1297,7.1297,7.0717,7.033,7.033,6.9589,6.9087,6.9087,6.8926,6.881,6.881,6.8192,6.7849,6.7849,6.6998,6.6533,6.6533,6.6301,6.6185,6.6185,6.6185,6.6185,6.6185,6.6185,6.6185,6.6185,6.6185,6.6185,6.6185,6.6185,6.6185,6.6185,6.6185,6.6185,6.6185,6.6185,6.6185,6.6185,6.6185,6.6185,6.6185,6.6185,6.6185,6.6185,6.6185,6.6185,6.6185,6.6185,6.6185,6.6185,6.6185,6.6185,6.6185,6.6185,6.6185,6.6185,6.6185,6.6185,6.6185,6.6185,6.6185,6.6185,6.6185,6.6185,6.6185,6.6185,6.6185,6.6417,6.7075,6.8114,6.9048,6.9628,7.0678,7.1297,7.1297,7.1485,7.1523,7.1297,7.1529,7.1523,7.1297,7.1297,7.1407,7.164,7.164,7.1529,7.1297,7.2839,7.3574,7.3574,7.4419,7.4806,0.0,6.0731,0.0,6.5296,0.0,0.0,0.0,0.0,0.0,6.6185,6.6185,6.6185,6.6185,6.6263,6.6843,6.8462,6.881,6.9435,7.1021,7.1258,7.1297,7.1297,7.1258,7.1219,7.1219,7.0446,6.9943,6.9943,6.9241,6.881,6.881,6.8772,6.8733,6.8733,6.7887,6.7423,6.7423,6.6611,6.6185,6.6185,6.6185,6.6185,6.6185,6.6185,6.6185,6.6185,6.6185,6.6185,6.6185,6.6185,6.6185,6.6185,6.6185,6.6185,6.6185,6.6185,6.6185,6.6185,6.6185,6.6185,6.6185,6.6185,6.6185,6.6185,6.6185,6.6185,6.6185,6.6185,6.6185,6.6185,6.6185,6.6185,6.6185,6.6185,6.6185,6.6185,6.6185,6.6185,6.6185,6.6185,6.6185,6.6185,6.6185,6.6185,6.6185,6.6185,6.6185,6.6224,6.6263,6.7771,6.881,6.8849,7.0324,7.1297,7.1297,7.2065,7.2181,7.133,7.2065,7.2142,7.133,7.1297,7.1678,7.2529,7.2529,7.2142,7.1297,7.222,7.2684,7.2684,7.3574,7.396,0.0,0.0,0.0,6.3245,6.3942,6.4334,6.4914,6.5262,6.5417,6.5417,6.5837,6.6185,6.6185,6.6185,6.6766,6.8501,6.881,6.9396,7.1059,7.1297,7.1297,7.1297,7.1297,7.1297,7.1297,7.1026,7.0833,7.0833,7.0556,7.0402,7.0402,6.986,6.9551,6.9551,6.8777,6.8076,6.7501,6.665,6.6185,6.6185,6.6185,6.6185,6.6185,6.6185,6.6185,6.6185,6.6185,6.6185,6.6185,6.6185,6.6185,6.6185,6.6185,6.6185,6.6185,6.6185,6.6185,6.6185,6.6185,6.6185,6.6185,6.6185,6.6185,6.6185,6.6185,6.6185,6.6185,6.6185,6.6185,6.6185,6.6185,6.6185,6.6185,6.6185,6.6185,6.6185,6.6185,6.6185,6.6185,6.6185,6.6185,6.6185,6.6185,6.6185,6.6185,6.6185,6.6185,6.6185,6.6185,6.7733,6.881,6.881,7.0286,7.1297,7.1297,7.2104,7.2452,7.2142,7.2413,7.2452,7.2142,7.1601,7.1452,7.1756,7.2336,7.2452,7.2142,7.2993,7.3419,7.3458,7.3767,7.4187,5.7482,0.0,0.0,0.0,0.0,6.298,6.356,0.0,6.4643,6.4952,6.5417,6.5876,6.6147,6.6185,6.6766,6.8501,6.881,6.9396,7.1059,7.1297,7.1297,7.1297,7.1297,7.1181,7.091,7.0871,7.075,7.0479,7.044,0.0,7.044,6.9899,6.9473,6.9169,6.8622,6.7965,6.7075,6.6495,6.6185,6.6185,6.6185,6.6185,6.6185,6.6185,6.6185,6.6185,6.6185,6.6185,6.6185,6.6185,6.6185,6.6185,6.6185,6.6185,6.6185,6.6185,6.6185,6.6185,6.6185,6.6185,6.6185,6.6185,6.6185,6.6185,6.6185,6.6185,6.6185,6.6185,6.6185,6.6185,6.6185,6.6185,6.6185,6.6185,6.6185,6.6185,6.6185,6.6185,6.6185,6.6185,6.6185,6.6185,6.6185,6.6185,6.6185,6.6185,6.6185,6.6185,6.6185,6.7462,6.8462,6.8772,7.0054,7.0987,7.1297,7.2104,7.2607,7.2607,7.2877,7.2916,7.2607,7.2026,7.1756,7.1756,7.2297,7.2607,7.2607,7.3187,7.3303,7.3032,7.3342,7.3767,0.0,0.0,0.0,0.0,0.0,0.0,6.3212,0.0,6.3908,6.4759,6.4952,6.5223,6.6031,6.6185,6.6766,6.8462,6.8772,6.9357,7.1021,7.1258,7.1258,7.1297,7.1297,7.0949,7.0098,6.9982,6.9672,6.8849,6.881,6.881,6.881,6.881,6.8424,6.7578,6.7501,6.7075,6.6263,6.6224,6.6185,6.6185,6.6185,6.6185,6.6185,6.6185,6.6185,6.6185,6.6185,6.6185,6.6185,6.6185,6.6185,6.6185,6.6185,6.6185,6.6185,6.6185,6.6185,6.6185,6.6185,6.6185,6.6185,6.6185,6.6185,6.6185,6.6185,6.6185,6.6185,6.6185,6.6185,6.6185,6.6185,6.6185,6.6185,6.6185,6.6185,6.6185,6.6185,6.6185,6.6185,6.6185,6.6185,6.6185,6.6185,6.6185,6.6185,6.6185,6.6185,6.6185,6.6185,6.6959,6.781,6.8656,6.9512,7.033,7.1181,7.2065,7.2607,7.2607,7.338,7.3496,7.2645,7.2568,7.2568,7.2568,7.2607,7.2607,7.2568,7.2607,7.2181,7.1369,7.222,7.2645,5.5238,0.0,0.0,0.0,0.0,0.0,0.0,0.0,6.282,6.3052,6.4135,6.5069,6.5301,6.5799,6.6572,6.7694,6.7849,6.8429,7.0136,7.0368,7.0601,7.1219,7.1297,7.0949,7.0098,6.9982,6.9672,0.0,6.881,6.881,6.881,6.881,6.8694,6.8462,6.7849,6.7384,6.7152,6.6533,6.6185,6.6185,6.6185,6.6185,6.6185,6.6185,6.6185,6.6185,6.6185,6.6185,6.6185,6.6185,6.6185,6.6185,6.6185,6.6185,6.6185,6.6185,6.6185,6.6185,6.6185,6.6185,6.6185,6.6185,6.6185,6.6185,6.6185,6.6185,6.6185,6.6185,6.6185,6.6185,6.6185,6.6185,6.6185,6.6185,6.6185,6.6185,6.6185,6.6185,6.6185,6.6185,6.6185,6.6185,6.6185,6.6185,6.6185,6.6185,6.6185,6.6185,6.6185,6.6959,6.7578,6.7849,6.9125,7.0098,7.033,7.1756,7.2607,7.2607,7.2839,7.2839,7.2607,7.1988,7.164,7.164,7.2297,7.2297,7.164,7.2297,7.2491,7.2258,7.3148,7.3535,0.0,0.0,0.0,0.0,0.0,0.0,6.0862,6.1437,0.0,0.0,6.3177,6.3999,6.4406,6.5146,6.5876,6.6379,6.7036,6.8081,6.9749,7.033,7.0717,7.1258,7.1297,7.0827,6.9628,6.9512,6.9009,6.781,6.7733,6.7733,6.7733,6.7733,6.7733,6.7733,6.723,6.6959,6.6959,6.6456,6.6185,6.6185,6.6185,6.6185,6.6185,6.6185,6.6185,6.6185,6.6185,6.6185,6.6185,6.6185,6.6185,6.6185,6.6185,6.6185,6.6185,6.6185,6.6185,6.6185,6.6185,6.6185,6.6185,6.6185,6.6185,6.6185,6.6185,6.6185,6.6185,6.6185,6.6185,6.6185,6.6185,6.6185,6.6185,6.6185,6.6185,6.6185,6.6185,6.6185,6.6185,6.6185,6.6185,6.6185,6.6185,6.6185,6.6185,6.6185,6.6185,6.6185,6.6185,6.665,6.7114,6.7462,6.8352,6.9247,6.9943,7.0949,7.1833,7.2568,7.2607,7.2607,7.2607,7.2104,7.1678,7.1297,7.1794,7.1794,7.1297,7.2181,7.2607,7.2607,7.3109,7.338,0.0,5.6081,0.0,0.0,0.0,0.0,6.081,6.0992,6.1239,0.0,6.2233,6.2558,6.3381,6.4241,6.4821,6.4821,6.6253,6.796,6.9633,7.0601,7.1181,7.1297,7.1297,7.0672,6.9081,6.8849,6.8114,6.6456,6.6263,6.6185,6.6185,6.6185,6.6185,6.6185,6.6185,6.6185,6.6185,6.6185,6.6185,6.6185,6.6185,6.6185,6.6185,6.6185,6.6185,6.6185,6.6185,6.6185,6.6185,6.6185,6.6185,6.6185,6.6185,6.6185,6.6185,6.6185,6.6185,6.6185,6.6185,6.6185,6.6185,6.6185,6.6185,6.6185,6.6185,6.6185,6.6185,6.6185,6.6185,6.6185,6.6185,6.6185,6.6185,6.6185,6.6185,6.6185,6.6185,6.6185,6.6185,6.6185,6.6185,6.6185,6.6185,6.6185,6.6185,6.6185,6.6185,6.6185,6.6185,6.6185,6.6495,6.7268,6.7423,6.8158,6.9749,6.9943,7.0717,7.2336,7.2452,7.2452,7.2452,7.2452,7.2104,7.1336,7.1297,7.1297,7.1297,7.2065,7.2452,7.2452,7.2452,7.2452,5.5977,5.648,5.7607,5.9152,0.0,0.0,6.0799,6.0992,6.1036,0.0,6.1785,6.2297,6.2462,6.3201,6.378,6.378,6.5246,6.6989,6.8772,6.9744,7.0523,7.1219,7.1297,7.091,6.9865,6.9164,6.8385,6.7307,6.6611,6.6185,6.6185,6.6185,6.6185,6.6185,6.6185,6.6185,6.6185,6.6185,6.6185,6.6185,6.6185,6.6185,6.6185,6.6185,6.6185,6.6185,6.6185,6.6185,6.6185,6.6185,6.6185,6.6185,6.6185,6.6185,6.6185,6.6185,6.6185,6.6185,6.6185,6.6185,6.6185,6.6185,6.6185,6.6185,6.6185,6.6185,6.6185,6.6185,6.6185,6.6185,6.6185,6.6185,6.6185,6.6185,6.6185,6.6185,6.6185,6.6185,6.6185,6.6185,6.6185,6.6185,6.6185,6.6185,6.6185,6.6185,6.6185,6.6185,6.6185,6.6185,6.6263,6.6456,6.7075,6.7926,6.897,6.9628,7.0446,7.1485,7.1562,7.1562,7.1562,7.1562,7.1485,7.1297,7.1297,7.1297,7.1297,7.1485,7.1562,7.1562,7.1562,7.1562,5.6296,5.6609,5.7511,5.8736,0.0,0.0,0.0,6.0911,6.0916,6.0944,6.0916,6.1043,6.1532,6.1967,6.2397,6.2783,6.4684,6.6272,6.6796,6.8684,7.033,7.1219,7.1297,7.0949,7.0098,6.928,6.8269,6.6959,6.6456,6.6185,6.6185,6.6185,6.6185,6.6185,6.6185,6.6185,6.6185,6.6185,6.6185,6.6185,6.6185,6.6185,6.6185,6.6185,6.6185,6.6185,6.6185,6.6185,6.6185,6.6185,6.6185,6.6185,6.6185,6.6185,6.6185,6.6185,6.6185,6.6185,6.6185,6.6185,6.6185,6.6185,6.6185,6.6185,6.6185,6.6185,6.6185,6.6185,6.6185,6.6185,6.6185,6.6185,6.6185,6.6185,6.6185,6.6185,6.6185,6.6185,6.6185,6.6185,6.6185,6.6185,6.6185,6.6185,6.6185,6.6185,6.6185,6.6185,6.6185,6.6185,6.6185,6.6185,6.6572,6.7191,6.8076,6.8932,6.9744,7.0601,7.1065,7.1297,7.1297,7.1297,7.1297,7.1297,7.1297,7.1297,7.1297,7.1297,7.1297,7.1297,7.1297,7.1297,0.0,0.0,0.0,0.0,0.0,5.9991,0.0,0.0,0.0,6.0883,6.0316,0.0,0.0,0.0,0.0,0.0,0.0,0.0,0.0,6.7139,0.0,7.044,7.0711,7.0556,6.9827,6.8893,6.7733,6.6301,6.6069,6.6031,6.6185,6.6185,6.6185,6.6185,6.6185,6.6185,6.6185,6.6031,6.6031,6.6185,6.6031,6.5953,6.5953,6.6147,6.6108,6.5992,6.6147,6.6185,6.6185,6.6185,6.6185,6.6185,6.6185,6.6185,6.6185,6.6185,6.6185,6.6185,6.6185,6.6185,6.6185,6.6185,6.6185,6.6185,6.6185,6.6185,6.6185,6.6185,6.6185,6.6185,6.6185,6.6185,6.6185,6.6185,6.6185,6.6185,6.6185,6.6185,6.6185,6.6185,6.6185,6.6185,6.6185,6.6185,6.6185,6.6185,6.6185,6.6185,6.6185,6.6185,6.6185,6.6185,6.6185,6.6533,6.7423,6.8153,6.8893,6.9711,7.0562,7.1065,7.1065,7.1219,7.1297,7.1297,7.1297,7.1297,7.1297,7.1297,7.1297,7.1297,7.1297,7.1297,0.0,0.0,0.0,0.0,6.0096,0.0,0.0,0.0,6.0787,6.0793,0.0,0.0,0.0,0.0,0.0,0.0,0.0,0.0,6.3488,6.4657,6.6095,6.7727,6.8617,6.9043,6.8965,6.7462,6.6417,6.6224,6.5533,6.5455,6.6147,6.6185,6.6185,6.6185,6.6185,6.6185,6.6185,6.5494,6.5494,6.6185,6.5494,6.5146,6.5146,6.5876,6.5799,6.5185,6.5876,6.6185,6.6185,6.6185,6.6185,6.6185,6.6185,6.6185,6.6185,6.6185,6.6185,6.6185,6.6185,6.6185,6.6185,6.6185,6.6185,6.6185,6.6185,6.6185,6.6185,6.6185,6.6185,6.6185,6.6185,6.6185,6.6185,6.6185,6.6185,6.6185,6.6185,6.6185,6.6185,6.6185,6.6185,6.6185,6.6185,6.6185,6.6185,6.6185,6.6185,6.6185,6.6185,6.6185,6.6185,6.6185,6.6185,6.6533,6.7423,6.7578,6.8003,6.8888,6.9705,7.0136,7.0136,7.091,7.1297,7.1297,7.1297,7.1297,7.1297,7.1297,7.1297,7.1297,7.1297,7.1297,0.0,0.0,0.0,0.0,0.0,0.0,5.9986,0.0,5.9473,0.0,0.0,0.0,0.0,0.0,0.0,0.0,6.1609,0.0,0.0,0.0,6.4799,0.0,0.0,0.0,6.7307,6.6611,6.6185,0.0,6.5455,6.5339,6.6147,6.6185,6.6185,6.6185,6.6185,6.6185,6.6185,6.5876,6.5876,6.6185,6.5876,6.5682,6.5721,6.6031,6.6031,6.5721,6.6031,6.6185,6.6185,6.6185,6.6185,6.6185,6.6185,6.6185,6.6185,6.6185,6.6185,6.6185,6.6185,6.6185,6.6185,6.6185,6.6185,6.6185,6.6185,6.6185,6.6185,6.6185,6.6185,6.6185,6.6185,6.6185,6.6185,6.6185,6.6185,6.6185,6.6185,6.6185,6.6185,6.6185,6.6185,6.6185,6.6185,6.6185,6.6185,6.6185,6.6185,6.6185,6.6185,6.6185,6.6185,6.6185,6.6185,6.634,6.6727,6.723,6.7655,6.7998,6.8854,6.9744,7.0717,7.0639,7.0794,7.1297,7.1297,7.1297,7.1297,7.1297,7.1297,7.1297,7.1297,7.1297,5.6672,0.0,0.0,0.0,0.0,0.0,0.0,0.0,0.0,0.0,0.0,0.0,0.0,0.0,0.0,0.0,0.0,0.0,0.0,0.0,0.0,0.0,0.0,0.0,0.0,6.5296,0.0,6.5489,0.0,6.4754,6.5799,6.5876,6.5953,6.6185,6.6185,6.6185,6.6185,6.5992,6.5876,6.5876,6.5644,6.5489,6.5528,6.576,6.5876,6.5876,6.6108,6.6185,6.6185,6.6185,6.6185,6.6185,6.6185,6.6185,6.6185,6.6185,6.6185,6.6185,6.6185,6.6185,6.6185,6.6185,6.6185,6.6185,6.6185,6.6185,6.6185,6.6185,6.6185,6.6185,6.6185,6.6185,6.6185,6.6185,6.6185,6.6185,6.6185,6.6185,6.6185,6.6185,6.6185,6.6185,6.6185,6.6185,6.6185,6.6185,6.6185,6.6185,6.6185,6.6185,6.6185,6.6185,6.6185,6.6185,6.6185,6.6766,6.7268,6.7501,6.8076,6.9087,7.0556,7.0015,7.0059,7.0949,7.0949,7.1065,7.1297,7.1297,7.1297,7.1297,7.1297,7.1297,0.0,0.0,0.0,5.7391,0.0,0.0,0.0,0.0,5.949,0.0,0.0,0.0,0.0,0.0,0.0,0.0,0.0,0.0,0.0,0.0,0.0,0.0,0.0,0.0,0.0,6.3013,6.2859,0.0,6.2975,0.0,6.4952,6.503,6.5417,6.6185,6.6185,6.6185,6.6185,6.5417,6.503,6.503,6.4179,6.3792,6.3792,6.4643,6.503,6.5069,6.5876,6.6185,6.6185,6.6185,6.6185,6.6185,6.6185,6.6185,6.6185,6.6185,6.6185,6.6185,6.6185,6.6185,6.6185,6.6185,6.6185,6.6185,6.6185,6.6185,6.6185,6.6185,6.6185,6.6185,6.6185,6.6185,6.6185,6.6185,6.6185,6.6185,6.6185,6.6185,6.6185,6.6185,6.6185,6.6185,6.6185,6.6185,6.6185,6.6185,6.6185,6.6185,6.6185,6.6185,6.6185,6.6185,6.6185,6.6185,6.6185,6.6224,6.6611,6.7462,6.7539,6.7921,6.8849,6.8849,6.9203,7.002,7.0059,7.0446,7.1297,7.1297,7.1297,7.1297,7.1297,7.1297,0.0,0.0,5.7497,5.6927,0.0,0.0,0.0,0.0,0.0,0.0,0.0,0.0,0.0,0.0,0.0,0.0,0.0,0.0,0.0,0.0,0.0,0.0,0.0,0.0,0.0,0.0,0.0,0.0,6.3444,0.0,0.0,6.5494,6.5915,6.6185,6.6185,6.6185,6.6185,6.5915,6.5533,6.4991,6.5223,6.5069,6.4604,6.5417,6.5494,6.503,6.5837,6.5915,6.5455,6.5992,6.6185,6.6185,6.6185,6.6185,6.6185,6.6185,6.6185,6.6185,6.6185,6.6185,6.6185,6.6185,6.6185,6.6185,6.6185,6.6185,6.6185,6.6185,6.6185,6.6185,6.6185,6.6185,6.6185,6.6185,6.6185,6.6185,6.6185,6.6185,6.6185,6.6185,6.6185,6.6185,6.6185,6.6185,6.6185,6.6185,6.6185,6.6185,6.6185,6.6185,6.6185,6.6185,6.6185,6.6185,6.6185,6.6185,6.6572,6.7423,6.6959,6.7307,6.8733,6.823,6.8352,6.9203,6.9749,7.0136,7.0446,7.1026,7.1297,7.1297,7.1297,7.1297,5.6601,5.6949,0.0,5.6648,5.6799,0.0,5.7067,0.0,0.0,0.0,0.0,0.0,0.0,0.0,0.0,0.0,0.0,0.0,0.0,6.1046,0.0,0.0,0.0,0.0,0.0,0.0,6.2162,6.2747,6.2786,0.0,0.0,0.0,6.5455,6.576,6.6031,6.6185,6.6185,6.6185,6.5644,6.4566,6.5378,6.518,6.4097,6.4914,6.503,6.4566,6.5417,6.5494,6.5069,6.5876,6.6185,6.6185,6.6185,6.6185,6.6185,6.6185,6.6185,6.6185,6.6185,6.6185,6.6185,6.6185,6.6185,6.6185,6.6185,6.6185,6.6185,6.6185,6.6185,6.6185,6.6185,6.6185,6.6185,6.6185,6.6185,6.6185,6.6185,6.6185,6.6185,6.6185,6.6185,6.6185,6.6185,6.6185,6.6185,6.6185,6.6185,6.6185,6.6185,6.6185,6.6185,6.6185,6.6185,6.6185,6.6185,6.6185,6.6456,6.6998,6.6495,6.6688,6.7849,6.7346,6.7462,6.8308,6.9164,6.9711,6.9982,7.0562,7.0833,7.0833,7.0556,7.0402]}]]